[[{"header":{"parameterUnit":"m.s-1","parameterCategory":1,"la1":31.0,"la2":29.5877,"lo1":-88.7671,"lo2":-86.6584,"dy":0.0162,"dx":0.0185,"nx":115,"ny":88,"refTime":"2023-09-26T06:00:00:Z","depth":0,"parameterNumber":2,"parameterNumberName":"U-component_of_WINDS"},"data":[0.0,0.0,0.0,0.0,0.0,0.0,0.0,0.0,0.0,0.0,0.0,0.0,0.0,0.0,0.0,0.0,0.0,0.0,0.0,0.0,0.0,0.0,0.0,0.0,0.0,0.0,0.0,0.0,0.0,0.0,0.0,0.0,0.0,0.0,0.0,0.0,0.0,0.0,0.0,0.0,0.0,0.0,0.0,0.0,0.0,0.0,0.0,0.0,0.0,0.0,0.0,0.0,0.0,0.0,0.0,0.0,0.0,0.0,0.0,0.0,0.0,0.0,0.0,0.0,0.0,0.0,0.0,0.0,0.0,0.0,0.0,0.0,0.0,0.0,0.0,0.0,0.0,0.0,0.0,0.0,0.0,0.0,0.0,0.0,0.0,0.0,0.0,0.0,0.0,0.0,0.0,0.0,0.0,0.0,0.0,0.0,0.0,0.0,0.0,0.0,0.0,0.0,0.0,0.0,0.0,0.0,0.0,0.0,0.0,0.0,0.0,0.0,0.0,0.0,0.0,0.0,0.0,0.0,0.0,0.0,0.0,0.0,0.0,0.0,0.0,0.0,0.0,0.0,0.0,0.0,0.0,0.0,0.0,0.0,0.0,0.0,0.0,0.0,0.0,0.0,0.0,0.0,0.0,0.0,0.0,0.0,0.0,0.0,0.0,0.0,0.0,0.0,0.0,0.0,0.0,0.0,0.0,0.0,0.0,0.0,0.0,0.0,0.0,0.0,0.0,0.0,0.0,0.0,0.0,0.0,0.0,0.0,0.0,0.0,0.0,0.0,0.0,0.0,0.0,0.0,0.0,0.0,0.0,0.0,0.0,0.0,0.0,0.0,0.0,0.0,0.0,0.0,0.0,0.0,0.0,0.0,0.0,0.0,0.0,0.0,0.0,0.0,0.0,0.0,0.0,0.0,0.0,0.0,0.0,0.0,0.0,0.0,0.0,0.0,0.0,0.0,0.0,0.0,0.0,0.0,0.0,0.0,0.0,0.0,0.0,0.0,0.0,0.0,0.0,0.0,0.0,0.0,0.0,0.0,0.0,0.0,0.0,0.0,0.0,0.0,0.0,0.0,0.0,0.0,0.0,0.0,0.0,0.0,0.0,0.0,0.0,0.0,0.0,0.0,0.0,0.0,0.0,0.0,0.0,0.0,0.0,0.0,0.0,0.0,0.0,0.0,0.0,0.0,0.0,0.0,0.0,0.0,0.0,0.0,0.0,0.0,0.0,0.0,0.0,0.0,0.0,0.0,0.0,0.0,0.0,0.0,0.0,0.0,0.0,0.0,0.0,0.0,0.0,0.0,0.0,0.0,0.0,0.0,0.0,0.0,0.0,0.0,0.0,0.0,0.0,0.0,0.0,0.0,0.0,0.0,0.0,0.0,0.0,0.0,0.0,0.0,0.0,0.0,0.0,0.0,0.0,0.0,0.0,0.0,0.0,0.0,0.0,0.0,0.0,0.0,0.0,0.0,0.0,0.0,0.0,0.0,0.0,0.0,0.0,0.0,0.0,0.0,0.0,0.0,0.0,0.0,0.0,0.0,0.0,0.0,0.0,0.0,0.0,0.0,0.0,0.0,0.0,0.0,0.0,0.0,0.0,0.0,0.0,0.0,0.0,0.0,0.0,0.0,0.0,0.0,0.0,0.0,0.0,0.0,0.0,0.0,0.0,0.0,0.0,0.0,0.0,0.0,0.0,0.0,0.0,0.0,0.0,0.0,0.0,0.0,0.0,0.0,0.0,0.0,0.0,0.0,0.0,0.0,0.0,0.0,0.0,0.0,0.0,0.0,0.0,0.0,0.0,0.0,0.0,0.0,0.0,0.0,0.0,0.0,0.0,0.0,0.0,0.0,0.0,0.0,0.0,0.0,0.0,0.0,0.0,0.0,0.0,0.0,0.0,0.0,0.0,0.0,0.0,0.0,0.0,0.0,0.0,0.0,0.0,0.0,0.0,0.0,0.0,0.0,0.0,0.0,0.0,0.0,0.0,0.0,0.0,0.0,0.0,0.0,0.0,0.0,0.0,0.0,0.0,0.0,0.0,0.0,0.0,0.0,0.0,0.0,0.0,0.0,0.0,0.0,0.0,0.0,0.0,0.0,0.0,0.0,0.0,0.0,0.0,0.0,0.0,0.0,0.0,0.0,0.0,0.0,0.0,0.0,0.0,0.0,0.0,0.0,0.0,0.0,0.0,0.0,0.0,0.0,0.0,0.0,0.0,0.0,0.0,0.0,0.0,0.0,0.0,0.0,0.0,0.0,0.0,0.0,0.0,0.0,0.0,0.0,0.0,0.0,0.0,0.0,0.0,0.0,0.0,0.0,0.0,0.0,0.0,0.0,0.0,0.0,0.0,0.0,0.0,0.0,0.0,0.0,0.0,0.0,0.0,0.0,0.0,0.0,0.0,0.0,0.0,0.0,0.0,0.0,0.0,0.0,0.0,0.0,0.0,0.0,0.0,0.0,0.0,0.0,0.0,0.0,0.0,0.0,0.0,0.0,0.0,0.0,0.0,0.0,0.0,0.0,0.0,0.0,0.0,0.0,0.0,0.0,0.0,0.0,0.0,0.0,0.0,0.0,0.0,0.0,0.0,0.0,0.0,0.0,0.0,0.0,0.0,0.0,0.0,0.0,0.0,0.0,0.0,0.0,0.0,0.0,0.0,0.0,0.0,0.0,0.0,0.0,0.0,0.0,0.0,0.0,0.0,0.0,0.0,0.0,0.0,0.0,0.0,0.0,0.0,0.0,0.0,0.0,0.0,0.0,0.0,0.0,0.0,0.0,0.0,0.0,0.0,0.0,0.0,0.0,0.0,0.0,0.0,0.0,0.0,0.0,0.0,0.0,0.0,0.0,0.0,0.0,0.0,0.0,0.0,0.0,0.0,0.0,0.0,0.0,0.0,0.0,0.0,0.0,0.0,0.0,0.0,0.0,0.0,0.0,0.0,0.0,0.0,0.0,0.0,0.0,0.0,0.0,0.0,0.0,0.0,0.0,0.0,0.0,0.0,0.0,0.0,0.0,0.0,0.0,0.0,0.0,0.0,0.0,0.0,0.0,0.0,0.0,0.0,0.0,0.0,0.0,0.0,0.0,0.0,0.0,0.0,0.0,0.0,0.0,0.0,0.0,0.0,0.0,0.0,0.0,0.0,0.0,0.0,0.0,0.0,0.0,0.0,0.0,0.0,0.0,0.0,0.0,0.0,0.0,0.0,0.0,0.0,0.0,0.0,0.0,0.0,0.0,0.0,0.0,0.0,0.0,0.0,0.0,0.0,0.0,0.0,0.0,0.0,0.0,0.0,0.0,0.0,0.0,0.0,0.0,0.0,0.0,0.0,0.0,0.0,0.0,0.0,0.0,0.0,0.0,0.0,0.0,0.0,0.0,0.0,0.0,0.0,0.0,0.0,0.0,0.0,0.0,0.0,0.0,0.0,0.0,0.0,0.0,0.0,0.0,0.0,0.0,0.0,0.0,0.0,0.0,0.0,0.0,0.0,0.0,0.0,0.0,0.0,0.0,0.0,0.0,0.0,0.0,0.0,0.0,0.0,0.0,0.0,0.0,0.0,0.0,0.0,0.0,0.0,0.0,0.0,0.0,0.0,0.0,0.0,0.0,0.0,0.0,0.0,0.0,0.0,0.0,0.0,0.0,0.0,0.0,0.0,0.0,0.0,0.0,0.0,0.0,0.0,0.0,0.0,0.0,0.0,0.0,0.0,0.0,0.0,0.0,0.0,0.0,0.0,0.0,0.0,0.0,0.0,0.0,0.0,0.0,0.0,0.0,0.0,0.0,0.0,0.0,0.0,0.0,0.0,0.0,0.0,0.0,0.0,0.0,0.0,0.0,0.0,0.0,0.0,0.0,0.0,0.0,0.0,0.0,0.0,0.0,0.0,0.0,0.0,0.0,0.0,0.0,0.0,0.0,0.0,0.0,0.0,0.0,0.0,0.0,0.0,0.0,0.0,0.0,0.0,0.0,0.0,0.0,0.0,0.0,0.0,0.0,0.0,0.0,0.0,0.0,0.0,0.0,0.0,0.0,0.0,0.0,0.0,0.0,0.0,0.0,0.0,0.0,0.0,0.0,0.0,0.0,0.0,0.0,0.0,0.0,0.0,0.0,0.0,0.0,0.0,0.0,0.0,0.0,0.0,0.0,0.0,0.0,0.0,0.0,0.0,0.0,0.0,0.0,0.0,0.0,0.0,0.0,0.0,0.0,0.0,0.0,0.0,0.0,0.0,0.0,0.0,0.0,0.0,0.0,0.0,0.0,0.0,0.0,2.343,0.0,0.0,0.0,0.0,0.0,0.0,0.0,0.0,0.0,0.0,0.0,0.0,0.0,0.0,0.0,0.0,0.0,0.0,0.0,0.0,0.0,0.0,0.0,0.0,0.0,0.0,0.0,0.0,0.0,0.0,0.0,0.0,0.0,0.0,0.0,0.0,0.0,0.0,0.0,0.0,0.0,0.0,0.0,0.0,0.0,0.0,0.0,0.0,0.0,0.0,0.0,0.0,0.0,0.0,0.0,0.0,0.0,0.0,0.0,0.0,0.0,0.0,0.0,0.0,0.0,0.0,0.0,0.0,0.0,0.0,0.0,0.0,0.0,0.0,0.0,0.0,0.0,0.0,0.0,0.0,0.0,0.0,0.0,0.0,0.0,0.0,0.0,0.0,0.0,0.0,0.0,0.0,0.0,0.0,0.0,0.0,0.0,0.0,0.0,0.0,0.0,0.0,0.0,0.0,0.0,0.0,0.0,0.0,0.0,0.0,2.7565,2.6623,2.5922,2.5083,2.406,0.0,0.0,0.0,0.0,0.0,0.0,0.0,0.0,0.0,0.0,0.0,0.0,0.0,0.0,0.0,0.0,0.0,0.0,0.0,0.0,0.0,0.0,0.0,0.0,0.0,0.0,0.0,0.0,0.0,0.0,0.0,0.0,0.0,0.0,0.0,0.0,0.0,0.0,0.0,0.0,0.0,0.0,0.0,0.0,0.0,0.0,0.0,0.0,0.0,0.0,0.0,0.0,0.0,0.0,0.0,0.0,0.0,0.0,0.0,0.0,0.0,0.0,0.0,0.0,0.0,0.0,0.0,0.0,0.0,0.0,0.0,0.0,0.0,0.0,0.0,0.0,0.0,0.0,0.0,0.0,0.0,0.0,0.0,0.0,0.0,0.0,0.0,0.0,0.0,0.0,0.0,0.0,0.0,0.0,0.0,0.0,0.0,0.0,0.0,0.0,0.0,0.0,0.0,0.0,0.0,0.0,0.0,0.0,0.0,0.0,0.0,0.0,2.5866,2.4827,2.4548,0.0,0.0,0.0,0.0,0.0,0.0,0.0,0.0,0.0,0.0,0.0,0.0,0.0,0.0,0.0,0.0,0.0,0.0,0.0,0.0,0.0,0.0,0.0,0.0,0.0,0.0,0.0,0.0,0.0,0.0,0.0,0.0,0.0,0.0,0.0,0.0,0.0,0.0,0.0,0.0,0.0,0.0,0.0,0.0,0.0,0.0,0.0,0.0,0.0,0.0,0.0,0.0,0.0,0.0,0.0,0.0,0.0,0.0,0.0,0.0,0.0,0.0,0.0,0.0,0.0,0.0,0.0,0.0,0.0,0.0,0.0,0.0,0.0,0.0,0.0,0.0,0.0,0.0,0.0,0.0,0.0,0.0,0.0,0.0,0.0,0.0,0.0,0.0,0.0,0.0,0.0,0.0,0.0,0.0,0.0,0.0,0.0,0.0,0.0,0.0,0.0,0.0,0.0,0.0,0.0,0.0,0.0,0.0,0.0,0.0,2.7282,2.5851,2.5525,0.0,2.3996,0.0,0.0,0.0,0.0,0.0,0.0,0.0,0.0,0.0,0.0,0.0,0.0,0.0,0.0,0.0,0.0,0.0,0.0,0.0,0.0,0.0,0.0,0.0,0.0,0.0,0.0,0.0,0.0,0.0,0.0,0.0,0.0,0.0,0.0,0.0,0.0,0.0,0.0,0.0,0.0,0.0,0.0,0.0,0.0,0.0,0.0,0.0,0.0,0.0,0.0,0.0,0.0,0.0,0.0,0.0,0.0,0.0,0.0,0.0,0.0,0.0,0.0,0.0,0.0,0.0,0.0,0.0,0.0,0.0,0.0,0.0,0.0,0.0,0.0,0.0,0.0,0.0,0.0,0.0,0.0,0.0,0.0,0.0,0.0,0.0,0.0,0.0,0.0,0.0,0.0,0.0,0.0,0.0,0.0,0.0,0.0,0.0,0.0,0.0,0.0,0.0,0.0,0.0,0.0,0.0,0.0,0.0,0.0,0.0,0.0,2.7444,2.7105,2.5764,2.4991,0.0,0.0,0.0,0.0,0.0,0.0,0.0,0.0,0.0,0.0,0.0,0.0,0.0,0.0,0.0,0.0,0.0,0.0,0.0,0.0,0.0,0.0,0.0,0.0,0.0,0.0,0.0,0.0,0.0,0.0,0.0,0.0,0.0,0.0,0.0,0.0,0.0,0.0,0.0,0.0,0.0,0.0,0.0,0.0,0.0,0.0,0.0,0.0,0.0,0.0,0.0,0.0,0.0,0.0,0.0,0.0,0.0,0.0,0.0,0.0,0.0,0.0,0.0,0.0,0.0,0.0,0.0,0.0,0.0,0.0,0.0,0.0,0.0,0.0,0.0,0.0,0.0,0.0,0.0,0.0,0.0,0.0,0.0,0.0,0.0,0.0,0.0,0.0,0.0,0.0,0.0,0.0,0.0,0.0,0.0,0.0,0.0,0.0,0.0,0.0,0.0,0.0,0.0,0.0,0.0,0.0,0.0,0.0,0.0,0.0,2.7869,2.7614,2.7734,2.6104,2.527,2.5545,0.0,0.0,0.0,0.0,0.0,0.0,0.0,0.0,0.0,0.0,0.0,0.0,0.0,0.0,0.0,0.0,0.0,0.0,0.0,0.0,0.0,0.0,0.0,0.0,0.0,0.0,0.0,0.0,0.0,0.0,0.0,0.0,0.0,0.0,0.0,0.0,0.0,0.0,0.0,0.0,0.0,0.0,0.0,0.0,0.0,0.0,0.0,0.0,0.0,0.0,0.0,0.0,0.0,0.0,0.0,0.0,0.0,0.0,0.0,0.0,0.0,0.0,0.0,0.0,0.0,0.0,0.0,0.0,0.0,0.0,0.0,0.0,0.0,0.0,0.0,0.0,0.0,0.0,0.0,0.0,0.0,0.0,0.0,0.0,0.0,0.0,0.0,0.0,0.0,0.0,0.0,0.0,0.0,0.0,0.0,0.0,0.0,0.0,0.0,0.0,0.0,0.0,0.0,0.0,0.0,0.0,0.0,0.0,2.9678,2.8651,2.7778,2.7261,2.6408,2.5853,0.0,0.0,0.0,0.0,0.0,0.0,0.0,0.0,0.0,0.0,0.0,0.0,0.0,0.0,0.0,0.0,0.0,0.0,0.0,0.0,0.0,0.0,0.0,0.0,0.0,0.0,0.0,0.0,0.0,0.0,0.0,0.0,0.0,0.0,0.0,0.0,0.0,0.0,0.0,0.0,0.0,0.0,0.0,0.0,0.0,0.0,0.0,0.0,0.0,0.0,0.0,0.0,0.0,0.0,0.0,0.0,0.0,0.0,0.0,0.0,0.0,0.0,0.0,0.0,0.0,0.0,0.0,0.0,0.0,0.0,0.0,0.0,0.0,0.0,0.0,0.0,0.0,0.0,0.0,0.0,0.0,0.0,0.0,0.0,0.0,0.0,0.0,0.0,0.0,0.0,0.0,0.0,0.0,0.0,0.0,0.0,0.0,0.0,0.0,0.0,0.0,0.0,0.0,0.0,0.0,0.0,0.0,0.0,0.0,2.9647,2.9406,2.9404,2.9756,2.7604,2.6451,0.0,0.0,0.0,0.0,0.0,0.0,0.0,0.0,0.0,0.0,0.0,0.0,0.0,0.0,0.0,0.0,0.0,0.0,0.0,0.0,0.0,0.0,0.0,0.0,0.0,0.0,0.0,0.0,0.0,0.0,0.0,0.0,0.0,0.0,0.0,0.0,0.0,0.0,0.0,0.0,0.0,0.0,0.0,0.0,0.0,0.0,0.0,0.0,0.0,0.0,0.0,0.0,0.0,0.0,0.0,0.0,0.0,0.0,0.0,0.0,0.0,0.0,0.0,0.0,0.0,0.0,0.0,0.0,0.0,0.0,0.0,0.0,0.0,0.0,0.0,0.0,0.0,0.0,0.0,0.0,0.0,0.0,0.0,0.0,0.0,0.0,0.0,0.0,0.0,0.0,0.0,0.0,0.0,0.0,0.0,0.0,0.0,0.0,0.0,0.0,0.0,0.0,0.0,0.0,0.0,0.0,0.0,0.0,0.0,2.9357,0.0,2.963,3.0425,2.7832,2.6596,0.0,0.0,0.0,0.0,0.0,0.0,0.0,0.0,0.0,0.0,0.0,0.0,0.0,0.0,0.0,0.0,0.0,0.0,0.0,0.0,0.0,0.0,0.0,0.0,0.0,0.0,0.0,0.0,0.0,0.0,0.0,0.0,0.0,0.0,0.0,0.0,0.0,0.0,0.0,0.0,0.0,0.0,0.0,0.0,0.0,0.0,0.0,0.0,0.0,0.0,0.0,0.0,0.0,0.0,0.0,0.0,0.0,0.0,0.0,0.0,0.0,0.0,0.0,0.0,0.0,0.0,0.0,0.0,0.0,0.0,0.0,0.0,0.0,0.0,0.0,0.0,0.0,0.0,0.0,0.0,0.0,0.0,0.0,0.0,0.0,0.0,0.0,0.0,0.0,0.0,0.0,0.0,0.0,0.0,0.0,0.0,0.0,0.0,0.0,0.0,0.0,0.0,0.0,0.0,0.0,0.0,0.0,0.0,2.8245,2.8766,2.8248,2.8294,2.8775,2.7086,2.6214,0.0,0.0,0.0,0.0,0.0,0.0,0.0,0.0,0.0,0.0,0.0,0.0,0.0,0.0,0.0,0.0,0.0,0.0,0.0,0.0,0.0,0.0,0.0,0.0,0.0,0.0,0.0,0.0,0.0,0.0,0.0,0.0,0.0,0.0,0.0,0.0,0.0,0.0,0.0,0.0,0.0,0.0,0.0,0.0,0.0,0.0,0.0,0.0,0.0,0.0,0.0,0.0,0.0,0.0,0.0,0.0,0.0,0.0,0.0,0.0,0.0,0.0,0.0,0.0,0.0,0.0,0.0,0.0,0.0,0.0,0.0,0.0,0.0,0.0,0.0,0.0,0.0,0.0,0.0,0.0,0.0,0.0,0.0,0.0,0.0,0.0,0.0,0.0,0.0,0.0,0.0,0.0,0.0,0.0,0.0,0.0,0.0,0.0,0.0,0.0,0.0,0.0,0.0,0.0,0.0,0.0,0.0,0.0,0.0,2.8766,2.8164,2.858,3.0049,2.7239,2.5923,0.0,0.0,0.0,0.0,0.0,0.0,0.0,0.0,0.0,0.0,0.0,0.0,0.0,0.0,0.0,0.0,0.0,0.0,0.0,0.0,0.0,0.0,0.0,0.0,0.0,0.0,0.0,0.0,0.0,0.0,0.0,0.0,0.0,0.0,0.0,0.0,0.0,0.0,0.0,0.0,0.0,0.0,0.0,0.0,0.0,0.0,0.0,0.0,0.0,0.0,0.0,0.0,0.0,0.0,0.0,0.0,0.0,0.0,0.0,0.0,0.0,0.0,0.0,0.0,0.0,0.0,0.0,0.0,0.0,0.0,0.0,0.0,0.0,0.0,0.0,0.0,0.0,0.0,0.0,0.0,0.0,0.0,0.0,0.0,0.0,0.0,0.0,0.0,0.0,0.0,0.0,0.0,0.0,0.0,0.0,0.0,0.0,0.0,0.0,0.0,0.0,0.0,0.0,0.0,0.0,0.0,0.0,0.0,0.0,2.9527,2.8296,2.8377,3.0125,2.7372,2.6043,2.641,0.0,0.0,0.0,0.0,0.0,0.0,0.0,0.0,0.0,0.0,0.0,0.0,0.0,0.0,0.0,0.0,0.0,0.0,0.0,0.0,0.0,0.0,0.0,0.0,0.0,0.0,0.0,0.0,0.0,0.0,0.0,0.0,0.0,0.0,0.0,0.0,0.0,0.0,0.0,0.0,0.0,0.0,0.0,0.0,0.0,0.0,0.0,0.0,0.0,0.0,0.0,0.0,0.0,0.0,0.0,0.0,0.0,0.0,0.0,0.0,0.0,0.0,0.0,0.0,0.0,0.0,0.0,0.0,0.0,0.0,0.0,0.0,0.0,0.0,0.0,0.0,0.0,0.0,0.0,0.0,0.0,0.0,0.0,0.0,0.0,0.0,0.0,0.0,0.0,0.0,0.0,0.0,0.0,0.0,0.0,0.0,0.0,0.0,0.0,0.0,0.0,0.0,0.0,0.0,0.0,0.0,0.0,0.0,3.1074,2.8782,2.8115,2.9085,2.7538,2.6483,0.0,0.0,0.0,0.0,0.0,0.0,0.0,0.0,0.0,0.0,0.0,0.0,0.0,0.0,0.0,0.0,0.0,0.0,0.0,0.0,0.0,0.0,0.0,0.0,0.0,0.0,0.0,0.0,0.0,0.0,0.0,0.0,0.0,0.0,0.0,0.0,0.0,0.0,0.0,0.0,0.0,0.0,0.0,0.0,0.0,0.0,0.0,0.0,0.0,0.0,0.0,0.0,0.0,0.0,0.0,0.0,0.0,0.0,0.0,0.0,0.0,0.0,0.0,0.0,0.0,0.0,0.0,0.0,0.0,0.0,0.0,0.0,0.0,0.0,0.0,0.0,0.0,0.0,0.0,0.0,0.0,0.0,0.0,0.0,0.0,0.0,0.0,0.0,0.0,0.0,0.0,0.0,0.0,0.0,0.0,0.0,0.0,0.0,0.0,0.0,0.0,0.0,0.0,0.0,0.0,0.0,0.0,0.0,0.0,3.0977,3.1073,3.1111,3.1201,2.8767,2.7199,0.0,0.0,0.0,0.0,0.0,0.0,0.0,0.0,0.0,0.0,0.0,0.0,0.0,0.0,0.0,0.0,0.0,0.0,0.0,0.0,0.0,0.0,0.0,0.0,0.0,0.0,0.0,0.0,0.0,0.0,0.0,0.0,0.0,0.0,0.0,0.0,0.0,0.0,0.0,0.0,0.0,0.0,0.0,0.0,0.0,0.0,0.0,0.0,0.0,0.0,0.0,0.0,0.0,0.0,0.0,0.0,0.0,0.0,0.0,0.0,0.0,0.0,0.0,0.0,0.0,0.0,0.0,0.0,0.0,0.0,0.0,0.0,0.0,0.0,0.0,0.0,0.0,0.0,0.0,0.0,0.0,0.0,0.0,0.0,0.0,0.0,0.0,0.0,0.0,0.0,0.0,0.0,0.0,0.0,0.0,0.0,0.0,0.0,0.0,0.0,0.0,0.0,0.0,0.0,0.0,0.0,0.0,0.0,2.9868,3.1263,3.2822,3.3503,3.3205,3.0729,2.8752,0.0,0.0,0.0,0.0,0.0,0.0,0.0,0.0,0.0,0.0,0.0,0.0,0.0,0.0,0.0,0.0,0.0,0.0,0.0,0.0,0.0,0.0,0.0,0.0,0.0,0.0,0.0,0.0,0.0,0.0,0.0,0.0,0.0,0.0,0.0,0.0,0.0,0.0,0.0,0.0,0.0,0.0,0.0,0.0,0.0,0.0,0.0,0.0,0.0,0.0,0.0,0.0,0.0,0.0,0.0,0.0,0.0,0.0,0.0,0.0,0.0,0.0,0.0,0.0,0.0,0.0,0.0,0.0,0.0,0.0,0.0,0.0,0.0,0.0,0.0,0.0,0.0,0.0,0.0,0.0,0.0,0.0,0.0,0.0,0.0,0.0,0.0,0.0,0.0,0.0,0.0,0.0,0.0,0.0,0.0,0.0,0.0,0.0,0.0,0.0,0.0,0.0,0.0,0.0,0.0,0.0,0.0,0.0,3.1942,3.1944,3.4238,3.5273,3.4844,3.2912,3.0613,0.0,0.0,0.0,0.0,0.0,0.0,0.0,0.0,0.0,0.0,0.0,0.0,0.0,0.0,0.0,0.0,0.0,0.0,0.0,0.0,0.0,0.0,0.0,0.0,0.0,0.0,0.0,0.0,0.0,0.0,0.0,0.0,0.0,0.0,0.0,0.0,0.0,0.0,0.0,0.0,0.0,0.0,0.0,0.0,0.0,0.0,0.0,0.0,0.0,0.0,0.0,0.0,0.0,0.0,0.0,0.0,0.0,0.0,0.0,0.0,0.0,0.0,0.0,0.0,0.0,0.0,0.0,0.0,0.0,0.0,0.0,0.0,0.0,0.0,0.0,0.0,0.0,0.0,0.0,0.0,0.0,0.0,0.0,0.0,0.0,0.0,0.0,0.0,0.0,0.0,0.0,0.0,0.0,0.0,0.0,0.0,0.0,0.0,0.0,0.0,0.0,0.0,0.0,0.0,0.0,0.0,0.0,0.0,3.19,3.4525,3.543,3.5996,3.623,3.3576,3.1211,0.0,0.0,0.0,0.0,0.0,0.0,0.0,0.0,0.0,0.0,0.0,0.0,0.0,0.0,0.0,0.0,0.0,0.0,0.0,0.0,0.0,0.0,0.0,0.0,0.0,0.0,0.0,0.0,0.0,0.0,0.0,0.0,0.0,0.0,0.0,0.0,0.0,0.0,0.0,0.0,0.0,0.0,0.0,0.0,0.0,0.0,0.0,0.0,2.634,0.0,0.0,0.0,0.0,0.0,0.0,0.0,0.0,0.0,0.0,0.0,0.0,0.0,0.0,0.0,0.0,0.0,0.0,0.0,0.0,0.0,0.0,0.0,0.0,0.0,0.0,0.0,0.0,0.0,0.0,0.0,0.0,0.0,0.0,0.0,0.0,0.0,0.0,0.0,0.0,0.0,0.0,0.0,0.0,0.0,0.0,0.0,0.0,0.0,0.0,0.0,0.0,0.0,0.0,0.0,0.0,0.0,0.0,0.0,3.2305,3.5293,3.6387,3.6934,3.6875,3.4642,3.2394,0.0,0.0,0.0,0.0,0.0,0.0,0.0,0.0,0.0,0.0,0.0,0.0,0.0,0.0,0.0,0.0,0.0,0.0,0.0,0.0,0.0,0.0,0.0,0.0,0.0,0.0,0.0,0.0,0.0,0.0,0.0,0.0,0.0,0.0,0.0,0.0,0.0,0.0,0.0,0.0,0.0,0.0,0.0,0.0,0.0,0.0,0.0,0.0,0.0,0.0,0.0,0.0,0.0,0.0,0.0,0.0,0.0,0.0,0.0,0.0,0.0,0.0,0.0,0.0,0.0,0.0,0.0,0.0,0.0,0.0,0.0,0.0,0.0,0.0,0.0,0.0,0.0,0.0,0.0,0.0,0.0,0.0,0.0,0.0,0.0,0.0,0.0,0.0,0.0,0.0,0.0,0.0,0.0,0.0,0.0,0.0,0.0,0.0,0.0,0.0,0.0,0.0,0.0,0.0,0.0,0.0,0.0,3.0733,3.2879,3.5684,3.7187,3.7754,3.7383,3.5703,3.3672,3.1289,0.0,0.0,0.0,0.0,0.0,0.0,0.0,0.0,0.0,0.0,0.0,0.0,0.0,0.0,0.0,0.0,0.0,0.0,0.0,0.0,0.0,0.0,0.0,0.0,0.0,0.0,0.0,0.0,0.0,0.0,0.0,0.0,0.0,0.0,0.0,0.0,0.0,0.0,2.9618,2.9556,0.0,0.0,0.0,0.0,0.0,0.0,0.0,0.0,2.7181,0.0,0.0,0.0,0.0,0.0,0.0,0.0,0.0,0.0,0.0,0.0,0.0,0.0,0.0,0.0,0.0,0.0,0.0,0.0,0.0,0.0,0.0,0.0,0.0,0.0,0.0,0.0,0.0,0.0,0.0,0.0,0.0,0.0,0.0,0.0,0.0,0.0,0.0,0.0,0.0,0.0,0.0,0.0,0.0,0.0,0.0,0.0,0.0,0.0,0.0,0.0,0.0,0.0,0.0,0.0,0.0,3.1035,3.1357,3.3425,3.7383,3.7738,3.7855,3.7773,3.6172,3.4394,3.25,0.0,0.0,0.0,0.0,0.0,0.0,0.0,0.0,0.0,0.0,0.0,0.0,0.0,0.0,0.0,0.0,0.0,0.0,0.0,0.0,0.0,0.0,0.0,0.0,0.0,0.0,0.0,0.0,0.0,0.0,0.0,0.0,0.0,0.0,0.0,0.0,0.0,0.0,0.0,2.8196,2.7292,0.0,0.0,0.0,0.0,0.0,0.0,0.0,0.0,2.834,0.0,0.0,0.0,0.0,0.0,0.0,0.0,0.0,0.0,0.0,0.0,0.0,0.0,0.0,0.0,0.0,0.0,0.0,0.0,0.0,0.0,0.0,0.0,0.0,0.0,0.0,0.0,0.0,0.0,0.0,0.0,0.0,0.0,0.0,0.0,0.0,0.0,0.0,0.0,0.0,0.0,0.0,0.0,0.0,0.0,0.0,0.0,0.0,0.0,0.0,0.0,0.0,0.0,0.0,0.0,3.168,3.25,3.4609,3.8105,3.8262,3.8047,3.7578,3.5937,3.4238,0.0,0.0,0.0,0.0,0.0,0.0,0.0,0.0,0.0,0.0,0.0,0.0,0.0,0.0,0.0,0.0,0.0,0.0,0.0,0.0,0.0,0.0,0.0,0.0,0.0,0.0,0.0,0.0,0.0,0.0,0.0,0.0,0.0,0.0,0.0,0.0,0.0,0.0,0.0,0.0,2.9105,2.8568,2.9215,0.0,0.0,0.0,0.0,0.0,0.0,2.8809,2.9188,0.0,0.0,0.0,0.0,0.0,0.0,0.0,0.0,0.0,0.0,0.0,0.0,0.0,0.0,0.0,0.0,0.0,0.0,0.0,0.0,0.0,0.0,0.0,0.0,0.0,0.0,0.0,0.0,0.0,0.0,0.0,0.0,0.0,0.0,0.0,0.0,0.0,0.0,0.0,0.0,0.0,0.0,0.0,0.0,0.0,0.0,0.0,0.0,0.0,0.0,0.0,0.0,0.0,0.0,0.0,3.2101,3.3516,3.5659,3.8454,3.8611,3.8203,3.7422,3.5664,3.3945,0.0,0.0,0.0,0.0,0.0,0.0,0.0,0.0,0.0,0.0,0.0,0.0,0.0,0.0,0.0,0.0,0.0,0.0,0.0,0.0,0.0,0.0,0.0,0.0,0.0,0.0,0.0,0.0,0.0,0.0,0.0,0.0,0.0,0.0,0.0,0.0,0.0,0.0,0.0,0.0,0.0,3.016,3.0613,2.9819,0.0,0.0,0.0,0.0,2.9367,2.9941,0.0,0.0,0.0,0.0,0.0,0.0,0.0,0.0,0.0,0.0,0.0,0.0,0.0,0.0,0.0,0.0,0.0,0.0,0.0,0.0,0.0,0.0,0.0,0.0,0.0,0.0,0.0,0.0,0.0,0.0,0.0,0.0,0.0,0.0,0.0,0.0,0.0,0.0,0.0,0.0,0.0,0.0,0.0,0.0,0.0,0.0,0.0,0.0,0.0,0.0,0.0,0.0,0.0,0.0,0.0,0.0,3.214,3.3789,3.5918,3.8454,3.8611,3.834,3.7796,3.5801,3.4082,0.0,0.0,0.0,0.0,0.0,0.0,0.0,0.0,0.0,0.0,0.0,0.0,0.0,0.0,0.0,0.0,0.0,0.0,0.0,0.0,0.0,0.0,0.0,0.0,0.0,0.0,0.0,0.0,0.0,0.0,0.0,0.0,0.0,0.0,0.0,0.0,0.0,0.0,0.0,0.0,0.0,2.9802,3.0207,3.0124,2.9967,0.0,0.0,3.0742,3.1152,3.2207,0.0,0.0,0.0,0.0,0.0,0.0,0.0,0.0,0.0,0.0,0.0,0.0,0.0,0.0,0.0,0.0,0.0,0.0,0.0,0.0,0.0,0.0,0.0,0.0,0.0,0.0,0.0,0.0,0.0,0.0,0.0,0.0,0.0,0.0,0.0,0.0,0.0,0.0,0.0,0.0,0.0,0.0,0.0,0.0,0.0,0.0,0.0,0.0,0.0,0.0,0.0,0.0,0.0,0.0,0.0,3.0293,3.2198,3.4603,3.6484,3.7793,3.8086,3.7891,3.7226,3.5117,3.3496,0.0,0.0,0.0,0.0,0.0,0.0,0.0,0.0,0.0,0.0,0.0,0.0,0.0,0.0,0.0,0.0,0.0,0.0,0.0,0.0,0.0,0.0,0.0,0.0,0.0,0.0,0.0,0.0,0.0,0.0,0.0,0.0,0.0,0.0,0.0,0.0,0.0,0.0,0.0,0.0,0.0,0.0,3.0403,3.0625,0.0,0.0,0.0,3.1953,3.1894,0.0,0.0,0.0,0.0,0.0,0.0,0.0,0.0,0.0,0.0,0.0,0.0,0.0,0.0,0.0,0.0,0.0,0.0,0.0,0.0,0.0,0.0,0.0,0.0,0.0,0.0,0.0,0.0,0.0,0.0,0.0,0.0,0.0,0.0,0.0,0.0,0.0,0.0,0.0,0.0,0.0,0.0,0.0,0.0,0.0,0.0,0.0,0.0,0.0,0.0,0.0,0.0,0.0,0.0,0.0,0.0,0.0,3.2374,3.5326,3.7031,3.7441,3.7718,3.7519,3.6714,3.4766,0.0,0.0,0.0,0.0,0.0,0.0,0.0,0.0,0.0,0.0,0.0,0.0,0.0,0.0,0.0,0.0,0.0,0.0,0.0,0.0,0.0,0.0,0.0,0.0,0.0,0.0,0.0,3.0895,0.0,0.0,0.0,0.0,0.0,0.0,0.0,0.0,0.0,0.0,0.0,0.0,0.0,0.0,3.2917,3.0973,3.1348,3.1797,0.0,0.0,3.2793,3.2843,3.3919,3.4349,0.0,0.0,0.0,0.0,0.0,0.0,0.0,0.0,0.0,0.0,0.0,0.0,0.0,0.0,0.0,0.0,0.0,0.0,0.0,0.0,0.0,0.0,0.0,0.0,0.0,0.0,0.0,0.0,0.0,0.0,0.0,0.0,0.0,0.0,0.0,0.0,0.0,0.0,0.0,0.0,0.0,0.0,0.0,0.0,0.0,0.0,0.0,0.0,0.0,0.0,0.0,0.0,0.0,0.0,0.0,3.2812,3.5723,3.7441,3.7851,3.7874,3.7519,3.6714,3.5332,3.4023,0.0,0.0,0.0,0.0,0.0,0.0,0.0,0.0,0.0,0.0,0.0,0.0,0.0,0.0,0.0,0.0,0.0,0.0,0.0,0.0,0.0,0.0,0.0,0.0,0.0,0.0,0.0,0.0,0.0,0.0,0.0,0.0,0.0,0.0,0.0,0.0,0.0,0.0,0.0,0.0,0.0,3.2273,3.2061,3.2422,3.2969,0.0,0.0,3.3203,3.4336,3.5659,3.5781,3.3679,0.0,0.0,0.0,0.0,0.0,0.0,0.0,0.0,0.0,0.0,0.0,0.0,0.0,0.0,0.0,0.0,0.0,0.0,0.0,0.0,0.0,0.0,0.0,0.0,0.0,0.0,0.0,0.0,0.0,0.0,0.0,0.0,0.0,0.0,0.0,0.0,0.0,0.0,0.0,0.0,0.0,0.0,0.0,0.0,0.0,0.0,0.0,0.0,0.0,0.0,0.0,0.0,0.0,3.1934,3.2812,3.5762,3.7246,3.7168,3.7402,3.7129,3.6289,3.5254,3.4101,0.0,0.0,0.0,0.0,0.0,0.0,0.0,0.0,0.0,0.0,0.0,0.0,0.0,0.0,0.0,0.0,0.0,0.0,0.0,0.0,0.0,0.0,0.0,0.0,0.0,0.0,0.0,0.0,3.0131,3.0126,2.9591,0.0,0.0,0.0,0.0,0.0,0.0,0.0,0.0,0.0,0.0,3.3226,3.2673,3.291,0.0,0.0,3.3645,3.3782,3.4271,3.4746,3.4707,3.3562,3.291,0.0,0.0,0.0,0.0,0.0,0.0,0.0,0.0,0.0,0.0,0.0,0.0,0.0,0.0,0.0,0.0,0.0,0.0,0.0,0.0,0.0,0.0,0.0,0.0,0.0,0.0,0.0,0.0,0.0,0.0,0.0,0.0,0.0,0.0,0.0,0.0,0.0,0.0,0.0,0.0,0.0,0.0,0.0,0.0,0.0,0.0,0.0,0.0,0.0,0.0,0.0,0.0,3.2187,3.3215,3.5898,3.7168,3.689,3.7266,3.7012,3.6055,3.541,3.4492,0.0,0.0,0.0,0.0,0.0,0.0,0.0,0.0,0.0,0.0,0.0,0.0,0.0,0.0,0.0,0.0,0.0,0.0,0.0,0.0,0.0,0.0,0.0,0.0,0.0,0.0,0.0,0.0,2.9408,2.9264,2.8564,0.0,0.0,0.0,0.0,0.0,0.0,0.0,0.0,0.0,0.0,3.3528,3.2908,3.3047,3.3281,3.3367,3.3457,3.3625,3.388,3.3887,3.373,3.3301,0.0,0.0,0.0,0.0,0.0,0.0,0.0,0.0,0.0,0.0,0.0,0.0,0.0,0.0,0.0,0.0,0.0,0.0,0.0,0.0,0.0,0.0,0.0,0.0,0.0,0.0,0.0,0.0,0.0,0.0,3.0656,0.0,0.0,0.0,0.0,0.0,0.0,0.0,0.0,0.0,0.0,0.0,0.0,0.0,0.0,0.0,0.0,0.0,0.0,0.0,0.0,0.0,0.0,3.2804,3.4075,3.6191,3.7285,3.7305,3.7695,3.7269,3.606,3.6016,3.5391,3.4095,0.0,0.0,0.0,0.0,0.0,0.0,0.0,0.0,0.0,0.0,0.0,0.0,0.0,0.0,0.0,0.0,0.0,0.0,0.0,0.0,0.0,0.0,0.0,0.0,0.0,0.0,2.7264,2.7865,2.853,0.0,0.0,0.0,0.0,0.0,0.0,0.0,0.0,0.0,0.0,3.2003,3.2804,3.2793,3.2812,3.2969,3.3379,3.2754,3.2531,3.332,3.3406,3.325,0.0,0.0,0.0,0.0,0.0,0.0,0.0,0.0,0.0,0.0,0.0,0.0,0.0,0.0,0.0,0.0,0.0,0.0,0.0,0.0,0.0,0.0,0.0,0.0,0.0,0.0,0.0,3.1448,3.122,0.0,0.0,0.0,0.0,0.0,0.0,0.0,0.0,0.0,0.0,0.0,3.1914,3.1827,0.0,0.0,0.0,0.0,0.0,0.0,0.0,0.0,0.0,0.0,0.0,0.0,3.3254,3.4512,3.6328,3.7578,3.8161,3.7988,3.7578,3.686,3.6875,3.6113,3.4531,0.0,0.0,0.0,0.0,0.0,0.0,0.0,0.0,0.0,0.0,0.0,0.0,0.0,0.0,0.0,0.0,0.0,0.0,0.0,0.0,0.0,0.0,0.0,0.0,0.0,2.8914,0.0,0.0,0.0,0.0,0.0,0.0,0.0,0.0,0.0,0.0,0.0,3.082,3.125,3.1934,3.2511,3.2754,3.2793,3.3047,0.0,0.0,0.0,0.0,0.0,0.0,0.0,0.0,0.0,0.0,0.0,0.0,0.0,0.0,3.3066,3.1983,3.2187,3.2578,3.2578,0.0,0.0,0.0,0.0,0.0,0.0,0.0,0.0,0.0,0.0,0.0,0.0,0.0,0.0,3.1799,0.0,3.0523,0.0,0.0,0.0,0.0,0.0,0.0,0.0,0.0,3.2637,3.3398,3.3926,3.3945,3.3926,0.0,3.3027,3.2109,0.0,0.0,0.0,0.0,0.0,0.0,0.0,0.0,3.3652,3.4941,3.6641,3.7851,3.8552,3.8301,3.7871,3.7305,3.7012,3.6328,3.5195,3.3652,3.2531,0.0,0.0,0.0,0.0,0.0,0.0,0.0,0.0,0.0,0.0,0.0,0.0,0.0,0.0,0.0,0.0,0.0,0.0,0.0,0.0,0.0,0.0,0.0,2.9872,0.0,0.0,0.0,0.0,0.0,0.0,0.0,0.0,0.0,3.0469,3.0957,3.1484,3.1914,3.2207,3.2472,3.2559,0.0,0.0,0.0,0.0,0.0,0.0,0.0,3.2902,3.3058,3.3535,3.416,3.4896,3.5078,3.5156,3.5156,0.0,0.0,3.3371,3.3496,3.3867,3.3867,3.4219,3.4531,3.4564,3.498,3.5424,0.0,0.0,0.0,0.0,0.0,0.0,0.0,0.0,3.2256,3.2374,0.0,3.1319,0.0,0.0,0.0,0.0,0.0,3.207,0.0,0.0,3.5879,3.6855,3.6177,3.6914,3.6894,3.6094,3.5215,3.459,3.4134,3.2129,0.0,0.0,0.0,0.0,0.0,0.0,3.4121,3.5488,3.7148,3.8184,3.8669,3.865,3.8203,3.7383,3.6543,3.606,3.5996,3.4805,3.3906,3.3406,3.2246,0.0,0.0,0.0,0.0,0.0,0.0,0.0,0.0,0.0,0.0,0.0,0.0,0.0,0.0,0.0,0.0,0.0,0.0,0.0,0.0,3.0028,0.0,0.0,0.0,0.0,0.0,0.0,0.0,0.0,0.0,0.0,3.0976,3.169,3.2355,3.2715,0.0,0.0,0.0,0.0,3.2695,3.2413,3.2617,3.3047,3.3464,3.3887,3.4329,3.4687,0.0,0.0,3.6714,3.5742,3.5273,3.5996,3.6562,3.6421,3.5176,3.4961,3.4922,3.4941,3.5351,3.5566,3.5625,3.6445,3.6968,3.6236,0.0,0.0,0.0,0.0,3.4164,3.4791,3.5752,3.5028,3.4766,3.4746,3.3516,0.0,0.0,0.0,0.0,0.0,0.0,3.4668,3.5639,3.6777,3.7637,3.8281,3.8242,3.8242,3.8262,3.7402,3.6934,3.6777,3.5898,3.416,3.167,0.0,0.0,0.0,0.0,3.5273,3.7129,3.8281,3.9199,3.9961,3.9355,3.8769,3.8223,3.7676,3.7109,3.6504,3.582,3.498,3.3926,3.3242,0.0,0.0,0.0,0.0,0.0,0.0,0.0,0.0,0.0,0.0,0.0,0.0,0.0,0.0,0.0,0.0,0.0,0.0,0.0,3.0517,3.1201,3.1299,0.0,0.0,0.0,0.0,0.0,0.0,0.0,0.0,0.0,3.2207,3.2218,3.2355,0.0,0.0,3.2452,3.2598,3.2969,3.3535,3.4368,3.457,0.0,3.5625,3.5874,3.5991,3.6128,3.7324,3.834,3.8457,3.8691,3.8828,3.8809,3.9141,3.924,3.8906,3.8086,3.7617,3.7851,3.8281,3.8711,3.9004,3.9512,3.9901,3.8926,3.6035,3.5195,3.5117,3.5644,3.6055,3.6777,3.7692,3.7402,3.7422,3.7578,3.6035,3.5195,3.4955,3.4336,0.0,0.0,0.0,3.6582,3.7715,3.8476,3.9336,4.0195,4.0137,4.0137,4.0195,3.9531,3.9121,3.8908,3.8008,3.6504,3.4473,0.0,0.0,3.3848,3.5098,3.6543,3.8144,3.9043,3.9805,4.045,3.963,3.9004,3.8611,3.8164,3.7676,3.7187,3.6758,3.6016,3.4902,3.4434,3.3613,0.0,0.0,0.0,0.0,0.0,0.0,0.0,0.0,0.0,0.0,0.0,2.959,2.9101,0.0,0.0,0.0,3.0488,3.0898,3.1348,3.1749,0.0,0.0,0.0,0.0,0.0,0.0,0.0,3.1309,3.207,3.2891,3.3457,3.3184,3.3117,3.3496,3.3184,3.3086,3.3496,0.0,3.4609,3.5742,3.6035,3.6445,3.732,3.7715,3.8105,3.8633,3.9412,4.0117,4.0449,4.0684,4.0801,4.0898,4.1113,4.1328,4.1504,4.0996,4.041,4.0078,4.0332,4.0723,4.0996,4.1504,4.1973,4.2638,4.1406,3.9336,3.8379,3.8186,3.8689,3.9101,3.9512,3.9473,4.0117,4.1016,3.8633,3.8184,3.9121,3.7133,0.0,3.6411,3.7637,3.8613,3.9453,4.0703,4.1484,4.1855,4.2226,4.2187,4.1836,4.1465,4.1055,4.0567,3.9025,3.8206,3.8144,3.7012,3.6133,3.5644,3.6738,3.7793,3.8672,3.9512,4.0137,4.0469,3.9687,3.9043,3.8633,3.8203,3.7913,3.7835,3.75,3.6914,3.6055,3.5625,3.4824,3.3562,0.0,0.0,0.0,0.0,0.0,0.0,0.0,0.0,0.0,0.0,0.0,0.0,0.0,0.0,0.0,3.1337,0.0,3.2316,3.1953,0.0,0.0,0.0,3.2452,3.2793,3.3191,3.3289,3.2891,0.0,0.0,3.4648,3.4446,3.4407,3.4883,3.4544,3.4388,3.4844,3.5312,3.5898,3.6832,3.7305,3.7891,3.8767,3.9512,4.041,4.1445,4.1582,4.1601,4.2226,4.1914,4.1777,4.2344,4.2518,4.2695,4.3105,4.3418,4.3379,4.1855,4.1816,4.2031,4.2168,4.2734,4.3223,4.4925,4.4531,4.3691,4.2207,4.0449,4.0859,4.1465,4.2109,4.1797,4.166,4.1562,4.0312,3.9746,3.9687,3.8828,3.8809,3.9455,4.0117,4.0684,4.1211,4.1836,4.2148,4.2285,4.2343,4.2343,4.2245,4.2168,4.203,4.1953,4.1523,4.1035,4.041,4.0098,3.8906,3.6953,3.7461,3.8379,3.957,4.0098,4.0391,4.045,4.0,3.9512,3.9062,3.8652,3.8105,3.748,3.7344,3.6894,3.6055,3.5625,3.5078,3.4414,3.3281,0.0,0.0,0.0,0.0,0.0,0.0,0.0,0.0,0.0,3.0478,2.9794,0.0,3.1113,0.0,3.2148,3.3144,3.3606,3.3567,0.0,0.0,3.3184,3.3133,3.3262,3.3652,3.375,3.332,3.3652,3.4258,3.5117,3.5137,3.5605,3.6879,3.5957,3.5469,3.6504,3.7051,3.7637,3.8476,3.9492,4.0312,4.0585,4.1269,4.2031,4.2676,4.2736,4.2812,4.3301,4.3262,4.3183,4.3398,4.3691,4.3945,4.4082,4.4687,4.5101,4.4691,4.418,4.3887,4.418,4.4372,4.4509,4.623,4.6191,4.5566,4.4258,4.2617,4.2851,4.3223,4.3613,4.3183,4.2871,4.2598,4.1953,4.1308,4.0742,4.0664,4.0801,4.1133,4.1738,4.1949,4.1802,4.2591,4.2541,4.1805,4.2193,4.2193,4.1764,4.1764,4.1764,4.1745,4.1574,4.1495,4.1396,4.1262,4.0531,3.9355,3.8965,3.9082,3.957,4.0177,4.0489,4.0489,4.0293,3.9785,3.8945,3.834,3.7598,3.6758,3.6348,3.5918,3.5469,3.5195,3.4805,3.416,3.3281,3.2519,0.0,0.0,0.0,0.0,0.0,0.0,0.0,0.0,0.0,0.0,0.0,3.207,3.2031,3.3047,3.373,3.3789,3.3769,3.3828,3.3984,3.3984,3.4062,3.4277,3.4687,3.4844,3.4609,3.4961,3.5659,3.6641,3.6641,3.709,3.8594,3.7988,3.7578,3.8066,3.8516,3.9101,3.9961,4.0859,4.168,4.2187,4.2851,4.3437,4.3828,4.3945,4.4082,4.4492,4.457,4.4629,4.4844,4.5215,4.5527,4.5547,4.6055,4.6548,4.6509,4.6152,4.5801,4.5625,4.5605,4.5543,4.7168,4.709,4.6269,4.5488,4.4805,4.4687,4.4453,4.4121,4.3711,4.3574,4.3594,4.3178,4.2673,4.203,4.2141,4.2122,4.191,4.2587,4.2486,4.1786,4.2949,4.266,4.1189,4.2008,4.1924,4.1146,4.1091,4.1158,4.1223,4.0837,4.1072,4.1843,4.142,4.1346,4.166,4.0549,3.977,3.9394,4.0195,4.0586,4.0489,4.041,3.9766,3.8535,3.7715,3.6875,3.5942,3.5195,3.4766,3.4707,3.4687,3.4375,3.3679,3.3223,3.2676,0.0,3.1562,0.0,0.0,0.0,0.0,0.0,0.0,0.0,0.0,3.3008,3.3223,3.3679,3.4101,3.4199,3.3867,3.3796,3.4069,3.4785,3.4922,3.5117,3.5508,3.5918,3.6157,3.6191,3.6504,3.7262,3.8337,3.8262,3.8574,3.9766,4.0019,3.9941,3.9824,3.998,4.0449,4.1289,4.1836,4.2656,4.3594,4.4219,4.4668,4.5058,4.5192,4.543,4.584,4.5918,4.6055,4.6445,4.6797,4.707,4.7168,4.7519,4.7812,4.7832,4.7851,4.7598,4.6816,4.6582,4.6562,4.8496,4.8464,4.7623,4.7129,4.6958,4.623,4.4746,4.2752,4.2674,4.2871,4.3182,4.2754,4.2837,4.3195,4.1892,4.1601,4.2287,4.1989,4.1814,4.1621,4.2216,4.2315,4.1989,4.2162,4.2162,4.1953,4.1641,4.1859,4.2519,4.2185,4.2306,4.2781,4.1991,4.1499,4.1269,0.0,0.0,0.0,4.0781,4.0879,4.0469,3.9824,3.9004,3.8086,3.7559,0.0,3.5586,3.5351,3.5098,3.4726,3.4687,0.0,0.0,0.0,0.0,0.0,0.0,0.0,0.0,0.0,0.0,0.0,3.418,3.4023,3.3848,3.4141,3.4668,3.5449,3.5605,3.5762,3.6069,3.6089,3.5976,3.5767,3.6094,3.6382,3.648,3.6816,3.7051,3.707,3.7129,3.7539,3.844,3.8789,3.9473,4.0704,4.123,4.168,4.2226,4.1777,4.1777,4.2578,4.3338,4.404,4.4645,4.5156,4.5519,4.5976,4.6367,4.6699,4.709,4.7252,4.7363,4.7773,4.791,4.8086,4.8418,4.8848,4.9101,4.9114,4.9414,4.9316,4.8125,4.7832,4.7949,4.9558,0.0,4.862,4.7742,0.0,4.5953,4.4262,4.2239,4.278,4.2853,4.2663,4.2406,4.2523,4.2928,4.205,4.1994,4.2644,4.2436,4.2045,4.1629,4.2278,4.2031,4.1099,4.1385,4.136,4.1081,3.9974,4.0062,4.1128,4.0132,4.0317,4.1635,4.1031,4.0832,4.1111,4.1341,4.1346,4.1152,4.1367,4.1484,4.1406,4.082,4.0078,3.9182,3.8164,0.0,0.0,0.0,0.0,0.0,0.0,0.0,0.0,3.4662,0.0,3.5,3.4629,3.4668,3.5293,3.5351,3.5625,3.625,3.668,3.6387,3.5137,3.5605,3.6172,3.6601,3.666,3.6738,3.6953,3.7168,3.7207,3.7012,3.7363,3.7653,3.7672,3.7829,3.8008,3.8223,3.8457,3.8759,3.9125,3.9987,4.0666,4.1398,4.222,4.2928,4.3516,4.3164,4.3125,4.418,4.4416,4.4909,4.5725,4.5846,4.6174,4.68,4.7285,4.7695,4.8144,4.8398,4.8672,4.9082,4.918,4.9277,4.95,4.9707,4.9844,4.9816,4.9594,4.9557,4.9391,4.9336,4.9238,5.0293,5.0262,4.948,4.8119,4.6492,4.5709,4.4204,4.2327,0.0,0.0,0.0,4.2174,4.2062,4.1964,4.2014,4.2098,4.2315,4.2644,4.2171,4.1167,4.1933,4.1265,3.9553,3.9871,3.9843,3.9417,3.8055,3.8144,3.9505,3.818,3.8578,4.0416,3.9889,3.9841,4.0608,4.1497,4.1933,4.188,4.1911,4.1952,4.2045,4.1815,4.125,4.0312,3.8869,3.7715,3.6851,3.5664,3.5039,3.5039,3.498,3.5,3.5137,3.5156,3.5273,3.5469,3.5488,3.584,3.6641,3.6699,3.7148,3.8167,3.8926,3.8594,3.6816,3.7344,3.7754,3.7754,3.7754,3.7734,3.7656,3.7949,3.8033,3.785,3.8278,3.8532,3.8405,3.8503,3.8642,3.9063,3.9316,3.9702,3.9762,4.071,4.1602,4.1755,4.2322,4.3296,4.3764,4.3799,4.4233,4.5217,4.5234,4.549,4.6446,4.658,4.6705,4.7431,4.7779,4.8007,4.8102,4.8373,4.8661,4.8251,4.8852,4.8804,4.9234,4.9177,4.956,4.9818,4.9177,4.8887,4.9992,5.005,4.9818,5.0723,5.0683,5.0195,4.9335,4.8216,4.7695,4.5945,4.3467,4.297,4.2678,4.2521,4.2112,4.1638,4.1047,4.0905,4.059,4.0112,4.1047,4.0629,3.9248,3.9683,3.9025,3.7458,3.7274,3.7289,3.7459,3.7967,3.8834,3.9932,4.0442,4.1311,4.1856,3.9947,3.8774,3.8994,3.9809,4.0887,4.2094,4.2228,4.1828,4.0802,4.1112,4.0702,3.9453,3.9143,3.8437,3.7246,3.6699,3.6421,3.6421,3.6035,3.6172,3.6875,3.6899,3.7422,3.8457,3.8574,3.8809,3.926,3.9355,3.9434,3.959,3.9726,3.9648,3.9394,3.9453,3.9531,3.9531,3.9417,3.9355,3.9004,3.893,3.854,3.7606,3.8065,3.8235,3.7607,3.8045,3.843,3.8522,3.8637,3.8964,3.9431,4.0093,4.0704,4.1202,4.1275,4.1223,4.2192,4.3538,4.475,4.5357,4.5704,4.6121,4.6282,4.6909,4.6896,4.776,4.725,4.6565,4.5476,4.5456,4.5262,4.4099,4.4366,4.4883,4.6187,4.6428,4.7234,4.8287,4.8453,4.8429,4.878,4.8724,4.8902,4.9969,4.9425,4.8999,4.766,4.5736,4.3884,4.2254,4.0981,4.0745,4.1209,4.1965,4.1034,4.0365,4.0066,4.0036,3.9512,3.8648,3.9154,3.8995,3.8302,3.8431,3.8135,3.7348,3.6963,3.6978,3.73,3.6684,3.7131,3.8291,3.7831,3.8083,3.9088,3.7627,3.6762,3.6738,3.7688,3.824,3.8369,4.0928,4.1894,4.1109,4.1087,4.0889,4.0565,4.0163,3.9777,3.9434,3.7873,3.7143,3.7381,3.603,3.5777,3.6918,3.7431,3.8128,3.9126,3.9184,3.9051,3.8716,3.7768,3.7539,3.8286,3.8548,3.8676,3.8676,3.9198,3.9395,3.918,3.914,3.9046,3.8858,3.9027,3.86,3.727,3.7697,3.7614,3.6818,3.6891,3.7218,3.7384,3.7607,3.7741,3.7714,3.8536,3.9136,3.953,3.9861,4.0562,4.1083,4.1706,4.2691,4.3938,4.4195,4.4098,4.4148,4.38,4.3942,4.4535,4.4707,4.4325,4.3618,4.367,4.354,4.3189,4.297,4.3741,4.5352,4.582,4.6555,4.7772,4.7722,4.7672,4.8038,4.7889,4.802,4.8885,4.7668,4.7328,4.5617,4.2972,4.0287,3.9018,3.8805,3.8621,3.946,4.0791,3.9769,3.9021,3.8719,3.9091,3.862,3.7615,3.7895,3.785,3.7548,3.747,3.7204,3.672,3.6356,3.6375,3.6519,3.5444,3.5555,3.6438,3.5548,3.5295,3.5951,3.552,3.5145,3.4998,3.5853,3.6037,3.5715,3.9054,4.0772,4.0449,4.0318,4.0349,4.045,3.9905,3.9718,3.9792,3.7885,3.6948,3.7203,3.5561,3.5098,3.6225,3.6936,3.7631,3.8273,3.8383,3.8073,3.7332,3.6063,3.5726,3.6754,3.7176,3.7298,3.7273,3.7899,3.8264,3.8025,3.7953,3.8006,3.8024,3.8238,3.7983,3.6771,3.6911,3.6694,3.5842,3.5762,3.5912,3.6174,3.6556,3.6642,3.6452,3.7037,3.7636,3.7695,3.8862,3.9917,3.9946,3.9738,4.0605,4.1359,4.1896,4.2063,4.175,4.1383,4.1332,4.1813,4.2073,4.195,4.1711,4.1786,4.1659,4.1215,4.1179,4.169,4.3385,4.374,4.4312,4.5371,4.5237,4.5237,4.5739,4.5438,4.6008,4.7744,4.6155,4.5885,4.4363,4.1729,4.0122,3.9358,3.9145,3.7665,3.7757,3.909,3.8795,3.7864,3.6819,3.8021,3.7778,3.6533,3.7843,3.7829,3.6795,3.6471,3.5584,3.4455,3.3968,3.3733,3.4032,3.4745,3.5398,3.5938,3.6695,3.6431,3.5121,3.489,3.4818,3.4804,3.4914,3.5537,3.6794,3.7023,3.7036,3.6945,3.7632,3.771,3.7072,3.7032,3.6649,3.6341,3.5444,3.5146,3.5145,3.4603,3.4489,3.503,3.5162,3.541,3.5875,3.5908,3.5891,3.6104,3.6237,3.6134,3.6434,3.643,3.6307,3.5959,3.5983,3.6107,3.6188,3.6408,3.6626,3.6616,3.6682,3.6387,3.5513,3.5653,3.5523,3.4794,3.5119,3.5486,3.5456,3.5669,3.6066,3.6136,3.635,3.6348,3.6079,3.7392,3.8183,3.7581,3.8412,3.8774,3.8495,3.9221,4.0582,4.0784,4.1116,4.0705,4.1195,4.0841,3.9829,3.8915,3.836,3.7913,3.7742,3.6621,3.7391,3.8418,3.8522,3.9403,4.1514,4.1683,4.1017,4.0914,4.1222,4.2399,4.3937,4.2469,4.2418,4.1226,3.927,3.7679,3.6914,3.6641,3.6104,3.6124,3.6458,3.6433,3.638,3.655,3.7207,3.66,3.5193,3.5739,3.5809,3.527,3.5146,3.4748,3.4173,3.4015,3.3948,3.3921,3.4295,3.4611,3.4918,3.5249,3.4843,3.387,3.3717,3.3635,3.3546,3.3684,3.3977,3.4377,3.4468,3.4344,3.4342,3.5654,3.6472,3.6515,3.6479,3.6517,3.6291,3.5047,3.4459,3.4869,3.3618,3.3319,3.4271,3.4768,3.5211,3.5606,3.5074,3.456,3.4198,3.3664,3.3705,3.4517,3.4744,3.4758,3.4618,3.4705,3.4552,3.3994,3.4939,3.5803,3.579,3.5962,3.5635,3.4621,3.4467,3.4202,3.3182,3.3314,3.3478,3.3723,3.4005,3.4315,3.4604,3.4956,3.5023,3.4936,3.5823,3.6163,3.5765,3.6415,3.6635,3.6284,3.6834,3.7323,3.7748,3.7622,3.7783,3.7751,3.751,3.6792,3.6597,3.6229,3.5967,3.5296,3.5243,3.5823,3.7667,3.7771,3.8173,3.9366,4.0053,4.0105,4.0105,4.0105,4.0878,4.097,3.9568,3.8996,3.8083,3.6949,3.5717,3.5084,3.4923,3.511,3.507,3.4949,3.4883,3.5439,3.6201,3.6205,3.551,3.4546,3.4442,3.4482,3.4536,3.4482,3.4442,3.4442,3.4442,3.4402,3.4295,3.4146,3.4108,3.4269,3.4028,3.3654,3.328,3.3146,3.3089,3.3009,3.3183,3.312,3.3009,3.3053,3.3009,3.294,3.4088,3.4868,3.5106,3.5091,3.5211,3.5318,3.3829,3.3233,3.3841,3.2433,3.2001,3.2997,3.362,3.411,3.4442,3.3985,3.336,3.271,3.1974,3.1995,3.2999,3.3336,3.349,3.3603,3.3785,3.3471,3.2848,3.4035,3.4914,3.4686,3.4847,3.4523,3.3605,3.3518,3.3208,3.2533,3.2452,3.279,3.2955,3.3458,3.3414,3.3668,3.4157,3.4544,3.4584,3.4773,3.4936,3.4949,3.5149,3.5296,3.5204,3.5243,3.5283,3.5204,3.548,3.5204,3.5204,3.5454,3.5507,3.5204,3.5204,3.5257,3.5243,3.5204,3.5401,3.6334,3.6897,3.7197,3.824,3.8811,3.8759,3.8292,3.8655,3.8655,4.0077,3.8029,3.6195,3.5559,3.5296,3.5243,3.5191,3.5151,3.5191,3.5177,3.5151,3.5164,3.5217,3.5307,3.5156,3.4906,3.4802,3.475,3.487,3.5057,3.4857,3.4802,3.4802,3.4788,3.4603,3.4416,3.4336,3.4295,3.4282,3.4055,3.3881,3.3814,3.3547,3.3547,3.3734,3.3788,3.3828,3.3748,3.3521,3.3267,3.3022,3.2897,3.268,3.232,3.2002,3.198,3.1384,3.1104,3.1058,3.1091,3.1072,3.1012,3.1045,3.1137,3.1411,3.1616,3.1988,3.2264,3.2243,3.2388,3.2576,3.2687,3.2838,3.2834,3.3237,3.3305,3.3278,3.337,3.3781,3.3792,3.319,3.3303,3.3157,3.2976,3.2969,3.3067,3.3009,3.34,3.3761,3.3828,3.4002,3.4175,3.4269,3.4549,3.471,3.4842,3.499,3.5151,3.5137,3.5177,3.5191,3.5204,3.5204,3.5204,3.5204,3.5204,3.5204,3.5204,3.5204,3.5204,3.5204,3.5204,3.5204,3.5204,3.5204,3.5204,3.5309,3.5401,3.5559,3.6019,3.6177,3.6124,3.6635,3.577,3.5928,3.754,3.643,3.5575,3.5204,3.5204,3.5204,3.5204,3.5204,3.5204,3.5204,3.5204,3.5204,3.5204,3.5191,3.5097,3.5044,3.5044,3.5044,3.5097,3.5177,3.5084,3.5044,3.5044,3.5044,3.5004,3.487,3.4696,3.4402,3.4108,3.4295,3.4307,3.3961,3.3961,3.4055,3.4148,3.4162,3.4162,3.4135,3.3868,3.3668,3.3547,3.3253,3.2906,3.2532,3.238,3.2179,3.1965,3.1965,3.1965,3.1965,3.1965,3.1965,3.1965,3.1965,3.2005,3.2126,3.2313,3.2514,3.2666,3.2933,3.3187,3.34,3.3587,3.3681,3.3814,3.3841,3.3881,3.3988,3.4082,3.3961,3.3801,3.3681,3.3681,3.3694,3.3761,3.3814,3.3868,3.4042,3.4162,3.4215,3.4416,3.4656,3.4817,3.4977,3.503,3.5057,3.5137,3.5191,3.5204,3.5204,3.5204,3.5204,3.5204,3.5204,3.5204,3.5204,3.5204,3.5204,3.5204,3.5204,3.5204,3.5204,3.5204,3.5204,3.5204,3.5204,3.5257,3.5257,3.5204,3.5204,3.5204,3.5204,3.5204,3.5204,3.5204,3.6019,3.5498,3.5271,3.5204,3.5204,3.5204,3.5204,3.5204,3.5204,3.5204,3.5204,3.5204,3.5204,3.5204,3.5204,3.5204,3.5204,3.5191,3.5204,3.5204,3.5204,3.5204,3.5204,3.5204,3.5204,3.5164,3.5004,3.4683,3.4376,3.4616,3.4536,3.4267,3.4295,3.4376,3.4429,3.4376,3.4349,3.4389,3.4175,3.4028,3.3988,3.3721,3.348,3.3267,3.2986,3.2768,3.2607,3.2594,3.2594,3.2594,3.2594,3.2634,3.2728,3.2835,3.2879,3.3022,3.3129,3.32,3.3387,3.3601,3.3801,3.4002,3.4202,3.4349,3.4442,3.4469,3.4509,3.4576,3.4603,3.4603,3.4603,3.4589,3.4536,3.4389,3.4402,3.4456,3.4469,3.4536,3.4603,3.4643,3.4776,3.499,3.5151,3.5177,3.5191,3.5204,3.5204,3.5204,3.5204,3.5204,3.5204,3.5204,3.5204,3.5204,3.5204,3.5204,3.5204,3.5204,3.5204,3.5204,3.5204,3.5204,3.5204,3.5204,3.5204,3.5204,3.5204,3.5204,3.5204,3.5204,3.5204,3.5204,3.5204,3.5204,3.5204,3.5752,3.5297,3.5204,3.5204,3.5204,3.5204,3.5204,3.5204,3.5204,3.5204,3.5204,3.5204,3.5204,3.5204,3.5204,3.5204,3.5204,3.5204,3.5204,3.5204,3.5204,3.5204,3.5204,3.5204,3.5204,3.5204,3.5191,3.5164,3.5044,3.4883,3.475,3.4696,3.4496,3.4549,3.4815,3.4549,3.4509,3.4643,3.4469,3.4336,3.4282,3.4028,3.3868,3.3828,3.3574,3.3187,3.2714,3.2661,3.2688,3.2688,3.2688,3.2768,3.3102,3.3293,3.351,3.3801,3.4095,3.4204,3.4282,3.4269,3.4282,3.4376,3.4362,3.4523,3.4775,3.4815,3.4857,3.5044,3.511,3.5137,3.5124,3.511,3.4923,3.4482,3.4629,3.475,3.4869,3.5017,3.5177,3.5137,3.5151,3.5191,3.5191,3.5204,3.5204,3.5204,3.5204,3.5204,3.5204,3.5204,3.5204,3.5204,3.5204,3.5204,3.5204,3.5204,3.5204,3.5204,3.5204,3.5204,3.5204,3.5204,3.5204,3.5204,3.5204,3.5204,3.5204,3.5204,3.5204,3.5204,3.5204,3.5204,3.5204,3.5204,3.5204,3.5778,3.5752,3.5364,3.5204,3.5204,3.5204,3.5204,3.5204,3.5204,3.5204,3.5204,3.5204,3.5204,3.5204,3.5204,3.5204,3.5204,3.5204,3.5204,3.5204,3.5204,3.5204,3.5204,3.5204,3.5204,3.5204,3.5204,3.5084,3.4963,3.5004,3.4977,3.4855,3.4883,3.4963,3.503,3.4977,3.499,3.5017,3.4776,3.4629,3.4603,3.4336,3.4189,3.4175,3.4082,3.3935,3.3761,3.3374,3.3267,3.344,3.3467,3.3601,3.3855,3.4002,3.4031,3.4175,3.4255,3.4429,3.4603,3.4629,3.471,3.4857,3.491,3.4963,3.5044,3.5057,3.5097,3.5191,3.5204,3.5204,3.5204,3.5204,3.5097,3.4937,3.5004,3.5044,3.5044,3.5137,3.5191,3.5204,3.5204,3.5204,3.5204,3.5204,3.5204,3.5204,3.5204,3.5204,3.5204,3.5204,3.5204,3.5204,3.5204,3.5204,3.5204,3.5204,3.5204,3.5204,3.5204,3.5204,3.5204,3.5204,3.5204,3.5204,3.5204,3.5204,3.5204,3.5204,3.5204,3.5204,3.5204,3.5204,3.5204,3.5204,3.5204,3.5778,3.5698,3.5351,3.5204,3.5204,3.5204,3.5204,3.5204,3.5204,3.5204,3.5204,3.5204,3.5204,3.5204,3.5204,3.5204,3.5204,3.5204,3.5204,3.5204,3.5204,3.5204,3.5204,3.5204,3.5204,3.5204,3.5204,3.511,3.5002,3.5097,3.511,3.499,3.511,3.5191,3.5177,3.5084,3.507,3.5137,3.491,3.4869,3.4843,3.4643,3.4482,3.4469,3.4376,3.4322,3.4282,3.3935,3.3841,3.4002,3.4055,3.4189,3.4442,3.4482,3.4523,3.4629,3.4656,3.475,3.4897,3.4923,3.499,3.5164,3.5204,3.5191,3.5191,3.5204,3.5204,3.5204,3.5204,3.5204,3.5204,3.5204,3.5204,3.5191,3.5177,3.5204,3.5204,3.5204,3.5204,3.5204,3.5204,3.5204,3.5204,3.5204,3.5204,3.5204,3.5204,3.5204,3.5204,3.5204,3.5204,3.5204,3.5204,3.5204,3.5204,3.5204,3.5204,3.5204,3.5204,3.5204,3.5204,3.5204,3.5204,3.5204,3.5204,3.5204,3.5204,3.5204,3.5204,3.5204,3.5204,3.5204,3.5204,3.5204,3.5204,3.5752,3.5271,3.5231,3.5217,3.5204,3.5204,3.5204,3.5204,3.5204,3.5204,3.5204,3.5204,3.5204,3.5204,3.5204,3.5204,3.5204,3.5204,3.5204,3.5204,3.5204,3.5204,3.5204,3.5204,3.5204,3.5204,3.5204,3.5191,3.5151,3.5177,3.5204,3.5177,3.5177,3.5204,3.5164,3.4976,3.4977,3.5137,3.4937,3.495,3.5137,3.4923,3.479,3.4829,3.4563,3.4442,3.4442,3.4402,3.4349,3.4349,3.4376,3.4523,3.4736,3.4842,3.4897,3.511,3.5177,3.5151,3.5177,3.5151,3.5164,3.5191,3.5204,3.5204,3.5204,3.5204,3.5204,3.5204,3.5204,3.5204,3.5204,3.5204,3.5204,3.5204,3.5204,3.5204,3.5204,3.5204,3.5204,3.5204,3.5204,3.5204,3.5204,3.5204,3.5204,3.5204,3.5204,3.5204,3.5204,3.5204,3.5204,3.5204,3.5204,3.5204,3.5204,3.5204,3.5204,3.5204,3.5204,3.5204,3.5204,3.5204,3.5204,3.5204,3.5204,3.5204,3.5204,3.5204,3.5204,3.5204,3.5204,3.5204,3.5204,3.5204,3.5204,3.6033,3.5832,3.5605,3.5391,3.5217,3.5204,3.5204,3.5204,3.5204,3.5204,3.5204,3.5204,3.5204,3.5204,3.5204,3.5204,3.5204,3.5204,3.5204,3.5204,3.5204,3.5204,3.5204,3.5204,3.5204,3.5204,3.5204,3.5204,3.5204,3.5204,3.5204,3.5204,3.5204,3.5204,3.5177,3.511,3.511,3.5177,3.5137,3.5097,3.5164,3.5124,3.5084,3.507,3.499,3.495,3.4963,3.4963,3.4857,3.4683,3.487,3.499,3.5057,3.5057,3.5097,3.5164,3.5204,3.5204,3.5204,3.5204,3.5204,3.5204,3.5204,3.5204,3.5204,3.5204,3.5204,3.5204,3.5204,3.5204,3.5204,3.5204,3.5204,3.5204,3.5204,3.5204,3.5204,3.5204,3.5204,3.5204,3.5204,3.5204,3.5204,3.5204,3.5204,3.5204,3.5204,3.5204,3.5204,3.5204,3.5204,3.5204,3.5204,3.5204,3.5204,3.5204,3.5204,3.5204,3.5204,3.5204,3.5204,3.5204,3.5204,3.5204,3.5204,3.5204,3.5204,3.5204,3.5204,3.5204,3.5204,3.5204,3.5204,3.5204,3.5204,3.5992,3.5859,3.5578,3.5351,3.5204,3.5204,3.5204,3.5204,3.5204,3.5204,3.5204,3.5204,3.5204,3.5204,3.5204,3.5204,3.5204,3.5204,3.5204,3.5204,3.5204,3.5204,3.5204,3.5204,3.5204,3.5204,3.5204,3.5204,3.5204,3.5204,3.5204,3.5204,3.5204,3.5204,3.5204,3.5204,3.5204,3.5204,3.5204,3.5204,3.5204,3.5204,3.5191,3.5191,3.5204,3.5204,3.5191,3.5191,3.511,3.5004,3.5097,3.5204,3.5204,3.5204,3.5204,3.5204,3.5204,3.5204,3.5204,3.5204,3.5204,3.5204,3.5204,3.5204,3.5204,3.5204,3.5204,3.5204,3.5204,3.5204,3.5204,3.5204,3.5204,3.5204,3.5204,3.5204,3.5204,3.5204,3.5204,3.5204,3.5204,3.5204,3.5204,3.5204,3.5204,3.5204,3.5204,3.5204,3.5204,3.5204,3.5204,3.5204,3.5204,3.5204,3.5204,3.5204,3.5204,3.5204,3.5204,3.5204,3.5204,3.5204,3.5204,3.5204,3.5204,3.5204,3.5204,3.5204,3.5204,3.5204,3.5204,3.5204,3.5204,3.5204,3.5204,3.5912,3.5645,3.5364,3.5231,3.5204,3.5204,3.5204,3.5204,3.5204,3.5204,3.5204,3.5204,3.5204,3.5204,3.5204,3.5204,3.5204,3.5204,3.5204,3.5204,3.5204,3.5204,3.5204,3.5204,3.5204,3.5204,3.5204,3.5204,3.5204,3.5204,3.5204,3.5204,3.5204,3.5204,3.5204,3.5204,3.5204,3.5204,3.5204,3.5204,3.5204,3.5204,3.5204,3.5204,3.5204,3.5204,3.5204,3.5204,3.5177,3.5191,3.5204,3.5204,3.5204,3.5204,3.5204,3.5204,3.5204,3.5204,3.5204,3.5204,3.5204,3.5204,3.5204,3.5204,3.5204,3.5204,3.5204,3.5204,3.5204,3.5204,3.5204,3.5204,3.5204,3.5204,3.5204,3.5204,3.5204,3.5204,3.5204,3.5204,3.5204,3.5204,3.5204,3.5204,3.5204,3.5204,3.5204,3.5204,3.5204,3.5204,3.5204,3.5204,3.5204,3.5204,3.5204,3.5204,3.5204,3.5204,3.5204,3.5204,3.5204,3.5204,3.5204,3.5204,3.5204,3.5204,3.5204,3.5204,3.5204,3.5204,3.5204,3.5204,3.5204,3.5204,3.5204,3.6032,3.5952,3.5658,3.5404,3.5217,3.5204,3.5204,3.5204,3.5204,3.5204,3.5204,3.5204,3.5204,3.5204,3.5204,3.5204,3.5217,3.5204,3.5204,3.5204,3.5204,3.5204,3.5204,3.5204,3.5204,3.5204,3.5204,3.5204,3.5204,3.5204,3.5204,3.5204,3.5204,3.5204,3.5204,3.5204,3.5204,3.5204,3.5204,3.5204,3.5204,3.5204,3.5204,3.5204,3.5204,3.5204,3.5204,3.5204,3.5204,3.5204,3.5204,3.5204,3.5204,3.5204,3.5204,3.5204,3.5204,3.5204,3.5204,3.5204,3.5204,3.5204,3.5204,3.5204,3.5204,3.5204,3.5204,3.5204,3.5204,3.5204,3.5204,3.5204,3.5204,3.5204,3.5204,3.5204,3.5204,3.5204,3.5204,3.5204,3.5204,3.5204,3.5204,3.5204,3.5204,3.5204,3.5204,3.5204,3.5204,3.5204,3.5204,3.5204,3.5204,3.5204,3.5204,3.5204,3.5204,3.5204,3.5204,3.5204,3.5204,3.5204,3.5204,3.5204,3.5204,3.5204,3.5204,3.5204,3.5204,3.5204,3.5204,3.5204,3.5204,3.5204,3.5204,3.6126,3.6086,3.5605,3.5338,3.5217,3.5204,3.5204,3.5204,3.5204,3.5204,3.5204,3.5204,3.5271,3.5378,3.5271,3.5257,3.5338,3.5244,3.5204,3.5204,3.5204,3.5204,3.5204,3.5204,3.5204,3.5204,3.5204,3.5204,3.5204,3.5204,3.5204,3.5204,3.5204,3.5204,3.5204,3.5204,3.5204,3.5204,3.5204,3.5204,3.5204,3.5204,3.5204,3.5204,3.5204,3.5204,3.5204,3.5204,3.5204,3.5204,3.5204,3.5204,3.5204,3.5204,3.5204,3.5204,3.5204,3.5204,3.5204,3.5204,3.5204,3.5204,3.5204,3.5204,3.5204,3.5204,3.5204,3.5204,3.5204,3.5204,3.5204,3.5204,3.5204,3.5204,3.5204,3.5204,3.5204,3.5204,3.5204,3.5204,3.5204,3.5204,3.5204,3.5204,3.5204,3.5204,3.5204,3.5204,3.5204,3.5204,3.5204,3.5204,3.5204,3.5204,3.5204,3.5204,3.5204,3.5204,3.5204,3.5204,3.5204,3.5204,3.5204,3.5204,3.5204,3.5204,3.5204,3.5204,3.5204,3.5204,3.5204,3.5204,3.5204,3.5204,3.5204,3.6006,3.5965,3.5418,3.5204,3.5204,3.5204,3.5204,3.5204,3.5204,3.5204,3.5204,3.5204,3.5311,3.5444,3.5297,3.5351,3.5418,3.5338,3.5204,3.5204,3.5204,3.5204,3.5204,3.5204,3.5204,3.5204,3.5204,3.5204,3.5204,3.5204,3.5204,3.5204,3.5204,3.5204,3.5204,3.5204,3.5204,3.5204,3.5204,3.5204,3.5204,3.5204,3.5204,3.5204,3.5204,3.5204,3.5204,3.5204,3.5204,3.5204,3.5204,3.5204,3.5204,3.5204,3.5204,3.5204,3.5204,3.5204,3.5204,3.5204,3.5204,3.5204,3.5204,3.5204,3.5204,3.5204,3.5204,3.5204,3.5204,3.5204,3.5204,3.5204,3.5204,3.5204,3.5204,3.5204,3.5204,3.5204,3.5204,3.5204,3.5204,3.5204,3.5204,3.5204,3.5204,3.5204,3.5204,3.5204,3.5204,3.5204,3.5204,3.5204,3.5204,3.5204,3.5204,3.5204,3.5204,3.5204,3.5204,3.5204,3.5204,3.5204,3.5204,3.5204,3.5204,3.5204,3.5204,3.5204,3.5204,3.5204,3.5204,3.5204,3.5204,3.5204,3.5204,3.5698,3.5618,3.5338,3.5204,3.5204,3.5204,3.5204,3.5204,3.5204,3.5204,3.5204,3.5204,3.5231,3.5271,3.5244,3.5244,3.5284,3.5217,3.5204,3.5204,3.5204,3.5204,3.5204,3.5204,3.5204,3.5204,3.5204,3.5204,3.5204,3.5204,3.5204,3.5204,3.5204,3.5204,3.5204,3.5204,3.5204,3.5204,3.5204,3.5204,3.5204,3.5204,3.5204,3.5204,3.5204,3.5204,3.5204,3.5204,3.5204,3.5204,3.5204,3.5204,3.5204,3.5204,3.5204,3.5204,3.5204,3.5204,3.5204,3.5204,3.5204,3.5204,3.5204,3.5204,3.5204,3.5204,3.5204,3.5204,3.5204,3.5204,3.5204,3.5204,3.5204,3.5204,3.5204,3.5204,3.5204,3.5204,3.5204,3.5204,3.5204,3.5204,3.5204,3.5204,3.5204,3.5204,3.5204,3.5204,3.5204,3.5204,3.5204,3.5204,3.5204,3.5204,3.5204,3.5204,3.5204,3.5204,3.5204,3.5204,3.5204,3.5204,3.5204,3.5204,3.5204,3.5204,3.5204,3.5204,3.5204,3.5204,3.5204,3.5204,3.5204,3.5204,3.5204,3.5631,3.5551,3.5311,3.5204,3.5204,3.5204,3.5204,3.5204,3.5204,3.5204,3.5204,3.5204,3.5284,3.5351,3.5244,3.5204,3.5204,3.5204,3.5204,3.5204,3.5204,3.5204,3.5204,3.5204,3.5311,3.5338,3.5284,3.5217,3.5204,3.5204,3.5204,3.5204,3.5204,3.5204,3.5204,3.5204,3.5204,3.5204,3.5204,3.5204,3.5204,3.5204,3.5204,3.5204,3.5204,3.5204,3.5204,3.5204,3.5204,3.5204,3.5204,3.5204,3.5204,3.5204,3.5204,3.5204,3.5204,3.5204,3.5204,3.5204,3.5204,3.5204,3.5204,3.5204,3.5204,3.5204,3.5204,3.5204,3.5204,3.5204,3.5204,3.5204,3.5204,3.5204,3.5204,3.5204,3.5204,3.5204,3.5204,3.5204,3.5204,3.5204,3.5204,3.5204,3.5204,3.5204,3.5204,3.5204,3.5204,3.5204,3.5204,3.5204,3.5204,3.5204,3.5204,3.5204,3.5204,3.5204,3.5204,3.5204,3.5204,3.5204,3.5204,3.5204,3.5204,3.5204,3.5204,3.5204,3.5204,3.5204,3.5204,3.5204,3.5204,3.5204,3.5204,3.5538,3.5471,3.5297,3.5204,3.5204,3.5204,3.5204,3.5204,3.5204,3.5204,3.5204,3.5204,3.5311,3.5431,3.5324,3.5204,3.5204,3.5204,3.5204,3.5204,3.5204,3.5217,3.5284,3.5311,3.5444,3.5672,3.5565,3.5338,3.5297,3.5231,3.5204,3.5231,3.5231,3.5231,3.5217,3.5378,3.5297,3.5217,3.5271,3.5271,3.5217,3.5204,3.5204,3.5204,3.5204,3.5204,3.5204,3.5204,3.5204,3.5204,3.5204,3.5204,3.5204,3.5204,3.5204,3.5204,3.5204,3.5204,3.5204,3.5204,3.5204,3.5204,3.5204,3.5204,3.5204,3.5204,3.5204,3.5204,3.5204,3.5204,3.5204,3.5204,3.5204,3.5204,3.5204,3.5204,3.5204,3.5204,3.5204,3.5204,3.5204,3.5204,3.5204,3.5204,3.5204,3.5204,3.5204,3.5204,3.5204,3.5204,3.5204,3.5204,3.5204,3.5204,3.5204,3.5204,3.5204,3.5204,3.5204,3.5204,3.5204,3.5204,3.5204,3.5204,3.5204,3.5204,3.5204,3.5204,3.5204,3.5204,3.5204,3.5204,3.5204,3.5204,3.5204,3.5485,3.5244,3.5204,3.5204,3.5204,3.5204,3.5204,3.5204,3.5204,3.5204,3.5204,3.5204,3.5217,3.5244,3.5244,3.5204,3.5204,3.5204,3.5204,3.5204,3.5204,3.5324,3.5525,3.5525,3.5738,3.5939,3.5952,3.5805,3.5618,3.5378,3.5204,3.5244,3.5364,3.5418,3.5311,3.5591,3.5685,3.5351,3.5431,3.5431,3.5244,3.5204,3.5204,3.5204,3.5204,3.5204,3.5204,3.5204,3.5204,3.5204,3.5204,3.5204,3.5204,3.5204,3.5204,3.5204,3.5204,3.5204,3.5204,3.5204,3.5204,3.5204,3.5204,3.5204,3.5204,3.5204,3.5204,3.5204,3.5204,3.5204,3.5204,3.5204,3.5204,3.5204,3.5204,3.5204,3.5204,3.5204,3.5204,3.5204,3.5204,3.5204,3.5204,3.5204,3.5204,3.5204,3.5204,3.5204,3.5204,3.5204,3.5204,3.5204,3.5204,3.5204,3.5204,3.5204,3.5204,3.5204,3.5204,3.5204,3.5204,3.5204,3.5204,3.5204,3.5204,3.5204,3.5204,3.5204,3.5204,3.5204,3.5204,3.5204,3.5204,3.5204,3.5204,3.5458,3.5204,3.5204,3.5204,3.5204,3.5204,3.5204,3.5204,3.5204,3.5204,3.5204,3.5204,3.5204,3.5231,3.5204,3.5204,3.5204,3.5217,3.5204,3.5231,3.5244,3.5378,3.5565,3.5658,3.5845,3.6193,3.6179,3.6126,3.5939,3.5658,3.5378,3.5257,3.5338,3.5431,3.5444,3.5698,3.5658,3.5485,3.5404,3.5324,3.5231,3.5204,3.5204,3.5204,3.5204,3.5204,3.5204,3.5204,3.5204,3.5204,3.5204,3.5204,3.5204,3.5204,3.5204,3.5204,3.5204,3.5204,3.5204,3.5204,3.5204,3.5204,3.5204,3.5204,3.5204,3.5204,3.5204,3.5204,3.5204,3.5204,3.5204,3.5204,3.5204,3.5204,3.5204,3.5204,3.5204,3.5204,3.5204,3.5204,3.5204,3.5204,3.5204,3.5204,3.5204,3.5204,3.5204,3.5204,3.5204,3.5204,3.5204,3.5204,3.5204,3.5204,3.5204,3.5204,3.5204,3.5204,3.5204,3.5204,3.5204,3.5204,3.5204,3.5204,3.5204,3.5204,3.5204,3.5204,3.5204,3.5204,3.5204,3.5204,3.5204,3.5204,3.5204,3.5458,3.5204,3.5271,3.5297,3.5311,3.5297,3.5311,3.5311,3.5311,3.5311,3.5324,3.5391,3.5431,3.5418,3.5458,3.5485,3.5431,3.5418,3.5418,3.5418,3.5444,3.5618,3.5845,3.5925,3.6139,3.6593,3.646,3.638,3.6299,3.6086,3.5738,3.5444,3.5645,3.5645,3.5752,3.5952,3.5992,3.5738,3.5391,3.5231,3.5204,3.5204,3.5204,3.5204,3.5204,3.5204,3.5204,3.5204,3.5204,3.5204,3.5204,3.5204,3.5204,3.5204,3.5204,3.5204,3.5204,3.5204,3.5204,3.5204,3.5204,3.5204,3.5204,3.5204,3.5204,3.5204,3.5204,3.5204,3.5204,3.5204,3.5204,3.5204,3.5204,3.5204,3.5204,3.5204,3.5204,3.5204,3.5204,3.5204,3.5204,3.5204,3.5204,3.5204,3.5204,3.5204,3.5204,3.5204,3.5204,3.5204,3.5204,3.5204,3.5204,3.5204,3.5204,3.5204,3.5204,3.5204,3.5204,3.5204,3.5204,3.5204,3.5204,3.5204,3.5204,3.5204,3.5204,3.5204,3.5204,3.5204,3.5204,3.5204,3.5204,3.5204,3.5204,3.5458,3.5217,3.5485,3.5578,3.5565,3.5551,3.5525,3.5525,3.5565,3.5485,3.5551,3.5805,3.5845,3.5899,3.5805,3.5832,3.5939,3.6006,3.5859,3.5859,3.6019,3.6046,3.6193,3.6326,3.6527,3.6765,3.6754,3.6647,3.6567,3.6487,3.6233,3.6072,3.6072,3.6126,3.6206,3.6299,3.6273,3.5939,3.5485,3.5204,3.5204,3.5204,3.5204,3.5204,3.5204,3.5204,3.5204,3.5204,3.5204,3.5204,3.5204,3.5204,3.5204,3.5204,3.5204,3.5204,3.5204,3.5204,3.5204,3.5204,3.5204,3.5204,3.5204,3.5204,3.5204,3.5204,3.5204,3.5204,3.5204,3.5204,3.5204,3.5204,3.5204,3.5204,3.5204,3.5204,3.5204,3.5204,3.5204,3.5204,3.5204,3.5204,3.5204,3.5204,3.5204,3.5204,3.5204,3.5204,3.5204,3.5204,3.5204,3.5204,3.5204,3.5204,3.5204,3.5204,3.5204,3.5204,3.5204,3.5204,3.5204,3.5204,3.5204,3.5204,3.5204,3.5204,3.5204,3.5204,3.5204,3.5204,3.5204,3.5204,3.5204,3.5204,3.5204,3.5297,3.5231,3.5511,3.5525,3.5364,3.5364,3.5364,3.5364,3.5364,3.5364,3.5404,3.5485,3.5538,3.5565,3.5538,3.5538,3.5538,3.5525,3.5591,3.5618,3.5712,3.5965,3.6193,3.6487,3.6647,3.6832,3.6885,3.6859,3.6739,3.674,3.6727,3.6552,3.642,3.6326,3.638,3.6406,3.6246,3.6032,3.5538,3.5204,3.5204,3.5204,3.5204,3.5204,3.5204,3.5204,3.5204,3.5204,3.5204,3.5204,3.5204,3.5204,3.5204,3.5204,3.5204,3.5204,3.5204,3.5204,3.5204,3.5204,3.5204,3.5204,3.5204,3.5204,3.5204,3.5204,3.5204,3.5204,3.5204,3.5204,3.5204,3.5204,3.5204,3.5204,3.5204,3.5204,3.5204,3.5204,3.5204,3.5204,3.5204,3.5204,3.5204,3.5204,3.5204,3.5204,3.5204,3.5204,3.5204,3.5204,3.5204,3.5204,3.5204,3.5204,3.5204,3.5204,3.5204,3.5204,3.5204,3.5204,3.5204,3.5204,3.5204,3.5204,3.5204,3.5204,3.5204,3.5204,3.5204,3.5204,3.5204,3.5204,3.5204,3.5204,3.5204,3.5271,3.5231,3.5511,3.5511,3.5351,3.5418,3.5458,3.5458,3.5485,3.5525,3.5578,3.5591,3.5645,3.5685,3.5752,3.5792,3.5872,3.5859,3.5792,3.5885,3.6072,3.6139,3.634,3.654,3.6767,3.6859,3.6885,3.6872,3.6859,3.6872,3.6845,3.6712,3.658,3.654,3.6487,3.6273,3.6126,3.5993,3.5538,3.5217,3.5204,3.5204,3.5204,3.5204,3.5204,3.5204,3.5204,3.5204,3.5204,3.5204,3.5204,3.5204,3.5204,3.5204,3.5204,3.5204,3.5204,3.5204,3.5204,3.5204,3.5204,3.5204,3.5204,3.5204,3.5204,3.5204,3.5204,3.5204,3.5204,3.5204,3.5204,3.5204,3.5204,3.5204,3.5204,3.5204,3.5204,3.5204,3.5204,3.5204,3.5191,3.5177,3.5124,3.511,3.5084,3.5124,3.5191,3.5191,3.5204,3.5204,3.5204,3.5204,3.5204,3.5204,3.5204,3.5204,3.5204,3.5204,3.5204,3.5204,3.5204,3.5204,3.5204,3.5204,3.5204,3.5204,3.5204,3.5204,3.5204,3.5204,3.5204,3.5204,3.5204,3.5204,3.5204,3.5444,3.5244,3.5498,3.5605,3.5591,3.5912,3.6033,3.5912,3.5939,3.6059,3.6219,3.6273,3.642,3.6525,3.6433,3.6446,3.6487,3.658,3.6593,3.6527,3.65,3.6712,3.6739,3.6752,3.6834,3.6845,3.6885,3.6885,3.6885,3.6885,3.6885,3.6885,3.6765,3.6752,3.6847,3.6353,3.614,3.6046,3.5485,3.5257,3.5204,3.5204,3.5204,3.5204,3.5204,3.5204,3.5204,3.5204,3.5204,3.5204,3.5204,3.5204,3.5204,3.5204,3.5204,3.5204,3.5204,3.5204,3.5204,3.5204,3.5204,3.5204,3.5204,3.5204,3.5204,3.5204,3.5204,3.5204,3.5204,3.5204,3.5204,3.5204,3.5204,3.5204,3.5204,3.5151,3.5137,3.5097,3.507,3.495,3.5057,3.5151,3.5057,3.499,3.4963,3.5017,3.5137,3.5191,3.5177,3.5191,3.5191,3.5204,3.5204,3.5204,3.5204,3.5204,3.5204,3.5204,3.5204,3.5204,3.5204,3.5204,3.5204,3.5204,3.5204,3.5204,3.5204,3.5204,3.5204,3.5204,3.5204,3.5204,3.5204,3.5204,3.5204,3.5284,3.5204,3.5297,3.5338,3.5351,3.5444,3.5591,3.5752,3.5792,3.5845,3.5845,3.5925,3.5952,3.6099,3.634,3.6433,3.642,3.6353,3.6366,3.6406,3.658,3.6487,3.6527,3.6699,3.6779,3.6754,3.6794,3.6885,3.6885,3.6885,3.6885,3.6885,3.6885,3.6885,3.678,3.6406,3.6126,3.5965,3.5551,3.5204,3.5204,3.5204,3.5204,3.5204,3.5204,3.5204,3.5204,3.5204,3.5204,3.5204,3.5204,3.5204,3.5204,3.5204,3.5204,3.5204,3.5204,3.5204,3.5204,3.5204,3.5204,3.5204,3.5204,3.5204,3.5204,3.5204,3.5204,3.5204,3.5204,3.5204,3.5204,3.5191,3.5191,3.5204,3.5164,3.5044,3.4977,3.491,3.483,3.4616,3.4603,3.4643,3.4603,3.4616,3.4616,3.4656,3.475,3.499,3.5057,3.5151,3.5191,3.5191,3.5204,3.5204,3.5204,3.5204,3.5204,3.5204,3.5204,3.5204,3.5204,3.5204,3.5204,3.5204,3.5204,3.5204,3.5204,3.5204,3.5204,3.5204,3.5204,3.5204,3.5204,3.5204,3.5204,3.5284,3.5217,3.5311,3.5284,3.5217,3.5297,3.5511,3.5752,3.5778,3.5792,3.5805,3.5792,3.5885,3.6006,3.6126,3.6326,3.6353,3.6259,3.6233,3.6246,3.6406,3.642,3.6473,3.666,3.6821,3.674,3.6807,3.6885,3.6885,3.6885,3.6885,3.6885,3.6872,3.6885,3.6712,3.642,3.6126,3.5966,3.5551,3.5204,3.5204,3.5204,3.5204,3.5204,3.5204,3.5204,3.5204,3.5204,3.5204,3.5204,3.5204,3.5204,3.5204,3.5204,3.5204,3.5204,3.5204,3.5204,3.5204,3.5204,3.5204,3.5204,3.5204,3.5204,3.5204,3.5204,3.5204,3.5204,3.5177,3.511,3.5057,3.507,3.5017,3.5017,3.4897,3.475,3.4696,3.4616,3.4576,3.4349,3.4255,3.4242,3.4175,3.4189,3.4215,3.4269,3.4336,3.4603,3.487,3.4977,3.5044,3.5057,3.5124,3.5164,3.5177,3.5204,3.5204,3.5204,3.5204,3.5204,3.5204,3.5204,3.5204,3.5204,3.5204,3.5204,3.5204,3.5204,3.5204,3.5204,3.5204,3.5204,3.5204,3.5204,3.5204,3.5444,3.5257,3.5498,3.5444,3.5271,3.5418,3.5712,3.6032,3.6059,3.6046,3.6073,3.606,3.6086,3.6353,3.646,3.6567,3.6687,3.6527,3.6487,3.646,3.6487,3.646,3.6567,3.6712,3.6821,3.6819,3.6819,3.6779,3.6845,3.6712,3.6725,3.6805,3.678,3.6807,3.6633,3.6326,3.6059,3.5885,3.5525,3.5244,3.5204,3.5204,3.5204,3.5204,3.5204,3.5204,3.5204,3.5204,3.5204,3.5204,3.5204,3.5204,3.5204,3.5204,3.5204,3.5204,3.5204,3.5204,3.5204,3.5204,3.5204,3.5204,3.5204,3.5204,3.5177,3.5151,3.5084,3.5057,3.5017,3.4897,3.4751,3.4736,3.4656,3.4576,3.4456,3.4376,3.4336,3.4295,3.4269,3.4189,3.4148,3.4082,3.3908,3.3868,3.3895,3.3895,3.3948,3.4042,3.4322,3.4656,3.4736,3.479,3.4897,3.511,3.5137,3.5124,3.5204,3.5204,3.5204,3.5204,3.5204,3.5191,3.5204,3.5204,3.5204,3.5204,3.5204,3.5204,3.5204,3.5204,3.5204,3.5204,3.5204,3.5204,3.5204,3.5271,3.5204,3.5284,3.5271,3.5191,3.507,3.5297,3.5738,3.5965,3.5979,3.5765,3.5979,3.6032,3.5912,3.6313,3.6406,3.642,3.6433,3.65,3.6487,3.6406,3.6473,3.6593,3.6659,3.6767,3.6687,3.6633,3.6633,3.6567,3.6473,3.65,3.658,3.6487,3.65,3.638,3.6059,3.5992,3.5845,3.5458,3.5271,3.5204,3.5204,3.5204,3.5204,3.5204,3.5204,3.5204,3.5204,3.5204,3.5204,3.5204,3.5204,3.5204,3.5204,3.5204,3.5204,3.5204,3.5204,3.5204,3.5204,3.5204,3.5191,3.5177,3.5204,3.5151,3.503,3.4923,3.487,3.4763,3.4616,3.4509,3.4429,3.4349,3.4242,3.4148,3.4108,3.4055,3.4002,3.3961,3.3868,3.3828,3.3814,3.3641,3.3614,3.3627,3.3574,3.3587,3.3668,3.3841,3.4202,3.4416,3.4469,3.4656,3.4857,3.4977,3.499,3.511,3.5204,3.5151,3.5137,3.5151,3.5151,3.5191,3.5204,3.5204,3.5204,3.5204,3.5204,3.5204,3.5204,3.5204,3.5204,3.5204,3.5204,3.5204,3.5097,3.5191,3.5204,3.5137,3.499,3.4723,3.4803,3.5151,3.5551,3.5605,3.5525,3.5885,3.5912,3.5752,3.6099,3.6246,3.6167,3.6086,3.6099,3.6099,3.6193,3.6126,3.6246,3.6446,3.6446,3.638,3.634,3.634,3.6273,3.6206,3.626,3.6299,3.618,3.6193,3.6153,3.5925,3.5778,3.5672,3.5485,3.5257,3.5204,3.5204,3.5204,3.5204,3.5204,3.5204,3.5204,3.5204,3.5204,3.5204,3.5204,3.5204,3.5204,3.5204,3.5204,3.5204,3.5204,3.5204,3.5204,3.5204,3.5204,3.5164,3.5097,3.5017,3.4977,3.487,3.4723,3.4603,3.4442,3.4295,3.4215,3.4135,3.4055,3.3961,3.3908,3.3868,3.3788,3.3721,3.3601,3.348,3.3454,3.3467,3.3427,3.3414,3.3414,3.3454,3.3467,3.3494,3.3641,3.3908,3.4082,3.4162,3.4376,3.4589,3.4683,3.4763,3.4803,3.4883,3.4937,3.495,3.503,3.5124,3.5164,3.5191,3.5204,3.5204,3.5204,3.5204,3.5204,3.5204,3.5204,3.5204,3.5204,3.5204,3.5204,3.4883,3.511,3.5124,3.4923,3.4721,3.4389,3.4282,3.4322,3.4883,3.5137,3.5257,3.5778,3.5832,3.5631,3.5885,3.5979,3.5872,3.5792,3.5792,3.5591,3.5752,3.5792,3.5912,3.5952,3.6166,3.6126,3.6032,3.5992,3.5979,3.5912,3.5926,3.6073,3.5939,3.5952,3.5952,3.5698,3.5551,3.5511,3.5378,3.5204,3.5204,3.5204,3.5204,3.5204,3.5204,3.5204,3.5204,3.5204,3.5204,3.5204,3.5204,3.5204,3.5204,3.5204,3.5204,3.5204,3.5204,3.5204,3.5204,3.5204,3.5151,3.507,3.4923,3.475,3.4708,3.4563,3.4402,3.4282,3.4122,3.3975,3.3881,3.3841,3.3774,3.3694,3.3641,3.3614,3.3587,3.3547,3.3507,3.3414,3.3414,3.3414,3.3414,3.3414,3.3414,3.3414,3.3414,3.3414,3.3494,3.3708,3.3788,3.3868,3.4095,3.4282,3.4336,3.4402,3.4402,3.4482,3.4616,3.4696,3.4723,3.4923,3.5151,3.5177,3.5204,3.5204,3.5204,3.5204,3.5204,3.5204,3.5204,3.5204,3.5204,3.5204,3.5204,3.4469,3.4536,3.4523,3.4362,3.4108,3.4028,3.3855,3.3694,3.4269,3.4656,3.4937,3.5418,3.5578,3.5378,3.5605,3.5658,3.5485,3.5525,3.5618,3.5538,3.5525,3.5618,3.5872,3.5899,3.6073,3.5992,3.5872,3.5645,3.5538,3.5498,3.5538,3.5685,3.5605,3.5565,3.5712,3.5458,3.5351,3.5351,3.5284,3.5204,3.5204,3.5204,3.5204,3.5204,3.5204,3.5204,3.5204,3.5204,3.5204,3.5204,3.5204,3.5204,3.5204,3.5191,3.5191,3.5191,3.5164,3.5164,3.5191,3.5151,3.507,3.4923,3.4788,3.4507,3.432,3.4162,3.4055,3.3948,3.3828,3.3681,3.3587,3.3561,3.3521,3.3467,3.3414,3.3414,3.3414,3.3414,3.3414,3.3414,3.3414,3.3414,3.3414,3.3414,3.3414,3.3414,3.3414,3.3414,3.3414,3.3534,3.3547,3.3654,3.3828,3.3988,3.4028,3.4068,3.4082,3.4202,3.4349,3.4389,3.4429,3.4656,3.4897,3.511,3.5204,3.5164,3.5164,3.5204,3.5204,3.5204,3.5204,3.5204,3.5204,3.5204,3.5204,3.4202,3.4295,3.4175,3.4108,3.4042,3.3801,3.3574,3.3521,3.3921,3.4215,3.4521,3.5044,3.5271,3.507,3.5311,3.5391,3.5204,3.5204,3.5297,3.5378,3.5364,3.5404,3.5578,3.5725,3.5645,3.5605,3.5525,3.5351,3.5217,3.5217,3.5324,3.5404,3.5271,3.5271,3.5378,3.5271,3.5204,3.5204,3.5204,3.5204,3.5204,3.5204,3.5204,3.5204,3.5204,3.5204,3.5204,3.5204,3.5204,3.5137,3.507,3.487,3.4817,3.475,3.4857,3.495,3.5004,3.5057,3.511,3.507,3.4937,3.4815,3.4429,3.4108,3.4015,3.3908,3.3734,3.3627,3.3614,3.348,3.348,3.3467,3.3467,3.3427,3.3414,3.3414,3.3414,3.3414,3.3414,3.3414,3.3414,3.3414,3.3414,3.3414,3.3414,3.3414,3.3414,3.3414,3.3414,3.3414,3.3414,3.344,3.3641,3.3681,3.3681,3.3734,3.3788,3.3908,3.4068,3.4202,3.4309,3.4456,3.4629,3.4857,3.503,3.5084,3.5097,3.5151,3.5191,3.5204,3.5204,3.5204,3.5204,3.5204,3.5204,3.3975,3.4148,3.3921,3.3961,3.4108,3.3654,3.3414,3.3467,3.3748,3.3868,3.3948,3.4656,3.483,3.487,3.499,3.5084,3.5097,3.4977,3.5017,3.503,3.4923,3.5057,3.5151,3.5217,3.5284,3.5311,3.5257,3.5244,3.5204,3.5204,3.5204,3.5204,3.5204,3.5204,3.5204,3.5204,3.5204,3.5204,3.5204,3.5204,3.5204,3.5204,3.5204,3.5204,3.5204,3.5204,3.5204,3.5204,3.5204,3.5017,3.4857,3.4643,3.4509,3.4469,3.4536,3.4656,3.4855,3.4883,3.4937,3.487,3.4788,3.4574,3.4095,3.3868,3.3788,3.3654,3.348,3.3427,3.3414,3.3414,3.3414,3.3414,3.3414,3.3414,3.3414,3.3414,3.3414,3.3414,3.3414,3.3414,3.3414,3.3414,3.3414,3.3414,3.3414,3.3414,3.3414,3.3414,3.3414,3.3414,3.3414,3.3414,3.3494,3.3494,3.344,3.3507,3.3601,3.3614,3.3774,3.3988,3.4162,3.4229,3.4376,3.4616,3.4763,3.4897,3.503,3.5124,3.5164,3.5191,3.5204,3.5204,3.5204,3.5204,3.5204,3.3534,3.3574,3.3521,3.3547,3.3574,3.3454,3.3414,3.3467,3.3734,3.3748,3.3681,3.3908,3.4202,3.4416,3.4723,3.4909,3.4949,3.4815,3.4815,3.4855,3.4855,3.4882,3.4976,3.5137,3.5191,3.5204,3.5204,3.5204,3.5204,3.5204,3.5204,3.5204,3.5204,3.5204,3.5204,3.5204,3.5204,3.5204,3.5204,3.5204,3.5204,3.5204,3.5204,3.5204,3.5204,3.5204,3.5204,3.5204,3.5057,3.483,3.4576,3.4389,3.4255,3.4215,3.4282,3.4389,3.4588,3.4603,3.4616,3.4629,3.4561,3.424,3.3855,3.3734,3.3641,3.3521,3.3414,3.3414,3.3414,3.3414,3.3414,3.3414,3.3414,3.3414,3.3414,3.3414,3.3414,3.3414,3.3414,3.3414,3.3414,3.3414,3.3414,3.3414,3.3414,3.3414,3.3414,3.3414,3.3414,3.3414,3.3414,3.3414,3.3414,3.3414,3.3414,3.3427,3.348,3.3454,3.3494,3.3708,3.3868,3.3935,3.4108,3.4349,3.4576,3.4736,3.4883,3.503,3.5137,3.5177,3.5191,3.5204,3.5204,3.5204,3.5204]},{"header":{"parameterUnit":"m.s-1","parameterCategory":1,"la1":31.0,"la2":29.5877,"lo1":-88.7671,"lo2":-86.6584,"dy":0.0162,"dx":0.0185,"nx":115,"ny":88,"refTime":"2023-09-26T06:00:00:Z","depth":0,"parameterNumber":3,"parameterNumberName":"V-component_of_WINDS"},"data":[0.0,0.0,0.0,0.0,0.0,0.0,0.0,0.0,0.0,0.0,0.0,0.0,0.0,0.0,0.0,0.0,0.0,0.0,0.0,0.0,0.0,0.0,0.0,0.0,0.0,0.0,0.0,0.0,0.0,0.0,0.0,0.0,0.0,0.0,0.0,0.0,0.0,0.0,0.0,0.0,0.0,0.0,0.0,0.0,0.0,0.0,0.0,0.0,0.0,0.0,0.0,0.0,0.0,0.0,0.0,0.0,0.0,0.0,0.0,0.0,0.0,0.0,0.0,0.0,0.0,0.0,0.0,0.0,0.0,0.0,0.0,0.0,0.0,0.0,0.0,0.0,0.0,0.0,0.0,0.0,0.0,0.0,0.0,0.0,0.0,0.0,0.0,0.0,0.0,0.0,0.0,0.0,0.0,0.0,0.0,0.0,0.0,0.0,0.0,0.0,0.0,0.0,0.0,0.0,0.0,0.0,0.0,0.0,0.0,0.0,0.0,0.0,0.0,0.0,0.0,0.0,0.0,0.0,0.0,0.0,0.0,0.0,0.0,0.0,0.0,0.0,0.0,0.0,0.0,0.0,0.0,0.0,0.0,0.0,0.0,0.0,0.0,0.0,0.0,0.0,0.0,0.0,0.0,0.0,0.0,0.0,0.0,0.0,0.0,0.0,0.0,0.0,0.0,0.0,0.0,0.0,0.0,0.0,0.0,0.0,0.0,0.0,0.0,0.0,0.0,0.0,0.0,0.0,0.0,0.0,0.0,0.0,0.0,0.0,0.0,0.0,0.0,0.0,0.0,0.0,0.0,0.0,0.0,0.0,0.0,0.0,0.0,0.0,0.0,0.0,0.0,0.0,0.0,0.0,0.0,0.0,0.0,0.0,0.0,0.0,0.0,0.0,0.0,0.0,0.0,0.0,0.0,0.0,0.0,0.0,0.0,0.0,0.0,0.0,0.0,0.0,0.0,0.0,0.0,0.0,0.0,0.0,0.0,0.0,0.0,0.0,0.0,0.0,0.0,0.0,0.0,0.0,0.0,0.0,0.0,0.0,0.0,0.0,0.0,0.0,0.0,0.0,0.0,0.0,0.0,0.0,0.0,0.0,0.0,0.0,0.0,0.0,0.0,0.0,0.0,0.0,0.0,0.0,0.0,0.0,0.0,0.0,0.0,0.0,0.0,0.0,0.0,0.0,0.0,0.0,0.0,0.0,0.0,0.0,0.0,0.0,0.0,0.0,0.0,0.0,0.0,0.0,0.0,0.0,0.0,0.0,0.0,0.0,0.0,0.0,0.0,0.0,0.0,0.0,0.0,0.0,0.0,0.0,0.0,0.0,0.0,0.0,0.0,0.0,0.0,0.0,0.0,0.0,0.0,0.0,0.0,0.0,0.0,0.0,0.0,0.0,0.0,0.0,0.0,0.0,0.0,0.0,0.0,0.0,0.0,0.0,0.0,0.0,0.0,0.0,0.0,0.0,0.0,0.0,0.0,0.0,0.0,0.0,0.0,0.0,0.0,0.0,0.0,0.0,0.0,0.0,0.0,0.0,0.0,0.0,0.0,0.0,0.0,0.0,0.0,0.0,0.0,0.0,0.0,0.0,0.0,0.0,0.0,0.0,0.0,0.0,0.0,0.0,0.0,0.0,0.0,0.0,0.0,0.0,0.0,0.0,0.0,0.0,0.0,0.0,0.0,0.0,0.0,0.0,0.0,0.0,0.0,0.0,0.0,0.0,0.0,0.0,0.0,0.0,0.0,0.0,0.0,0.0,0.0,0.0,0.0,0.0,0.0,0.0,0.0,0.0,0.0,0.0,0.0,0.0,0.0,0.0,0.0,0.0,0.0,0.0,0.0,0.0,0.0,0.0,0.0,0.0,0.0,0.0,0.0,0.0,0.0,0.0,0.0,0.0,0.0,0.0,0.0,0.0,0.0,0.0,0.0,0.0,0.0,0.0,0.0,0.0,0.0,0.0,0.0,0.0,0.0,0.0,0.0,0.0,0.0,0.0,0.0,0.0,0.0,0.0,0.0,0.0,0.0,0.0,0.0,0.0,0.0,0.0,0.0,0.0,0.0,0.0,0.0,0.0,0.0,0.0,0.0,0.0,0.0,0.0,0.0,0.0,0.0,0.0,0.0,0.0,0.0,0.0,0.0,0.0,0.0,0.0,0.0,0.0,0.0,0.0,0.0,0.0,0.0,0.0,0.0,0.0,0.0,0.0,0.0,0.0,0.0,0.0,0.0,0.0,0.0,0.0,0.0,0.0,0.0,0.0,0.0,0.0,0.0,0.0,0.0,0.0,0.0,0.0,0.0,0.0,0.0,0.0,0.0,0.0,0.0,0.0,0.0,0.0,0.0,0.0,0.0,0.0,0.0,0.0,0.0,0.0,0.0,0.0,0.0,0.0,0.0,0.0,0.0,0.0,0.0,0.0,0.0,0.0,0.0,0.0,0.0,0.0,0.0,0.0,0.0,0.0,0.0,0.0,0.0,0.0,0.0,0.0,0.0,0.0,0.0,0.0,0.0,0.0,0.0,0.0,0.0,0.0,0.0,0.0,0.0,0.0,0.0,0.0,0.0,0.0,0.0,0.0,0.0,0.0,0.0,0.0,0.0,0.0,0.0,0.0,0.0,0.0,0.0,0.0,0.0,0.0,0.0,0.0,0.0,0.0,0.0,0.0,0.0,0.0,0.0,0.0,0.0,0.0,0.0,0.0,0.0,0.0,0.0,0.0,0.0,0.0,0.0,0.0,0.0,0.0,0.0,0.0,0.0,0.0,0.0,0.0,0.0,0.0,0.0,0.0,0.0,0.0,0.0,0.0,0.0,0.0,0.0,0.0,0.0,0.0,0.0,0.0,0.0,0.0,0.0,0.0,0.0,0.0,0.0,0.0,0.0,0.0,0.0,0.0,0.0,0.0,0.0,0.0,0.0,0.0,0.0,0.0,0.0,0.0,0.0,0.0,0.0,0.0,0.0,0.0,0.0,0.0,0.0,0.0,0.0,0.0,0.0,0.0,0.0,0.0,0.0,0.0,0.0,0.0,0.0,0.0,0.0,0.0,0.0,0.0,0.0,0.0,0.0,0.0,0.0,0.0,0.0,0.0,0.0,0.0,0.0,0.0,0.0,0.0,0.0,0.0,0.0,0.0,0.0,0.0,0.0,0.0,0.0,0.0,0.0,0.0,0.0,0.0,0.0,0.0,0.0,0.0,0.0,0.0,0.0,0.0,0.0,0.0,0.0,0.0,0.0,0.0,0.0,0.0,0.0,0.0,0.0,0.0,0.0,0.0,0.0,0.0,0.0,0.0,0.0,0.0,0.0,0.0,0.0,0.0,0.0,0.0,0.0,0.0,0.0,0.0,0.0,0.0,0.0,0.0,0.0,0.0,0.0,0.0,0.0,0.0,0.0,0.0,0.0,0.0,0.0,0.0,0.0,0.0,0.0,0.0,0.0,0.0,0.0,0.0,0.0,0.0,0.0,0.0,0.0,0.0,0.0,0.0,0.0,0.0,0.0,0.0,0.0,0.0,0.0,0.0,0.0,0.0,0.0,0.0,0.0,0.0,0.0,0.0,0.0,0.0,0.0,0.0,0.0,0.0,0.0,0.0,0.0,0.0,0.0,0.0,0.0,0.0,0.0,0.0,0.0,0.0,0.0,0.0,0.0,0.0,0.0,0.0,0.0,0.0,0.0,0.0,0.0,0.0,0.0,0.0,0.0,0.0,0.0,0.0,0.0,0.0,0.0,0.0,0.0,0.0,0.0,0.0,0.0,0.0,0.0,0.0,0.0,0.0,0.0,0.0,0.0,0.0,0.0,0.0,0.0,0.0,0.0,0.0,0.0,0.0,0.0,0.0,0.0,0.0,0.0,0.0,0.0,0.0,0.0,0.0,0.0,0.0,0.0,0.0,0.0,0.0,0.0,0.0,0.0,0.0,0.0,0.0,0.0,0.0,0.0,0.0,0.0,0.0,0.0,0.0,0.0,0.0,0.0,0.0,0.0,0.0,0.0,0.0,0.0,0.0,0.0,0.0,0.0,0.0,0.0,0.0,0.0,0.0,0.0,0.0,0.0,0.0,0.0,0.0,0.0,0.0,0.0,0.0,0.0,0.0,0.0,0.0,0.0,0.0,0.0,0.0,0.0,0.0,0.0,0.0,0.0,0.0,0.0,0.0,0.0,0.0,0.0,0.0,0.0,0.0,0.0,0.0,0.0,0.0,0.0,0.0,0.0,0.0,0.0,0.0,0.0,0.0,0.0,0.0,0.0,0.0,0.0,0.0,3.9876,0.0,0.0,0.0,0.0,0.0,0.0,0.0,0.0,0.0,0.0,0.0,0.0,0.0,0.0,0.0,0.0,0.0,0.0,0.0,0.0,0.0,0.0,0.0,0.0,0.0,0.0,0.0,0.0,0.0,0.0,0.0,0.0,0.0,0.0,0.0,0.0,0.0,0.0,0.0,0.0,0.0,0.0,0.0,0.0,0.0,0.0,0.0,0.0,0.0,0.0,0.0,0.0,0.0,0.0,0.0,0.0,0.0,0.0,0.0,0.0,0.0,0.0,0.0,0.0,0.0,0.0,0.0,0.0,0.0,0.0,0.0,0.0,0.0,0.0,0.0,0.0,0.0,0.0,0.0,0.0,0.0,0.0,0.0,0.0,0.0,0.0,0.0,0.0,0.0,0.0,0.0,0.0,0.0,0.0,0.0,0.0,0.0,0.0,0.0,0.0,0.0,0.0,0.0,0.0,0.0,0.0,0.0,0.0,0.0,0.0,3.704,3.7627,3.8161,3.8718,3.9407,0.0,0.0,0.0,0.0,0.0,0.0,0.0,0.0,0.0,0.0,0.0,0.0,0.0,0.0,0.0,0.0,0.0,0.0,0.0,0.0,0.0,0.0,0.0,0.0,0.0,0.0,0.0,0.0,0.0,0.0,0.0,0.0,0.0,0.0,0.0,0.0,0.0,0.0,0.0,0.0,0.0,0.0,0.0,0.0,0.0,0.0,0.0,0.0,0.0,0.0,0.0,0.0,0.0,0.0,0.0,0.0,0.0,0.0,0.0,0.0,0.0,0.0,0.0,0.0,0.0,0.0,0.0,0.0,0.0,0.0,0.0,0.0,0.0,0.0,0.0,0.0,0.0,0.0,0.0,0.0,0.0,0.0,0.0,0.0,0.0,0.0,0.0,0.0,0.0,0.0,0.0,0.0,0.0,0.0,0.0,0.0,0.0,0.0,0.0,0.0,0.0,0.0,0.0,0.0,0.0,0.0,0.0,0.0,0.0,0.0,0.0,0.0,3.8529,3.9253,3.9428,0.0,0.0,0.0,0.0,0.0,0.0,0.0,0.0,0.0,0.0,0.0,0.0,0.0,0.0,0.0,0.0,0.0,0.0,0.0,0.0,0.0,0.0,0.0,0.0,0.0,0.0,0.0,0.0,0.0,0.0,0.0,0.0,0.0,0.0,0.0,0.0,0.0,0.0,0.0,0.0,0.0,0.0,0.0,0.0,0.0,0.0,0.0,0.0,0.0,0.0,0.0,0.0,0.0,0.0,0.0,0.0,0.0,0.0,0.0,0.0,0.0,0.0,0.0,0.0,0.0,0.0,0.0,0.0,0.0,0.0,0.0,0.0,0.0,0.0,0.0,0.0,0.0,0.0,0.0,0.0,0.0,0.0,0.0,0.0,0.0,0.0,0.0,0.0,0.0,0.0,0.0,0.0,0.0,0.0,0.0,0.0,0.0,0.0,0.0,0.0,0.0,0.0,0.0,0.0,0.0,0.0,0.0,0.0,0.0,0.0,3.7636,3.9523,3.9827,0.0,4.0993,0.0,0.0,0.0,0.0,0.0,0.0,0.0,0.0,0.0,0.0,0.0,0.0,0.0,0.0,0.0,0.0,0.0,0.0,0.0,0.0,0.0,0.0,0.0,0.0,0.0,0.0,0.0,0.0,0.0,0.0,0.0,0.0,0.0,0.0,0.0,0.0,0.0,0.0,0.0,0.0,0.0,0.0,0.0,0.0,0.0,0.0,0.0,0.0,0.0,0.0,0.0,0.0,0.0,0.0,0.0,0.0,0.0,0.0,0.0,0.0,0.0,0.0,0.0,0.0,0.0,0.0,0.0,0.0,0.0,0.0,0.0,0.0,0.0,0.0,0.0,0.0,0.0,0.0,0.0,0.0,0.0,0.0,0.0,0.0,0.0,0.0,0.0,0.0,0.0,0.0,0.0,0.0,0.0,0.0,0.0,0.0,0.0,0.0,0.0,0.0,0.0,0.0,0.0,0.0,0.0,0.0,0.0,0.0,0.0,0.0,3.7904,3.7956,3.8879,3.9704,0.0,0.0,0.0,0.0,0.0,0.0,0.0,0.0,0.0,0.0,0.0,0.0,0.0,0.0,0.0,0.0,0.0,0.0,0.0,0.0,0.0,0.0,0.0,0.0,0.0,0.0,0.0,0.0,0.0,0.0,0.0,0.0,0.0,0.0,0.0,0.0,0.0,0.0,0.0,0.0,0.0,0.0,0.0,0.0,0.0,0.0,0.0,0.0,0.0,0.0,0.0,0.0,0.0,0.0,0.0,0.0,0.0,0.0,0.0,0.0,0.0,0.0,0.0,0.0,0.0,0.0,0.0,0.0,0.0,0.0,0.0,0.0,0.0,0.0,0.0,0.0,0.0,0.0,0.0,0.0,0.0,0.0,0.0,0.0,0.0,0.0,0.0,0.0,0.0,0.0,0.0,0.0,0.0,0.0,0.0,0.0,0.0,0.0,0.0,0.0,0.0,0.0,0.0,0.0,0.0,0.0,0.0,0.0,0.0,0.0,3.7836,3.7877,3.7353,3.8746,3.9666,3.9953,0.0,0.0,0.0,0.0,0.0,0.0,0.0,0.0,0.0,0.0,0.0,0.0,0.0,0.0,0.0,0.0,0.0,0.0,0.0,0.0,0.0,0.0,0.0,0.0,0.0,0.0,0.0,0.0,0.0,0.0,0.0,0.0,0.0,0.0,0.0,0.0,0.0,0.0,0.0,0.0,0.0,0.0,0.0,0.0,0.0,0.0,0.0,0.0,0.0,0.0,0.0,0.0,0.0,0.0,0.0,0.0,0.0,0.0,0.0,0.0,0.0,0.0,0.0,0.0,0.0,0.0,0.0,0.0,0.0,0.0,0.0,0.0,0.0,0.0,0.0,0.0,0.0,0.0,0.0,0.0,0.0,0.0,0.0,0.0,0.0,0.0,0.0,0.0,0.0,0.0,0.0,0.0,0.0,0.0,0.0,0.0,0.0,0.0,0.0,0.0,0.0,0.0,0.0,0.0,0.0,0.0,0.0,0.0,3.833,3.7297,3.7369,3.8707,4.0279,4.0776,0.0,0.0,0.0,0.0,0.0,0.0,0.0,0.0,0.0,0.0,0.0,0.0,0.0,0.0,0.0,0.0,0.0,0.0,0.0,0.0,0.0,0.0,0.0,0.0,0.0,0.0,0.0,0.0,0.0,0.0,0.0,0.0,0.0,0.0,0.0,0.0,0.0,0.0,0.0,0.0,0.0,0.0,0.0,0.0,0.0,0.0,0.0,0.0,0.0,0.0,0.0,0.0,0.0,0.0,0.0,0.0,0.0,0.0,0.0,0.0,0.0,0.0,0.0,0.0,0.0,0.0,0.0,0.0,0.0,0.0,0.0,0.0,0.0,0.0,0.0,0.0,0.0,0.0,0.0,0.0,0.0,0.0,0.0,0.0,0.0,0.0,0.0,0.0,0.0,0.0,0.0,0.0,0.0,0.0,0.0,0.0,0.0,0.0,0.0,0.0,0.0,0.0,0.0,0.0,0.0,0.0,0.0,0.0,0.0,3.6611,3.6152,3.6555,3.7873,3.8655,3.9077,0.0,0.0,0.0,0.0,0.0,0.0,0.0,0.0,0.0,0.0,0.0,0.0,0.0,0.0,0.0,0.0,0.0,0.0,0.0,0.0,0.0,0.0,0.0,0.0,0.0,0.0,0.0,0.0,0.0,0.0,0.0,0.0,0.0,0.0,0.0,0.0,0.0,0.0,0.0,0.0,0.0,0.0,0.0,0.0,0.0,0.0,0.0,0.0,0.0,0.0,0.0,0.0,0.0,0.0,0.0,0.0,0.0,0.0,0.0,0.0,0.0,0.0,0.0,0.0,0.0,0.0,0.0,0.0,0.0,0.0,0.0,0.0,0.0,0.0,0.0,0.0,0.0,0.0,0.0,0.0,0.0,0.0,0.0,0.0,0.0,0.0,0.0,0.0,0.0,0.0,0.0,0.0,0.0,0.0,0.0,0.0,0.0,0.0,0.0,0.0,0.0,0.0,0.0,0.0,0.0,0.0,0.0,0.0,0.0,3.6293,0.0,3.7125,3.7488,3.8395,3.8789,0.0,0.0,0.0,0.0,0.0,0.0,0.0,0.0,0.0,0.0,0.0,0.0,0.0,0.0,0.0,0.0,0.0,0.0,0.0,0.0,0.0,0.0,0.0,0.0,0.0,0.0,0.0,0.0,0.0,0.0,0.0,0.0,0.0,0.0,0.0,0.0,0.0,0.0,0.0,0.0,0.0,0.0,0.0,0.0,0.0,0.0,0.0,0.0,0.0,0.0,0.0,0.0,0.0,0.0,0.0,0.0,0.0,0.0,0.0,0.0,0.0,0.0,0.0,0.0,0.0,0.0,0.0,0.0,0.0,0.0,0.0,0.0,0.0,0.0,0.0,0.0,0.0,0.0,0.0,0.0,0.0,0.0,0.0,0.0,0.0,0.0,0.0,0.0,0.0,0.0,0.0,0.0,0.0,0.0,0.0,0.0,0.0,0.0,0.0,0.0,0.0,0.0,0.0,0.0,0.0,0.0,0.0,0.0,3.7018,3.7701,3.9059,3.9122,3.7841,3.9921,4.0079,0.0,0.0,0.0,0.0,0.0,0.0,0.0,0.0,0.0,0.0,0.0,0.0,0.0,0.0,0.0,0.0,0.0,0.0,0.0,0.0,0.0,0.0,0.0,0.0,0.0,0.0,0.0,0.0,0.0,0.0,0.0,0.0,0.0,0.0,0.0,0.0,0.0,0.0,0.0,0.0,0.0,0.0,0.0,0.0,0.0,0.0,0.0,0.0,0.0,0.0,0.0,0.0,0.0,0.0,0.0,0.0,0.0,0.0,0.0,0.0,0.0,0.0,0.0,0.0,0.0,0.0,0.0,0.0,0.0,0.0,0.0,0.0,0.0,0.0,0.0,0.0,0.0,0.0,0.0,0.0,0.0,0.0,0.0,0.0,0.0,0.0,0.0,0.0,0.0,0.0,0.0,0.0,0.0,0.0,0.0,0.0,0.0,0.0,0.0,0.0,0.0,0.0,0.0,0.0,0.0,0.0,0.0,0.0,0.0,3.7701,3.9167,3.9975,4.0012,4.0289,4.0593,0.0,0.0,0.0,0.0,0.0,0.0,0.0,0.0,0.0,0.0,0.0,0.0,0.0,0.0,0.0,0.0,0.0,0.0,0.0,0.0,0.0,0.0,0.0,0.0,0.0,0.0,0.0,0.0,0.0,0.0,0.0,0.0,0.0,0.0,0.0,0.0,0.0,0.0,0.0,0.0,0.0,0.0,0.0,0.0,0.0,0.0,0.0,0.0,0.0,0.0,0.0,0.0,0.0,0.0,0.0,0.0,0.0,0.0,0.0,0.0,0.0,0.0,0.0,0.0,0.0,0.0,0.0,0.0,0.0,0.0,0.0,0.0,0.0,0.0,0.0,0.0,0.0,0.0,0.0,0.0,0.0,0.0,0.0,0.0,0.0,0.0,0.0,0.0,0.0,0.0,0.0,0.0,0.0,0.0,0.0,0.0,0.0,0.0,0.0,0.0,0.0,0.0,0.0,0.0,0.0,0.0,0.0,0.0,0.0,4.064,4.1412,4.1971,4.2088,4.1749,4.1626,4.1857,0.0,0.0,0.0,0.0,0.0,0.0,0.0,0.0,0.0,0.0,0.0,0.0,0.0,0.0,0.0,0.0,0.0,0.0,0.0,0.0,0.0,0.0,0.0,0.0,0.0,0.0,0.0,0.0,0.0,0.0,0.0,0.0,0.0,0.0,0.0,0.0,0.0,0.0,0.0,0.0,0.0,0.0,0.0,0.0,0.0,0.0,0.0,0.0,0.0,0.0,0.0,0.0,0.0,0.0,0.0,0.0,0.0,0.0,0.0,0.0,0.0,0.0,0.0,0.0,0.0,0.0,0.0,0.0,0.0,0.0,0.0,0.0,0.0,0.0,0.0,0.0,0.0,0.0,0.0,0.0,0.0,0.0,0.0,0.0,0.0,0.0,0.0,0.0,0.0,0.0,0.0,0.0,0.0,0.0,0.0,0.0,0.0,0.0,0.0,0.0,0.0,0.0,0.0,0.0,0.0,0.0,0.0,0.0,4.5853,4.5672,4.5213,4.4362,4.4284,4.3375,0.0,0.0,0.0,0.0,0.0,0.0,0.0,0.0,0.0,0.0,0.0,0.0,0.0,0.0,0.0,0.0,0.0,0.0,0.0,0.0,0.0,0.0,0.0,0.0,0.0,0.0,0.0,0.0,0.0,0.0,0.0,0.0,0.0,0.0,0.0,0.0,0.0,0.0,0.0,0.0,0.0,0.0,0.0,0.0,0.0,0.0,0.0,0.0,0.0,0.0,0.0,0.0,0.0,0.0,0.0,0.0,0.0,0.0,0.0,0.0,0.0,0.0,0.0,0.0,0.0,0.0,0.0,0.0,0.0,0.0,0.0,0.0,0.0,0.0,0.0,0.0,0.0,0.0,0.0,0.0,0.0,0.0,0.0,0.0,0.0,0.0,0.0,0.0,0.0,0.0,0.0,0.0,0.0,0.0,0.0,0.0,0.0,0.0,0.0,0.0,0.0,0.0,0.0,0.0,0.0,0.0,0.0,0.0,0.0,5.0058,5.1144,5.0893,4.9272,4.77,4.6406,0.0,0.0,0.0,0.0,0.0,0.0,0.0,0.0,0.0,0.0,0.0,0.0,0.0,0.0,0.0,0.0,0.0,0.0,0.0,0.0,0.0,0.0,0.0,0.0,0.0,0.0,0.0,0.0,0.0,0.0,0.0,0.0,0.0,0.0,0.0,0.0,0.0,0.0,0.0,0.0,0.0,0.0,0.0,0.0,0.0,0.0,0.0,0.0,0.0,0.0,0.0,0.0,0.0,0.0,0.0,0.0,0.0,0.0,0.0,0.0,0.0,0.0,0.0,0.0,0.0,0.0,0.0,0.0,0.0,0.0,0.0,0.0,0.0,0.0,0.0,0.0,0.0,0.0,0.0,0.0,0.0,0.0,0.0,0.0,0.0,0.0,0.0,0.0,0.0,0.0,0.0,0.0,0.0,0.0,0.0,0.0,0.0,0.0,0.0,0.0,0.0,0.0,0.0,0.0,0.0,0.0,0.0,0.0,4.9955,5.2943,5.5651,5.6383,5.4922,5.1715,4.9117,0.0,0.0,0.0,0.0,0.0,0.0,0.0,0.0,0.0,0.0,0.0,0.0,0.0,0.0,0.0,0.0,0.0,0.0,0.0,0.0,0.0,0.0,0.0,0.0,0.0,0.0,0.0,0.0,0.0,0.0,0.0,0.0,0.0,0.0,0.0,0.0,0.0,0.0,0.0,0.0,0.0,0.0,0.0,0.0,0.0,0.0,0.0,0.0,0.0,0.0,0.0,0.0,0.0,0.0,0.0,0.0,0.0,0.0,0.0,0.0,0.0,0.0,0.0,0.0,0.0,0.0,0.0,0.0,0.0,0.0,0.0,0.0,0.0,0.0,0.0,0.0,0.0,0.0,0.0,0.0,0.0,0.0,0.0,0.0,0.0,0.0,0.0,0.0,0.0,0.0,0.0,0.0,0.0,0.0,0.0,0.0,0.0,0.0,0.0,0.0,0.0,0.0,0.0,0.0,0.0,0.0,0.0,0.0,5.2445,5.5259,5.9302,6.1095,6.0351,5.5734,5.1648,0.0,0.0,0.0,0.0,0.0,0.0,0.0,0.0,0.0,0.0,0.0,0.0,0.0,0.0,0.0,0.0,0.0,0.0,0.0,0.0,0.0,0.0,0.0,0.0,0.0,0.0,0.0,0.0,0.0,0.0,0.0,0.0,0.0,0.0,0.0,0.0,0.0,0.0,0.0,0.0,0.0,0.0,0.0,0.0,0.0,0.0,0.0,0.0,0.0,0.0,0.0,0.0,0.0,0.0,0.0,0.0,0.0,0.0,0.0,0.0,0.0,0.0,0.0,0.0,0.0,0.0,0.0,0.0,0.0,0.0,0.0,0.0,0.0,0.0,0.0,0.0,0.0,0.0,0.0,0.0,0.0,0.0,0.0,0.0,0.0,0.0,0.0,0.0,0.0,0.0,0.0,0.0,0.0,0.0,0.0,0.0,0.0,0.0,0.0,0.0,0.0,0.0,0.0,0.0,0.0,0.0,0.0,0.0,5.4562,5.9723,6.1366,6.2347,6.2753,5.779,5.3652,0.0,0.0,0.0,0.0,0.0,0.0,0.0,0.0,0.0,0.0,0.0,0.0,0.0,0.0,0.0,0.0,0.0,0.0,0.0,0.0,0.0,0.0,0.0,0.0,0.0,0.0,0.0,0.0,0.0,0.0,0.0,0.0,0.0,0.0,0.0,0.0,0.0,0.0,0.0,0.0,0.0,0.0,0.0,0.0,0.0,0.0,0.0,0.0,4.5279,0.0,0.0,0.0,0.0,0.0,0.0,0.0,0.0,0.0,0.0,0.0,0.0,0.0,0.0,0.0,0.0,0.0,0.0,0.0,0.0,0.0,0.0,0.0,0.0,0.0,0.0,0.0,0.0,0.0,0.0,0.0,0.0,0.0,0.0,0.0,0.0,0.0,0.0,0.0,0.0,0.0,0.0,0.0,0.0,0.0,0.0,0.0,0.0,0.0,0.0,0.0,0.0,0.0,0.0,0.0,0.0,0.0,0.0,0.0,5.5953,6.1129,6.3024,6.3971,6.3869,5.9926,5.6037,0.0,0.0,0.0,0.0,0.0,0.0,0.0,0.0,0.0,0.0,0.0,0.0,0.0,0.0,0.0,0.0,0.0,0.0,0.0,0.0,0.0,0.0,0.0,0.0,0.0,0.0,0.0,0.0,0.0,0.0,0.0,0.0,0.0,0.0,0.0,0.0,0.0,0.0,0.0,0.0,0.0,0.0,0.0,0.0,0.0,0.0,0.0,0.0,0.0,0.0,0.0,0.0,0.0,0.0,0.0,0.0,0.0,0.0,0.0,0.0,0.0,0.0,0.0,0.0,0.0,0.0,0.0,0.0,0.0,0.0,0.0,0.0,0.0,0.0,0.0,0.0,0.0,0.0,0.0,0.0,0.0,0.0,0.0,0.0,0.0,0.0,0.0,0.0,0.0,0.0,0.0,0.0,0.0,0.0,0.0,0.0,0.0,0.0,0.0,0.0,0.0,0.0,0.0,0.0,0.0,0.0,0.0,5.3298,5.702,6.1806,6.441,6.5392,6.4749,6.1839,5.8321,5.4194,0.0,0.0,0.0,0.0,0.0,0.0,0.0,0.0,0.0,0.0,0.0,0.0,0.0,0.0,0.0,0.0,0.0,0.0,0.0,0.0,0.0,0.0,0.0,0.0,0.0,0.0,0.0,0.0,0.0,0.0,0.0,0.0,0.0,0.0,0.0,0.0,0.0,0.0,3.926,4.1773,0.0,0.0,0.0,0.0,0.0,0.0,0.0,0.0,4.7139,0.0,0.0,0.0,0.0,0.0,0.0,0.0,0.0,0.0,0.0,0.0,0.0,0.0,0.0,0.0,0.0,0.0,0.0,0.0,0.0,0.0,0.0,0.0,0.0,0.0,0.0,0.0,0.0,0.0,0.0,0.0,0.0,0.0,0.0,0.0,0.0,0.0,0.0,0.0,0.0,0.0,0.0,0.0,0.0,0.0,0.0,0.0,0.0,0.0,0.0,0.0,0.0,0.0,0.0,0.0,0.0,5.3754,5.438,5.7967,6.4749,6.5446,6.5649,6.5425,6.2651,5.9573,5.6292,0.0,0.0,0.0,0.0,0.0,0.0,0.0,0.0,0.0,0.0,0.0,0.0,0.0,0.0,0.0,0.0,0.0,0.0,0.0,0.0,0.0,0.0,0.0,0.0,0.0,0.0,0.0,0.0,0.0,0.0,0.0,0.0,0.0,0.0,0.0,0.0,0.0,0.0,0.0,4.41,4.576,0.0,0.0,0.0,0.0,0.0,0.0,0.0,0.0,4.9086,0.0,0.0,0.0,0.0,0.0,0.0,0.0,0.0,0.0,0.0,0.0,0.0,0.0,0.0,0.0,0.0,0.0,0.0,0.0,0.0,0.0,0.0,0.0,0.0,0.0,0.0,0.0,0.0,0.0,0.0,0.0,0.0,0.0,0.0,0.0,0.0,0.0,0.0,0.0,0.0,0.0,0.0,0.0,0.0,0.0,0.0,0.0,0.0,0.0,0.0,0.0,0.0,0.0,0.0,0.0,5.4871,5.6292,5.9945,6.6,6.6271,6.5899,6.5087,6.2245,5.9302,0.0,0.0,0.0,0.0,0.0,0.0,0.0,0.0,0.0,0.0,0.0,0.0,0.0,0.0,0.0,0.0,0.0,0.0,0.0,0.0,0.0,0.0,0.0,0.0,0.0,0.0,0.0,0.0,0.0,0.0,0.0,0.0,0.0,0.0,0.0,0.0,0.0,0.0,0.0,0.0,4.5466,4.7136,4.8205,0.0,0.0,0.0,0.0,0.0,0.0,4.9898,5.0491,0.0,0.0,0.0,0.0,0.0,0.0,0.0,0.0,0.0,0.0,0.0,0.0,0.0,0.0,0.0,0.0,0.0,0.0,0.0,0.0,0.0,0.0,0.0,0.0,0.0,0.0,0.0,0.0,0.0,0.0,0.0,0.0,0.0,0.0,0.0,0.0,0.0,0.0,0.0,0.0,0.0,0.0,0.0,0.0,0.0,0.0,0.0,0.0,0.0,0.0,0.0,0.0,0.0,0.0,0.0,5.553,5.8051,6.1685,6.6521,6.6791,6.617,6.4816,6.1772,5.8795,0.0,0.0,0.0,0.0,0.0,0.0,0.0,0.0,0.0,0.0,0.0,0.0,0.0,0.0,0.0,0.0,0.0,0.0,0.0,0.0,0.0,0.0,0.0,0.0,0.0,0.0,0.0,0.0,0.0,0.0,0.0,0.0,0.0,0.0,0.0,0.0,0.0,0.0,0.0,0.0,0.0,4.8679,4.941,5.0121,0.0,0.0,0.0,0.0,5.0929,5.186,0.0,0.0,0.0,0.0,0.0,0.0,0.0,0.0,0.0,0.0,0.0,0.0,0.0,0.0,0.0,0.0,0.0,0.0,0.0,0.0,0.0,0.0,0.0,0.0,0.0,0.0,0.0,0.0,0.0,0.0,0.0,0.0,0.0,0.0,0.0,0.0,0.0,0.0,0.0,0.0,0.0,0.0,0.0,0.0,0.0,0.0,0.0,0.0,0.0,0.0,0.0,0.0,0.0,0.0,0.0,0.0,5.5597,5.8524,6.2212,6.6521,6.6791,6.6406,6.5547,6.2009,5.9032,0.0,0.0,0.0,0.0,0.0,0.0,0.0,0.0,0.0,0.0,0.0,0.0,0.0,0.0,0.0,0.0,0.0,0.0,0.0,0.0,0.0,0.0,0.0,0.0,0.0,0.0,0.0,0.0,0.0,0.0,0.0,0.0,0.0,0.0,0.0,0.0,0.0,0.0,0.0,0.0,0.0,5.1038,5.1796,5.198,5.1709,0.0,0.0,5.3247,5.3957,5.5784,0.0,0.0,0.0,0.0,0.0,0.0,0.0,0.0,0.0,0.0,0.0,0.0,0.0,0.0,0.0,0.0,0.0,0.0,0.0,0.0,0.0,0.0,0.0,0.0,0.0,0.0,0.0,0.0,0.0,0.0,0.0,0.0,0.0,0.0,0.0,0.0,0.0,0.0,0.0,0.0,0.0,0.0,0.0,0.0,0.0,0.0,0.0,0.0,0.0,0.0,0.0,0.0,0.0,0.0,0.0,5.2469,5.5699,5.9859,6.3193,6.5459,6.5967,6.5628,6.4478,6.0825,5.8017,0.0,0.0,0.0,0.0,0.0,0.0,0.0,0.0,0.0,0.0,0.0,0.0,0.0,0.0,0.0,0.0,0.0,0.0,0.0,0.0,0.0,0.0,0.0,0.0,0.0,0.0,0.0,0.0,0.0,0.0,0.0,0.0,0.0,0.0,0.0,0.0,0.0,0.0,0.0,0.0,0.0,0.0,5.2134,5.3044,0.0,0.0,0.0,5.5344,5.5243,0.0,0.0,0.0,0.0,0.0,0.0,0.0,0.0,0.0,0.0,0.0,0.0,0.0,0.0,0.0,0.0,0.0,0.0,0.0,0.0,0.0,0.0,0.0,0.0,0.0,0.0,0.0,0.0,0.0,0.0,0.0,0.0,0.0,0.0,0.0,0.0,0.0,0.0,0.0,0.0,0.0,0.0,0.0,0.0,0.0,0.0,0.0,0.0,0.0,0.0,0.0,0.0,0.0,0.0,0.0,0.0,0.0,5.6003,6.111,6.414,6.485,6.5412,6.4986,6.3511,6.0216,0.0,0.0,0.0,0.0,0.0,0.0,0.0,0.0,0.0,0.0,0.0,0.0,0.0,0.0,0.0,0.0,0.0,0.0,0.0,0.0,0.0,0.0,0.0,0.0,0.0,0.0,0.0,4.1233,0.0,0.0,0.0,0.0,0.0,0.0,0.0,0.0,0.0,0.0,0.0,0.0,0.0,0.0,5.1607,5.2977,5.4296,5.5074,0.0,0.0,5.6799,5.6815,5.8675,5.9419,0.0,0.0,0.0,0.0,0.0,0.0,0.0,0.0,0.0,0.0,0.0,0.0,0.0,0.0,0.0,0.0,0.0,0.0,0.0,0.0,0.0,0.0,0.0,0.0,0.0,0.0,0.0,0.0,0.0,0.0,0.0,0.0,0.0,0.0,0.0,0.0,0.0,0.0,0.0,0.0,0.0,0.0,0.0,0.0,0.0,0.0,0.0,0.0,0.0,0.0,0.0,0.0,0.0,0.0,0.0,5.6833,6.1873,6.485,6.5561,6.5683,6.4986,6.3511,6.1197,5.893,0.0,0.0,0.0,0.0,0.0,0.0,0.0,0.0,0.0,0.0,0.0,0.0,0.0,0.0,0.0,0.0,0.0,0.0,0.0,0.0,0.0,0.0,0.0,0.0,0.0,0.0,0.0,0.0,0.0,0.0,0.0,0.0,0.0,0.0,0.0,0.0,0.0,0.0,0.0,0.0,0.0,5.5339,5.5462,5.6156,5.7103,0.0,0.0,5.7509,5.9471,6.1685,6.1975,5.8407,0.0,0.0,0.0,0.0,0.0,0.0,0.0,0.0,0.0,0.0,0.0,0.0,0.0,0.0,0.0,0.0,0.0,0.0,0.0,0.0,0.0,0.0,0.0,0.0,0.0,0.0,0.0,0.0,0.0,0.0,0.0,0.0,0.0,0.0,0.0,0.0,0.0,0.0,0.0,0.0,0.0,0.0,0.0,0.0,0.0,0.0,0.0,0.0,0.0,0.0,0.0,0.0,0.0,5.531,5.6833,6.1941,6.4512,6.4377,6.4783,6.4309,6.2854,6.1061,5.9066,0.0,0.0,0.0,0.0,0.0,0.0,0.0,0.0,0.0,0.0,0.0,0.0,0.0,0.0,0.0,0.0,0.0,0.0,0.0,0.0,0.0,0.0,0.0,0.0,0.0,0.0,0.0,0.0,4.6012,4.6668,4.747,0.0,0.0,0.0,0.0,0.0,0.0,0.0,0.0,0.0,0.0,5.5229,5.6236,5.7002,0.0,0.0,5.8201,5.8438,5.9284,6.0182,6.0114,5.8204,5.7002,0.0,0.0,0.0,0.0,0.0,0.0,0.0,0.0,0.0,0.0,0.0,0.0,0.0,0.0,0.0,0.0,0.0,0.0,0.0,0.0,0.0,0.0,0.0,0.0,0.0,0.0,0.0,0.0,0.0,0.0,0.0,0.0,0.0,0.0,0.0,0.0,0.0,0.0,0.0,0.0,0.0,0.0,0.0,0.0,0.0,0.0,0.0,0.0,0.0,0.0,0.0,0.0,5.575,5.7457,6.2178,6.4377,6.3815,6.4546,6.4106,6.2448,6.1332,5.9742,0.0,0.0,0.0,0.0,0.0,0.0,0.0,0.0,0.0,0.0,0.0,0.0,0.0,0.0,0.0,0.0,0.0,0.0,0.0,0.0,0.0,0.0,0.0,0.0,0.0,0.0,0.0,0.0,4.7813,4.8404,4.9227,0.0,0.0,0.0,0.0,0.0,0.0,0.0,0.0,0.0,0.0,5.5457,5.6642,5.7239,5.7645,5.7866,5.7949,5.8168,5.8607,5.8693,5.8423,5.7679,0.0,0.0,0.0,0.0,0.0,0.0,0.0,0.0,0.0,0.0,0.0,0.0,0.0,0.0,0.0,0.0,0.0,0.0,0.0,0.0,0.0,0.0,0.0,0.0,0.0,0.0,0.0,0.0,0.0,0.0,4.4293,0.0,0.0,0.0,0.0,0.0,0.0,0.0,0.0,0.0,0.0,0.0,0.0,0.0,0.0,0.0,0.0,0.0,0.0,0.0,0.0,0.0,0.0,5.6747,5.8945,6.2685,6.458,6.4613,6.529,6.4634,6.2536,6.2381,6.1298,5.8979,0.0,0.0,0.0,0.0,0.0,0.0,0.0,0.0,0.0,0.0,0.0,0.0,0.0,0.0,0.0,0.0,0.0,0.0,0.0,0.0,0.0,0.0,0.0,0.0,0.0,0.0,4.7045,4.8142,4.9292,0.0,0.0,0.0,0.0,0.0,0.0,0.0,0.0,0.0,0.0,5.5361,5.6747,5.6799,5.6833,5.7103,5.7814,5.6731,5.6274,5.7712,5.7934,5.7663,0.0,0.0,0.0,0.0,0.0,0.0,0.0,0.0,0.0,0.0,0.0,0.0,0.0,0.0,0.0,0.0,0.0,0.0,0.0,0.0,0.0,0.0,0.0,0.0,0.0,0.0,0.0,4.8138,4.796,0.0,0.0,0.0,0.0,0.0,0.0,0.0,0.0,0.0,0.0,0.0,5.5277,5.5056,0.0,0.0,0.0,0.0,0.0,0.0,0.0,0.0,0.0,0.0,0.0,0.0,5.7525,5.9776,6.2922,6.5087,6.6013,6.5797,6.5087,6.3923,6.3869,6.255,5.981,0.0,0.0,0.0,0.0,0.0,0.0,0.0,0.0,0.0,0.0,0.0,0.0,0.0,0.0,0.0,0.0,0.0,0.0,0.0,0.0,0.0,0.0,0.0,0.0,0.0,5.0017,0.0,0.0,0.0,0.0,0.0,0.0,0.0,0.0,0.0,0.0,0.0,5.3382,5.4126,5.531,5.624,5.6731,5.6799,5.7239,0.0,0.0,0.0,0.0,0.0,0.0,0.0,0.0,0.0,0.0,0.0,0.0,0.0,0.0,5.7273,5.5327,5.575,5.6427,5.6427,0.0,0.0,0.0,0.0,0.0,0.0,0.0,0.0,0.0,0.0,0.0,0.0,0.0,0.0,5.1891,0.0,5.1883,0.0,0.0,0.0,0.0,0.0,0.0,0.0,0.0,5.6528,5.7848,5.8761,5.8795,5.8761,0.0,5.7205,5.5615,0.0,0.0,0.0,0.0,0.0,0.0,0.0,0.0,5.8287,6.052,6.3463,6.5561,6.669,6.6339,6.5595,6.4613,6.4106,6.2922,6.096,5.8287,5.6274,0.0,0.0,0.0,0.0,0.0,0.0,0.0,0.0,0.0,0.0,0.0,0.0,0.0,0.0,0.0,0.0,0.0,0.0,0.0,0.0,0.0,0.0,0.0,5.1674,0.0,0.0,0.0,0.0,0.0,0.0,0.0,0.0,0.0,5.2773,5.3619,5.4532,5.5277,5.5784,5.6172,5.6393,0.0,0.0,0.0,0.0,0.0,0.0,0.0,5.6916,5.7187,5.8084,5.9167,6.0366,6.0757,6.0892,6.0892,0.0,0.0,5.7728,5.8017,5.866,5.866,5.9268,5.981,5.9791,6.0588,6.1279,0.0,0.0,0.0,0.0,0.0,0.0,0.0,0.0,5.4488,5.6003,0.0,5.4177,0.0,0.0,0.0,0.0,0.0,5.5547,0.0,0.0,6.2144,6.3835,6.2739,6.3937,6.3903,6.2516,6.0994,5.9911,5.9047,5.5649,0.0,0.0,0.0,0.0,0.0,0.0,5.9099,6.1467,6.4343,6.6136,6.6893,6.6859,6.617,6.4749,6.3294,6.2536,6.2347,6.0283,5.8727,5.7934,5.5852,0.0,0.0,0.0,0.0,0.0,0.0,0.0,0.0,0.0,0.0,0.0,0.0,0.0,0.0,0.0,0.0,0.0,0.0,0.0,0.0,5.1945,0.0,0.0,0.0,0.0,0.0,0.0,0.0,0.0,0.0,0.0,5.3653,5.482,5.5969,5.6664,0.0,0.0,0.0,0.0,5.663,5.6071,5.6494,5.7239,5.8035,5.8693,5.9385,6.008,0.0,0.0,6.3511,6.1907,6.1095,6.2347,6.3328,6.3004,6.0926,6.0554,6.0486,6.052,6.1231,6.1603,6.1704,6.3125,6.3951,5.9936,0.0,0.0,0.0,0.0,5.7353,5.8843,6.0544,6.029,6.0216,6.0182,5.8051,0.0,0.0,0.0,0.0,0.0,0.0,6.0047,6.1651,6.37,6.5189,6.6305,6.6237,6.6237,6.6271,6.4783,6.3971,6.37,6.2178,5.9167,5.4786,0.0,0.0,0.0,0.0,6.1095,6.4309,6.6305,6.7895,6.9214,6.8166,6.7151,6.6203,6.5256,6.4275,6.3226,6.2042,6.0588,5.8761,5.7577,0.0,0.0,0.0,0.0,0.0,0.0,0.0,0.0,0.0,0.0,0.0,0.0,0.0,0.0,0.0,0.0,0.0,0.0,0.0,5.279,5.3974,5.4143,0.0,0.0,0.0,0.0,0.0,0.0,0.0,0.0,0.0,5.5784,5.5733,5.5969,0.0,0.0,5.6139,5.6461,5.7103,5.8084,5.9453,5.9877,0.0,6.1704,6.2057,6.226,6.2496,6.4647,6.6406,6.6609,6.7015,6.7252,6.7218,6.7793,6.8052,6.7387,6.5967,6.5155,6.5561,6.6305,6.7049,6.7557,6.8436,6.9023,6.7421,6.2415,6.096,6.0825,6.1738,6.2448,6.37,6.5202,6.4783,6.4816,6.5087,6.2415,6.096,6.0467,5.9471,0.0,0.0,0.0,6.3362,6.5324,6.6643,6.8132,6.962,6.9519,6.9519,6.962,6.847,6.776,6.7476,6.5831,6.3226,5.9708,0.0,0.0,5.8626,6.0791,6.3294,6.6068,6.7624,6.8944,7.015,6.8728,6.7557,6.6791,6.6102,6.5256,6.441,6.3666,6.2381,6.0452,5.9641,5.822,0.0,0.0,0.0,0.0,0.0,0.0,0.0,0.0,0.0,0.0,0.0,5.1251,5.0405,0.0,0.0,0.0,5.2807,5.3518,5.4296,5.4921,0.0,0.0,0.0,0.0,0.0,0.0,0.0,5.4228,5.5547,5.6968,5.7949,5.7476,5.7288,5.8017,5.7476,5.7306,5.8017,0.0,5.9945,6.1907,6.2415,6.3125,6.4559,6.5324,6.6,6.6914,6.8178,6.9485,7.006,7.0466,7.0669,7.0838,7.121,7.1582,7.1887,7.1007,6.9992,6.9417,6.9857,7.0534,7.1007,7.1887,7.2608,7.3758,7.1627,6.8132,6.6474,6.6224,6.6927,6.7726,6.8436,6.8368,6.9485,7.1041,6.6914,6.6136,6.776,6.4397,0.0,6.3145,6.5189,6.688,6.8335,7.05,7.1853,7.2496,7.3138,7.3161,7.2462,7.1819,7.1109,7.0353,6.7679,6.6258,6.6068,6.4106,6.2584,6.1738,6.3632,6.5459,6.6981,6.8436,6.9519,7.0184,6.8741,6.7624,6.6914,6.617,6.5751,6.5615,6.4952,6.3937,6.2448,6.1704,6.0317,5.8204,0.0,0.0,0.0,0.0,0.0,0.0,0.0,0.0,0.0,0.0,0.0,0.0,0.0,0.0,0.0,5.4347,0.0,5.5902,5.5344,0.0,0.0,0.0,5.6139,5.6799,5.7561,5.773,5.6968,0.0,0.0,6.0013,5.9588,5.952,6.0419,5.9757,5.9487,6.0351,6.1163,6.2178,6.3714,6.4613,6.5628,6.7062,6.8436,6.9992,7.1785,7.2022,7.2056,7.3138,7.2597,7.236,7.3341,7.3737,7.395,7.4661,7.5202,7.5134,7.2496,7.2428,7.28,7.3037,7.4018,7.4864,7.7715,7.713,7.5676,7.3105,7.006,7.077,7.1819,7.2935,7.2394,7.2157,7.1988,6.9823,6.8842,6.8741,6.7252,6.7218,6.8424,6.9485,7.0466,7.1379,7.2462,7.3094,7.324,7.3432,7.3432,7.3263,7.3037,7.2891,7.2665,7.2011,7.1075,6.9992,6.9451,6.7387,6.4005,6.4884,6.6474,6.8538,6.9451,7.0048,7.015,6.9282,6.8436,6.7658,6.6948,6.6,6.4918,6.4681,6.3903,6.2448,6.1704,6.0757,5.9607,5.7645,0.0,0.0,0.0,0.0,0.0,0.0,0.0,0.0,0.0,5.2723,5.1539,0.0,5.389,0.0,5.5683,5.7408,5.8134,5.8066,0.0,0.0,5.7476,5.746,5.7611,5.8287,5.8457,5.7712,5.8287,5.9336,6.0825,6.0858,6.167,6.3957,6.2279,6.1434,6.3226,6.4174,6.5189,6.6643,6.8402,6.9823,7.0207,7.1481,7.28,7.3916,7.3927,7.4153,7.4999,7.4931,7.4796,7.5168,7.5676,7.6115,7.6352,7.7401,7.8019,7.7309,7.6521,7.6014,7.6521,7.6951,7.7188,8.0073,8.0006,7.8923,7.6657,7.3815,7.4221,7.4864,7.554,7.4796,7.4255,7.3781,7.2665,7.1548,7.0567,7.0432,7.0669,7.1244,7.2293,7.3118,7.3697,7.4236,7.4714,7.5128,7.4956,7.4956,7.5151,7.5151,7.5151,7.5117,7.481,7.4094,7.3074,7.2745,7.1094,6.8166,6.7489,6.7692,6.8538,6.9676,7.0217,7.0217,6.9789,6.891,6.7455,6.6406,6.5121,6.3666,6.2956,6.2212,6.1434,6.096,6.0283,5.9167,5.7645,5.6325,0.0,0.0,0.0,0.0,0.0,0.0,0.0,0.0,0.0,0.0,0.0,5.5547,5.548,5.7239,5.8423,5.8524,5.849,5.8592,5.8863,5.8863,5.8998,5.937,6.008,6.0351,5.9945,6.0554,6.1685,6.3463,6.3463,6.4241,6.6846,6.5797,6.5087,6.5933,6.6711,6.7726,6.9214,7.077,7.2191,7.3071,7.4221,7.5236,7.5912,7.6115,7.6352,7.7063,7.7198,7.7299,7.7671,7.8314,7.8855,7.8889,7.9769,8.0522,8.0454,7.9938,7.9329,7.9025,7.8991,7.8982,8.1697,8.1562,8.0141,7.8788,7.7604,7.7401,7.6995,7.642,7.5709,7.5473,7.5506,7.507,7.4098,7.2891,7.3638,7.3604,7.305,7.4418,7.5284,7.5675,7.6009,7.6664,7.7465,7.7068,7.7114,7.7487,7.7384,7.7304,7.7225,7.6501,7.5843,7.5197,7.4627,7.364,7.2248,7.0499,6.9144,6.8233,6.962,7.0297,7.0217,6.9992,6.8876,6.6745,6.5324,6.3869,6.2333,6.096,6.0216,6.0114,6.008,5.9539,5.8407,5.7543,5.6596,0.0,5.4668,0.0,0.0,0.0,0.0,0.0,0.0,0.0,0.0,5.7171,5.7543,5.8407,5.9066,5.9235,5.866,5.861,5.9084,6.025,6.0486,6.0825,6.1501,6.2212,6.2705,6.2685,6.3226,6.4458,6.6318,6.6271,6.6812,6.8876,6.9316,6.918,6.8977,6.9248,7.006,7.1515,7.2462,7.3883,7.5506,7.6589,7.7367,7.8044,7.8373,7.8686,7.9397,7.9532,7.9769,8.0445,8.1054,8.1528,8.1697,8.2306,8.2813,8.2847,8.2881,8.2441,8.1088,8.0682,8.0648,8.3998,8.3836,8.2382,8.1629,8.1232,8.0073,7.7502,7.4143,7.4007,7.4255,7.4887,7.5761,7.5714,7.5195,7.6063,7.6222,7.5799,7.7034,7.7617,7.7765,7.8466,7.8856,7.9074,7.8982,7.8982,7.9005,7.8419,7.7904,7.7501,7.6793,7.5833,7.4757,7.498,7.3912,7.1661,0.0,0.0,0.0,7.0635,7.0804,7.0184,6.8977,6.7557,6.5967,6.5053,0.0,6.1637,6.1231,6.0791,6.0148,6.008,0.0,0.0,0.0,0.0,0.0,0.0,0.0,0.0,0.0,0.0,0.0,5.9201,5.893,5.8626,5.9133,6.0047,6.14,6.167,6.1941,6.2395,6.2429,6.2313,6.2028,6.2516,6.2936,6.3105,6.3768,6.4174,6.4208,6.4309,6.5019,6.6664,6.7184,6.8368,7.059,7.1413,7.2191,7.3138,7.236,7.236,7.3747,7.5158,7.6376,7.7425,7.8213,7.9041,7.9634,8.031,8.0885,8.1562,8.1739,8.2035,8.2746,8.2983,8.3287,8.3862,8.4606,8.5046,8.5174,8.5587,8.5418,8.3355,8.2847,8.305,8.573,0.0,8.4106,8.3215,0.0,8.1222,7.9036,7.6496,7.6194,7.6422,7.7065,7.7697,7.7811,7.7543,7.7045,7.6942,7.7031,7.6655,7.7137,7.8292,7.8477,7.9362,8.077,8.014,8.0197,8.0735,8.0286,7.9806,7.9217,7.8763,7.7966,7.6782,7.6663,7.5795,7.4262,7.4582,7.364,7.1278,7.165,7.1853,7.1808,7.0703,6.9417,6.795,6.6102,0.0,0.0,0.0,0.0,0.0,0.0,0.0,0.0,5.996,0.0,6.0622,5.9979,6.0047,6.1129,6.1231,6.1704,6.2787,6.3531,6.3024,6.0858,6.167,6.2651,6.3396,6.3497,6.3632,6.4005,6.4377,6.4444,6.4106,6.4715,6.5134,6.5168,6.5439,6.5831,6.6203,6.6609,6.7472,6.9152,6.9785,7.0971,7.2892,7.3683,7.4447,7.5371,7.4762,7.4695,7.6521,7.8007,7.9074,7.9598,8.0519,8.1096,8.1368,8.19,8.2611,8.3389,8.3828,8.4302,8.5012,8.5182,8.5351,8.5628,8.6095,8.6332,8.6393,8.6881,8.7037,8.5871,8.5452,8.5283,8.711,8.6947,8.5594,8.4619,8.3874,8.2567,8.152,8.0663,0.0,0.0,0.0,7.9948,8.0052,7.9971,7.8397,7.8041,7.8546,7.7031,7.7468,7.9505,7.9281,8.0553,8.2925,8.1861,8.1918,8.2989,8.2549,8.2034,8.1561,8.1068,8.0317,7.932,7.8711,7.8298,7.7903,7.7433,7.604,7.3742,7.2959,7.2846,7.3378,7.2609,7.1447,6.9823,6.7409,6.5324,6.3748,6.1772,6.0689,6.0689,6.0588,6.0622,6.0858,6.0892,6.1095,6.1434,6.1467,6.2076,6.3463,6.3565,6.4343,6.619,6.7421,6.6846,6.3768,6.4681,6.5392,6.5392,6.5392,6.5358,6.5222,6.573,6.6042,6.6057,6.6803,6.7332,6.745,6.7709,6.8213,6.8693,6.9313,7.0441,7.2196,7.2787,7.372,7.5424,7.645,7.7114,7.7748,7.7414,7.7392,7.9214,8.0461,8.1437,8.1885,8.2751,8.3398,8.3303,8.3914,8.4637,8.5346,8.6046,8.678,8.7723,8.7792,8.7819,8.7802,8.7924,8.7708,8.7607,8.7924,8.8308,8.8361,8.8014,8.7607,8.7854,8.7786,8.6941,8.6758,8.6983,8.6155,8.5508,8.4736,8.1781,8.0477,8.0605,8.1655,8.2161,8.2327,8.2267,8.2422,8.2699,8.2893,8.3534,8.4407,8.498,8.5757,8.6665,8.5851,8.5887,8.6537,8.4777,8.3996,8.3956,8.2234,8.0968,8.0512,8.0561,8.0612,8.0506,8.0063,7.9386,7.8443,7.5115,7.3277,7.3138,7.2022,7.041,6.8335,6.7882,6.6576,6.4512,6.3565,6.3004,6.3004,6.2415,6.2651,6.3869,6.3991,6.4816,6.6609,6.6812,6.7218,6.8085,6.8166,6.8301,6.8571,6.8808,6.8673,6.8233,6.8335,6.847,6.847,6.8445,6.8166,6.7557,6.7599,6.7688,6.7496,6.8582,6.9514,6.9989,7.1084,7.1897,7.2069,7.2096,7.2896,7.455,7.5304,7.6351,7.79,7.9713,8.1232,8.2141,8.1347,8.0731,8.1511,8.2346,8.3098,8.4035,8.4626,8.5481,8.5941,8.7023,8.7922,8.8534,8.8852,8.9433,9.0794,9.0838,9.0889,9.0891,9.1119,9.0615,9.0103,9.0058,9.0249,9.0193,9.009,8.9949,8.9226,8.9395,8.8738,8.8932,8.9762,8.9726,8.9339,8.8641,8.7502,8.5553,8.3483,8.4249,8.4745,8.4713,8.382,8.3895,8.4683,8.3847,8.4223,8.5526,8.5939,8.6796,8.7987,8.7344,8.738,8.8007,8.7081,8.6424,8.6129,8.5094,8.4296,8.3706,8.3045,8.2449,8.2032,8.1987,8.1774,8.1239,7.8309,7.6462,7.5911,7.4989,7.3671,7.1973,7.1168,6.995,6.8301,6.8063,6.744,6.6324,6.6446,6.676,6.7118,6.6923,6.7562,6.9331,6.9523,7.0,7.1121,7.2071,7.2498,7.2195,7.2498,7.274,7.274,7.108,7.0345,7.0956,7.1067,7.0896,7.0554,7.0862,7.1184,7.1405,7.2416,7.3426,7.4352,7.5013,7.5679,7.612,7.6576,7.738,7.8738,7.9339,8.0351,8.2069,8.3687,8.504,8.6133,8.6224,8.5741,8.5196,8.5811,8.6782,8.7588,8.833,8.8739,8.8837,8.9668,9.038,9.081,9.1045,9.1669,9.2224,9.2412,9.2223,9.1964,9.1776,9.1493,9.104,9.1066,9.1092,9.0944,9.1022,9.0909,9.0624,9.0962,9.0434,9.0872,9.2023,9.2378,9.2201,9.1697,9.2241,9.0481,8.7351,8.7392,8.7643,8.7606,8.6027,8.5983,8.6768,8.5365,8.5641,8.7265,8.7213,8.8048,8.9477,8.8866,8.8774,8.9264,8.8982,8.8558,8.8241,8.7846,8.7358,8.6794,8.562,8.4718,8.4102,8.4336,8.4257,8.3758,8.1994,8.0454,7.9172,7.8493,7.7509,7.6176,7.505,7.3822,7.2625,7.2583,7.1836,7.0338,7.0744,7.0976,7.0714,7.039,7.0774,7.1981,7.2188,7.2749,7.3964,7.5501,7.6179,7.5775,7.6222,7.6684,7.6739,7.4684,7.331,7.383,7.4087,7.4191,7.4226,7.4643,7.5254,7.5811,7.6524,7.7364,7.8536,7.9044,7.9491,8.0187,8.0914,8.1818,8.2843,8.331,8.4283,8.6307,8.7543,8.8354,8.9326,9.0444,9.0272,8.9585,8.9465,8.9947,9.0953,9.1335,9.1487,9.1354,9.1922,9.2451,9.273,9.3168,9.3567,9.3806,9.3864,9.3638,9.2908,9.2742,9.2513,9.2129,9.2238,9.2238,9.199,9.2139,9.19,9.1715,9.1695,9.1656,9.2359,9.345,9.3386,9.3287,9.3207,9.3225,9.2724,9.1534,9.098,9.0991,9.1418,9.0671,9.0645,9.1281,9.0661,9.1047,9.2228,9.1852,9.1948,9.2461,9.1766,9.1437,9.1326,9.022,9.0008,9.0509,8.9276,8.8498,8.8311,8.8151,8.7969,8.7933,8.7931,8.7681,8.7077,8.6172,8.4421,8.1896,8.1281,8.0297,7.8827,7.863,7.7817,7.6191,7.5578,7.5157,7.4942,7.4419,7.4385,7.4909,7.4977,7.5292,7.6066,7.6137,7.6533,7.7425,7.8268,7.8832,7.8693,7.891,7.944,8.0412,8.023,7.923,7.8162,7.8189,7.8432,7.8523,7.8665,7.893,7.9413,8.0078,8.0733,8.1475,8.261,8.3473,8.3528,8.4287,8.5094,8.5912,8.6289,8.7348,8.9863,9.0552,9.1196,9.229,9.2878,9.332,9.3224,9.2539,9.1822,9.2416,9.2483,9.2921,9.3345,9.3927,9.4403,9.4825,9.5093,9.5483,9.5508,9.6027,9.5688,9.5238,9.5196,9.4835,9.393,9.3898,9.4191,9.4236,9.4101,9.3577,9.3556,9.3459,9.3483,9.3971,9.4806,9.5197,9.5077,9.4681,9.5137,9.4879,9.4207,9.3839,9.3399,9.2787,9.2526,9.2767,9.3352,9.3103,9.3285,9.3866,9.3536,9.356,9.373,9.3455,9.3272,9.3198,9.2187,9.211,9.2621,9.1826,9.0769,8.9843,8.9734,8.9514,8.913,8.9496,8.9385,8.8687,8.8778,8.803,8.6351,8.4123,8.2279,8.1061,8.0863,8.0246,7.9061,7.9065,7.8897,7.8203,7.8367,7.8494,7.8467,7.8205,7.8393,7.9157,7.9949,8.0683,8.1304,8.2413,8.2902,8.2567,8.2981,8.3525,8.3964,8.4435,8.4455,8.4007,8.2814,8.1975,8.2066,8.246,8.2942,8.3455,8.3857,8.4387,8.5464,8.6083,8.6648,8.714,8.7868,8.867,8.9563,9.0474,9.1536,9.2823,9.3321,9.3902,9.4556,9.5019,9.5436,9.5612,9.5025,9.475,9.4917,9.5052,9.5156,9.5379,9.5683,9.6004,9.612,9.6259,9.6358,9.6647,9.6666,9.6453,9.5622,9.5581,9.5379,9.4893,9.4647,9.4625,9.4625,9.4625,9.4294,9.536,9.5232,9.5172,9.5457,9.5943,9.6492,9.6392,9.5951,9.6465,9.6355,9.5859,9.5841,9.5262,9.4306,9.4011,9.4193,9.4592,9.463,9.474,9.4887,9.474,9.463,9.463,9.463,9.452,9.4226,9.3657,9.3712,9.4153,9.3492,9.2464,9.1436,9.1069,9.0758,9.0537,9.1014,9.0996,9.0537,9.0812,9.0537,8.9439,8.6955,8.4832,8.3591,8.3428,8.2826,8.159,8.2176,8.2124,8.1199,8.1813,8.2025,8.1672,8.1291,8.1468,8.226,8.359,8.4555,8.4935,8.609,8.6582,8.6246,8.6703,8.7104,8.7395,8.7869,8.8491,8.889,8.7521,8.6416,8.5582,8.598,8.6531,8.6976,8.7176,8.7796,8.8632,8.916,8.9785,9.0391,9.0997,9.1803,9.2501,9.3528,9.4427,9.4537,9.5216,9.5822,9.5859,9.6243,9.6647,9.6722,9.6666,9.661,9.6722,9.6496,9.6722,9.6722,9.6589,9.657,9.6722,9.6722,9.6703,9.6666,9.6722,9.6608,9.622,9.5963,9.5806,9.5394,9.5163,9.5184,9.5373,9.5227,9.5227,9.6755,9.6697,9.6648,9.655,9.6647,9.6666,9.6685,9.6575,9.6685,9.6649,9.6575,9.6612,9.6593,9.6352,9.5616,9.5417,9.5455,9.5474,9.5804,9.6318,9.5768,9.5455,9.5455,9.5418,9.507,9.4556,9.4336,9.4226,9.4189,9.3565,9.3088,9.2905,9.217,9.217,9.2684,9.2831,9.2941,9.2721,9.2097,9.14,9.0574,8.9622,8.8286,8.6878,8.6746,8.5963,8.4642,8.4454,8.4471,8.4417,8.4508,8.4488,8.4434,8.44,8.4716,8.5556,8.7001,8.7898,8.7989,8.8685,8.9198,8.9199,8.931,8.9603,9.0246,9.0429,9.0813,9.1528,9.1877,9.129,8.9514,8.9221,8.9276,8.9385,8.997,9.0391,9.0537,9.1767,9.2758,9.2941,9.3418,9.3896,9.4153,9.4923,9.5364,9.5565,9.6135,9.6575,9.6539,9.6649,9.6685,9.6722,9.6722,9.6722,9.6722,9.6722,9.6722,9.6722,9.6722,9.6722,9.6722,9.6722,9.6722,9.6722,9.6722,9.6722,9.6684,9.6608,9.655,9.6338,9.6279,9.6299,9.6064,9.6472,9.6414,9.8436,9.7436,9.6919,9.6722,9.6722,9.6722,9.6722,9.6722,9.6722,9.6722,9.6722,9.6722,9.6722,9.6685,9.6428,9.6282,9.6282,9.6282,9.6428,9.6649,9.6392,9.6282,9.6282,9.6282,9.6171,9.5804,9.5327,9.452,9.3712,9.4226,9.4097,9.3308,9.3308,9.3565,9.3822,9.3859,9.3859,9.3786,9.3051,9.2501,9.217,9.1363,9.0408,8.9381,8.8812,8.8262,8.7675,8.7675,8.7675,8.7675,8.7675,8.7675,8.7675,8.7675,8.7785,8.8115,8.8629,8.9179,8.9748,9.0482,9.1179,9.1767,9.2281,9.2537,9.2905,9.2978,9.3088,9.3382,9.3639,9.3308,9.2868,9.2537,9.2537,9.2574,9.2758,9.2905,9.3051,9.3529,9.3859,9.4006,9.4556,9.5217,9.5658,9.6098,9.6245,9.6318,9.6539,9.6685,9.6722,9.6722,9.6722,9.6722,9.6722,9.6722,9.6722,9.6722,9.6722,9.6722,9.6722,9.6722,9.6722,9.6722,9.6722,9.6722,9.6722,9.6722,9.6703,9.6703,9.6722,9.6722,9.6722,9.6722,9.6722,9.6722,9.6722,9.8961,9.753,9.6906,9.6722,9.6722,9.6722,9.6722,9.6722,9.6722,9.6722,9.6722,9.6722,9.6722,9.6722,9.6722,9.6722,9.6722,9.6685,9.6722,9.6722,9.6722,9.6722,9.6722,9.6722,9.6722,9.6612,9.6171,9.529,9.4446,9.5107,9.4887,9.3987,9.4226,9.4446,9.4593,9.4446,9.4373,9.4483,9.3896,9.3492,9.3382,9.2648,9.1987,9.14,9.0629,8.9877,8.9436,8.94,8.94,8.94,8.94,8.951,8.9767,9.006,9.0335,9.0574,9.0868,9.1216,9.173,9.2317,9.2868,9.3418,9.3969,9.4373,9.463,9.4703,9.4813,9.4997,9.507,9.507,9.507,9.5034,9.4887,9.4483,9.452,9.4666,9.4703,9.4887,9.507,9.518,9.5547,9.6135,9.6575,9.6649,9.6685,9.6722,9.6722,9.6722,9.6722,9.6722,9.6722,9.6722,9.6722,9.6722,9.6722,9.6722,9.6722,9.6722,9.6722,9.6722,9.6722,9.6722,9.6722,9.6722,9.6722,9.6722,9.6722,9.6722,9.6722,9.6722,9.6722,9.6722,9.6722,9.6722,9.6722,9.8227,9.6979,9.6722,9.6722,9.6722,9.6722,9.6722,9.6722,9.6722,9.6722,9.6722,9.6722,9.6722,9.6722,9.6722,9.6722,9.6722,9.6722,9.6722,9.6722,9.6722,9.6722,9.6722,9.6722,9.6722,9.6722,9.6685,9.6612,9.6282,9.5841,9.5474,9.5327,9.4777,9.4923,9.5492,9.4923,9.4813,9.518,9.4703,9.4336,9.4189,9.3492,9.3051,9.2941,9.2244,9.1179,8.973,8.9583,8.9657,8.9657,8.9657,8.9877,9.0794,9.1473,9.2225,9.2868,9.3675,9.4135,9.4189,9.4153,9.4189,9.4446,9.441,9.485,9.5382,9.5492,9.5768,9.6282,9.6465,9.6539,9.6502,9.6465,9.5951,9.474,9.5144,9.5474,9.5639,9.6208,9.6649,9.6539,9.6575,9.6685,9.6685,9.6722,9.6722,9.6722,9.6722,9.6722,9.6722,9.6722,9.6722,9.6722,9.6722,9.6722,9.6722,9.6722,9.6722,9.6722,9.6722,9.6722,9.6722,9.6722,9.6722,9.6722,9.6722,9.6722,9.6722,9.6722,9.6722,9.6722,9.6722,9.6722,9.6722,9.6722,9.6722,9.83,9.8227,9.7163,9.6722,9.6722,9.6722,9.6722,9.6722,9.6722,9.6722,9.6722,9.6722,9.6722,9.6722,9.6722,9.6722,9.6722,9.6722,9.6722,9.6722,9.6722,9.6722,9.6722,9.6722,9.6722,9.6722,9.6722,9.6392,9.6061,9.6171,9.6098,9.5602,9.5841,9.6061,9.6245,9.6098,9.6135,9.6208,9.5547,9.5144,9.507,9.4336,9.3932,9.3896,9.3639,9.3235,9.2758,9.1693,9.14,9.1877,9.195,9.2317,9.3015,9.3418,9.3657,9.3896,9.4116,9.4593,9.507,9.5144,9.5364,9.5768,9.5914,9.6061,9.6282,9.6318,9.6428,9.6685,9.6722,9.6722,9.6722,9.6722,9.6428,9.5988,9.6171,9.6282,9.6282,9.6539,9.6685,9.6722,9.6722,9.6722,9.6722,9.6722,9.6722,9.6722,9.6722,9.6722,9.6722,9.6722,9.6722,9.6722,9.6722,9.6722,9.6722,9.6722,9.6722,9.6722,9.6722,9.6722,9.6722,9.6722,9.6722,9.6722,9.6722,9.6722,9.6722,9.6722,9.6722,9.6722,9.6722,9.6722,9.6722,9.6722,9.6722,9.83,9.808,9.7126,9.6722,9.6722,9.6722,9.6722,9.6722,9.6722,9.6722,9.6722,9.6722,9.6722,9.6722,9.6722,9.6722,9.6722,9.6722,9.6722,9.6722,9.6722,9.6722,9.6722,9.6722,9.6722,9.6722,9.6722,9.6465,9.6006,9.6428,9.6465,9.6135,9.6465,9.6685,9.6649,9.6392,9.6355,9.6539,9.5914,9.5639,9.5731,9.518,9.474,9.4703,9.4446,9.4299,9.4189,9.3235,9.2978,9.3418,9.3565,9.3932,9.463,9.474,9.485,9.5144,9.5217,9.5474,9.5878,9.5951,9.6135,9.6612,9.6722,9.6685,9.6685,9.6722,9.6722,9.6722,9.6722,9.6722,9.6722,9.6722,9.6722,9.6685,9.6649,9.6722,9.6722,9.6722,9.6722,9.6722,9.6722,9.6722,9.6722,9.6722,9.6722,9.6722,9.6722,9.6722,9.6722,9.6722,9.6722,9.6722,9.6722,9.6722,9.6722,9.6722,9.6722,9.6722,9.6722,9.6722,9.6722,9.6722,9.6722,9.6722,9.6722,9.6722,9.6722,9.6722,9.6722,9.6722,9.6722,9.6722,9.6722,9.6722,9.6722,9.8227,9.6906,9.6795,9.6759,9.6722,9.6722,9.6722,9.6722,9.6722,9.6722,9.6722,9.6722,9.6722,9.6722,9.6722,9.6722,9.6722,9.6722,9.6722,9.6722,9.6722,9.6722,9.6722,9.6722,9.6722,9.6722,9.6722,9.6685,9.6575,9.6649,9.6722,9.6649,9.6649,9.6722,9.6612,9.5932,9.6098,9.6539,9.5988,9.6025,9.6539,9.5951,9.5584,9.5528,9.496,9.463,9.463,9.452,9.4373,9.4373,9.4446,9.485,9.5437,9.5565,9.5878,9.6465,9.6649,9.6575,9.6649,9.6575,9.6612,9.6685,9.6722,9.6722,9.6722,9.6722,9.6722,9.6722,9.6722,9.6722,9.6722,9.6722,9.6722,9.6722,9.6722,9.6722,9.6722,9.6722,9.6722,9.6722,9.6722,9.6722,9.6722,9.6722,9.6722,9.6722,9.6722,9.6722,9.6722,9.6722,9.6722,9.6722,9.6722,9.6722,9.6722,9.6722,9.6722,9.6722,9.6722,9.6722,9.6722,9.6722,9.6722,9.6722,9.6722,9.6722,9.6722,9.6722,9.6722,9.6722,9.6722,9.6722,9.6722,9.6722,9.6722,9.8831,9.8447,9.7823,9.7236,9.6759,9.6722,9.6722,9.6722,9.6722,9.6722,9.6722,9.6722,9.6722,9.6722,9.6722,9.6722,9.6722,9.6722,9.6722,9.6722,9.6722,9.6722,9.6722,9.6722,9.6722,9.6722,9.6722,9.6722,9.6722,9.6722,9.6722,9.6722,9.6722,9.6722,9.6649,9.6465,9.6465,9.6649,9.6539,9.6428,9.6612,9.6502,9.6392,9.6355,9.6135,9.6025,9.6061,9.6061,9.5768,9.529,9.5804,9.6135,9.6318,9.6318,9.6428,9.6612,9.6722,9.6722,9.6722,9.6722,9.6722,9.6722,9.6722,9.6722,9.6722,9.6722,9.6722,9.6722,9.6722,9.6722,9.6722,9.6722,9.6722,9.6722,9.6722,9.6722,9.6722,9.6722,9.6722,9.6722,9.6722,9.6722,9.6722,9.6722,9.6722,9.6722,9.6722,9.6722,9.6722,9.6722,9.6722,9.6722,9.6722,9.6722,9.6722,9.6722,9.6722,9.6722,9.6722,9.6722,9.6722,9.6722,9.6722,9.6722,9.6722,9.6722,9.6722,9.6722,9.6722,9.6722,9.6722,9.6722,9.6722,9.6722,9.6722,9.8888,9.8521,9.775,9.7126,9.6722,9.6722,9.6722,9.6722,9.6722,9.6722,9.6722,9.6722,9.6722,9.6722,9.6722,9.6722,9.6722,9.6722,9.6722,9.6722,9.6722,9.6722,9.6722,9.6722,9.6722,9.6722,9.6722,9.6722,9.6722,9.6722,9.6722,9.6722,9.6722,9.6722,9.6722,9.6722,9.6722,9.6722,9.6722,9.6722,9.6722,9.6722,9.6685,9.6685,9.6722,9.6722,9.6685,9.6685,9.6465,9.6171,9.6428,9.6722,9.6722,9.6722,9.6722,9.6722,9.6722,9.6722,9.6722,9.6722,9.6722,9.6722,9.6722,9.6722,9.6722,9.6722,9.6722,9.6722,9.6722,9.6722,9.6722,9.6722,9.6722,9.6722,9.6722,9.6722,9.6722,9.6722,9.6722,9.6722,9.6722,9.6722,9.6722,9.6722,9.6722,9.6722,9.6722,9.6722,9.6722,9.6722,9.6722,9.6722,9.6722,9.6722,9.6722,9.6722,9.6722,9.6722,9.6722,9.6722,9.6722,9.6722,9.6722,9.6722,9.6722,9.6722,9.6722,9.6722,9.6722,9.6722,9.6722,9.6722,9.6722,9.6722,9.6722,9.8668,9.7933,9.7163,9.6795,9.6722,9.6722,9.6722,9.6722,9.6722,9.6722,9.6722,9.6722,9.6722,9.6722,9.6722,9.6722,9.6722,9.6722,9.6722,9.6722,9.6722,9.6722,9.6722,9.6722,9.6722,9.6722,9.6722,9.6722,9.6722,9.6722,9.6722,9.6722,9.6722,9.6722,9.6722,9.6722,9.6722,9.6722,9.6722,9.6722,9.6722,9.6722,9.6722,9.6722,9.6722,9.6722,9.6722,9.6722,9.6649,9.6685,9.6722,9.6722,9.6722,9.6722,9.6722,9.6722,9.6722,9.6722,9.6722,9.6722,9.6722,9.6722,9.6722,9.6722,9.6722,9.6722,9.6722,9.6722,9.6722,9.6722,9.6722,9.6722,9.6722,9.6722,9.6722,9.6722,9.6722,9.6722,9.6722,9.6722,9.6722,9.6722,9.6722,9.6722,9.6722,9.6722,9.6722,9.6722,9.6722,9.6722,9.6722,9.6722,9.6722,9.6722,9.6722,9.6722,9.6722,9.6722,9.6722,9.6722,9.6722,9.6722,9.6722,9.6722,9.6722,9.6722,9.6722,9.6722,9.6722,9.6722,9.6722,9.6722,9.6722,9.6722,9.6722,9.8998,9.8778,9.797,9.7273,9.6759,9.6722,9.6722,9.6722,9.6722,9.6722,9.6722,9.6722,9.6722,9.6722,9.6722,9.6722,9.6759,9.6722,9.6722,9.6722,9.6722,9.6722,9.6722,9.6722,9.6722,9.6722,9.6722,9.6722,9.6722,9.6722,9.6722,9.6722,9.6722,9.6722,9.6722,9.6722,9.6722,9.6722,9.6722,9.6722,9.6722,9.6722,9.6722,9.6722,9.6722,9.6722,9.6722,9.6722,9.6722,9.6722,9.6722,9.6722,9.6722,9.6722,9.6722,9.6722,9.6722,9.6722,9.6722,9.6722,9.6722,9.6722,9.6722,9.6722,9.6722,9.6722,9.6722,9.6722,9.6722,9.6722,9.6722,9.6722,9.6722,9.6722,9.6722,9.6722,9.6722,9.6722,9.6722,9.6722,9.6722,9.6722,9.6722,9.6722,9.6722,9.6722,9.6722,9.6722,9.6722,9.6722,9.6722,9.6722,9.6722,9.6722,9.6722,9.6722,9.6722,9.6722,9.6722,9.6722,9.6722,9.6722,9.6722,9.6722,9.6722,9.6722,9.6722,9.6722,9.6722,9.6722,9.6722,9.6722,9.6722,9.6722,9.6722,9.9088,9.8978,9.7823,9.7089,9.6759,9.6722,9.6722,9.6722,9.6722,9.6722,9.6722,9.6722,9.6906,9.7199,9.6906,9.6869,9.7089,9.6832,9.6722,9.6722,9.6722,9.6722,9.6722,9.6722,9.6722,9.6722,9.6722,9.6722,9.6722,9.6722,9.6722,9.6722,9.6722,9.6722,9.6722,9.6722,9.6722,9.6722,9.6722,9.6722,9.6722,9.6722,9.6722,9.6722,9.6722,9.6722,9.6722,9.6722,9.6722,9.6722,9.6722,9.6722,9.6722,9.6722,9.6722,9.6722,9.6722,9.6722,9.6722,9.6722,9.6722,9.6722,9.6722,9.6722,9.6722,9.6722,9.6722,9.6722,9.6722,9.6722,9.6722,9.6722,9.6722,9.6722,9.6722,9.6722,9.6722,9.6722,9.6722,9.6722,9.6722,9.6722,9.6722,9.6722,9.6722,9.6722,9.6722,9.6722,9.6722,9.6722,9.6722,9.6722,9.6722,9.6722,9.6722,9.6722,9.6722,9.6722,9.6722,9.6722,9.6722,9.6722,9.6722,9.6722,9.6722,9.6722,9.6722,9.6722,9.6722,9.6722,9.6722,9.6722,9.6722,9.6722,9.6722,9.8924,9.8814,9.7309,9.6722,9.6722,9.6722,9.6722,9.6722,9.6722,9.6722,9.6722,9.6722,9.7016,9.7383,9.6979,9.7126,9.7309,9.7089,9.6722,9.6722,9.6722,9.6722,9.6722,9.6722,9.6722,9.6722,9.6722,9.6722,9.6722,9.6722,9.6722,9.6722,9.6722,9.6722,9.6722,9.6722,9.6722,9.6722,9.6722,9.6722,9.6722,9.6722,9.6722,9.6722,9.6722,9.6722,9.6722,9.6722,9.6722,9.6722,9.6722,9.6722,9.6722,9.6722,9.6722,9.6722,9.6722,9.6722,9.6722,9.6722,9.6722,9.6722,9.6722,9.6722,9.6722,9.6722,9.6722,9.6722,9.6722,9.6722,9.6722,9.6722,9.6722,9.6722,9.6722,9.6722,9.6722,9.6722,9.6722,9.6722,9.6722,9.6722,9.6722,9.6722,9.6722,9.6722,9.6722,9.6722,9.6722,9.6722,9.6722,9.6722,9.6722,9.6722,9.6722,9.6722,9.6722,9.6722,9.6722,9.6722,9.6722,9.6722,9.6722,9.6722,9.6722,9.6722,9.6722,9.6722,9.6722,9.6722,9.6722,9.6722,9.6722,9.6722,9.6722,9.808,9.8026,9.7089,9.6722,9.6722,9.6722,9.6722,9.6722,9.6722,9.6722,9.6722,9.6722,9.6795,9.6906,9.6832,9.6832,9.6942,9.6759,9.6722,9.6722,9.6722,9.6722,9.6722,9.6722,9.6722,9.6722,9.6722,9.6722,9.6722,9.6722,9.6722,9.6722,9.6722,9.6722,9.6722,9.6722,9.6722,9.6722,9.6722,9.6722,9.6722,9.6722,9.6722,9.6722,9.6722,9.6722,9.6722,9.6722,9.6722,9.6722,9.6722,9.6722,9.6722,9.6722,9.6722,9.6722,9.6722,9.6722,9.6722,9.6722,9.6722,9.6722,9.6722,9.6722,9.6722,9.6722,9.6722,9.6722,9.6722,9.6722,9.6722,9.6722,9.6722,9.6722,9.6722,9.6722,9.6722,9.6722,9.6722,9.6722,9.6722,9.6722,9.6722,9.6722,9.6722,9.6722,9.6722,9.6722,9.6722,9.6722,9.6722,9.6722,9.6722,9.6722,9.6722,9.6722,9.6722,9.6722,9.6722,9.6722,9.6722,9.6722,9.6722,9.6722,9.6722,9.6722,9.6722,9.6722,9.6722,9.6722,9.6722,9.6722,9.6722,9.6722,9.6722,9.7897,9.7843,9.7016,9.6722,9.6722,9.6722,9.6722,9.6722,9.6722,9.6722,9.6722,9.6722,9.6942,9.7126,9.6832,9.6722,9.6722,9.6722,9.6722,9.6722,9.6722,9.6722,9.6722,9.6722,9.7016,9.7089,9.6942,9.6759,9.6722,9.6722,9.6722,9.6722,9.6722,9.6722,9.6722,9.6722,9.6722,9.6722,9.6722,9.6722,9.6722,9.6722,9.6722,9.6722,9.6722,9.6722,9.6722,9.6722,9.6722,9.6722,9.6722,9.6722,9.6722,9.6722,9.6722,9.6722,9.6722,9.6722,9.6722,9.6722,9.6722,9.6722,9.6722,9.6722,9.6722,9.6722,9.6722,9.6722,9.6722,9.6722,9.6722,9.6722,9.6722,9.6722,9.6722,9.6722,9.6722,9.6722,9.6722,9.6722,9.6722,9.6722,9.6722,9.6722,9.6722,9.6722,9.6722,9.6722,9.6722,9.6722,9.6722,9.6722,9.6722,9.6722,9.6722,9.6722,9.6722,9.6722,9.6722,9.6722,9.6722,9.6722,9.6722,9.6722,9.6722,9.6722,9.6722,9.6722,9.6722,9.6722,9.6722,9.6722,9.6722,9.6722,9.6722,9.7806,9.7622,9.6979,9.6722,9.6722,9.6722,9.6722,9.6722,9.6722,9.6722,9.6722,9.6722,9.7016,9.7346,9.7052,9.6722,9.6722,9.6722,9.6722,9.6722,9.6722,9.6759,9.6942,9.7016,9.7383,9.8007,9.7713,9.7089,9.6979,9.6795,9.6722,9.6795,9.6795,9.6795,9.6759,9.7199,9.6979,9.6759,9.6906,9.6906,9.6759,9.6722,9.6722,9.6722,9.6722,9.6722,9.6722,9.6722,9.6722,9.6722,9.6722,9.6722,9.6722,9.6722,9.6722,9.6722,9.6722,9.6722,9.6722,9.6722,9.6722,9.6722,9.6722,9.6722,9.6722,9.6722,9.6722,9.6722,9.6722,9.6722,9.6722,9.6722,9.6722,9.6722,9.6722,9.6722,9.6722,9.6722,9.6722,9.6722,9.6722,9.6722,9.6722,9.6722,9.6722,9.6722,9.6722,9.6722,9.6722,9.6722,9.6722,9.6722,9.6722,9.6722,9.6722,9.6722,9.6722,9.6722,9.6722,9.6722,9.6722,9.6722,9.6722,9.6722,9.6722,9.6722,9.6722,9.6722,9.6722,9.6722,9.6722,9.6722,9.6722,9.6722,9.6722,9.7493,9.6832,9.6722,9.6722,9.6722,9.6722,9.6722,9.6722,9.6722,9.6722,9.6722,9.6722,9.6759,9.6832,9.6832,9.6722,9.6722,9.6722,9.6722,9.6722,9.6722,9.7052,9.7603,9.7769,9.819,9.8741,9.8778,9.8374,9.786,9.7199,9.6722,9.6832,9.7163,9.7475,9.7016,9.7787,9.8043,9.7126,9.7346,9.7346,9.6832,9.6722,9.6722,9.6722,9.6722,9.6722,9.6722,9.6722,9.6722,9.6722,9.6722,9.6722,9.6722,9.6722,9.6722,9.6722,9.6722,9.6722,9.6722,9.6722,9.6722,9.6722,9.6722,9.6722,9.6722,9.6722,9.6722,9.6722,9.6722,9.6722,9.6722,9.6722,9.6722,9.6722,9.6722,9.6722,9.6722,9.6722,9.6722,9.6722,9.6722,9.6722,9.6722,9.6722,9.6722,9.6722,9.6722,9.6722,9.6722,9.6722,9.6722,9.6722,9.6722,9.6722,9.6722,9.6722,9.6722,9.6722,9.6722,9.6722,9.6722,9.6722,9.6722,9.6722,9.6722,9.6722,9.6722,9.6722,9.6722,9.6722,9.6722,9.6722,9.6722,9.6722,9.6722,9.7419,9.6722,9.6722,9.6722,9.6722,9.6722,9.6722,9.6722,9.6722,9.6722,9.6722,9.6722,9.6722,9.6795,9.6722,9.6722,9.6722,9.6759,9.6722,9.6795,9.6832,9.7199,9.7713,9.797,9.8484,9.9438,9.9402,9.9255,9.8741,9.797,9.7199,9.6869,9.7089,9.7346,9.7383,9.808,9.797,9.7493,9.7273,9.7052,9.6795,9.6722,9.6722,9.6722,9.6722,9.6722,9.6722,9.6722,9.6722,9.6722,9.6722,9.6722,9.6722,9.6722,9.6722,9.6722,9.6722,9.6722,9.6722,9.6722,9.6722,9.6722,9.6722,9.6722,9.6722,9.6722,9.6722,9.6722,9.6722,9.6722,9.6722,9.6722,9.6722,9.6722,9.6722,9.6722,9.6722,9.6722,9.6722,9.6722,9.6722,9.6722,9.6722,9.6722,9.6722,9.6722,9.6722,9.6722,9.6722,9.6722,9.6722,9.6722,9.6722,9.6722,9.6722,9.6722,9.6722,9.6722,9.6722,9.6722,9.6722,9.6722,9.6722,9.6722,9.6722,9.6722,9.6722,9.6722,9.6722,9.6722,9.6722,9.6722,9.6722,9.6722,9.6722,9.7419,9.6722,9.6906,9.6979,9.7016,9.6979,9.7016,9.7016,9.7016,9.7016,9.7052,9.7236,9.7346,9.7309,9.7419,9.7493,9.7346,9.7309,9.7309,9.7309,9.7383,9.786,9.8484,9.8704,9.9292,10.054,10.0172,9.9952,9.9732,9.9145,9.819,9.7383,9.7933,9.7933,9.8227,9.8778,9.8888,9.819,9.7236,9.6795,9.6722,9.6722,9.6722,9.6722,9.6722,9.6722,9.6722,9.6722,9.6722,9.6722,9.6722,9.6722,9.6722,9.6722,9.6722,9.6722,9.6722,9.6722,9.6722,9.6722,9.6722,9.6722,9.6722,9.6722,9.6722,9.6722,9.6722,9.6722,9.6722,9.6722,9.6722,9.6722,9.6722,9.6722,9.6722,9.6722,9.6722,9.6722,9.6722,9.6722,9.6722,9.6722,9.6722,9.6722,9.6722,9.6722,9.6722,9.6722,9.6722,9.6722,9.6722,9.6722,9.6722,9.6722,9.6722,9.6722,9.6722,9.6722,9.6722,9.6722,9.6722,9.6722,9.6722,9.6722,9.6722,9.6722,9.6722,9.6722,9.6722,9.6722,9.6722,9.6722,9.6722,9.6722,9.6722,9.7419,9.6759,9.7493,9.775,9.7713,9.7843,9.7769,9.7603,9.7713,9.7659,9.7676,9.8374,9.8484,9.8631,9.8374,9.8447,9.8741,9.8924,9.8521,9.8521,9.8961,9.9035,9.9438,9.9805,10.0356,10.1184,10.098,10.0686,10.0466,10.0246,9.9548,9.9108,9.9108,9.9255,9.9475,9.9732,9.9659,9.8741,9.7493,9.6722,9.6722,9.6722,9.6722,9.6722,9.6722,9.6722,9.6722,9.6722,9.6722,9.6722,9.6722,9.6722,9.6722,9.6722,9.6722,9.6722,9.6722,9.6722,9.6722,9.6722,9.6722,9.6722,9.6722,9.6722,9.6722,9.6722,9.6722,9.6722,9.6722,9.6722,9.6722,9.6722,9.6722,9.6722,9.6722,9.6722,9.6722,9.6722,9.6722,9.6722,9.6722,9.6722,9.6722,9.6722,9.6722,9.6722,9.6722,9.6722,9.6722,9.6722,9.6722,9.6722,9.6722,9.6722,9.6722,9.6722,9.6722,9.6722,9.6722,9.6722,9.6722,9.6722,9.6722,9.6722,9.6722,9.6722,9.6722,9.6722,9.6722,9.6722,9.6722,9.6722,9.6722,9.6722,9.6722,9.6979,9.6795,9.7566,9.7603,9.7163,9.7163,9.7163,9.7163,9.7163,9.7163,9.7273,9.7493,9.764,9.7713,9.764,9.764,9.764,9.7603,9.7787,9.786,9.8117,9.8814,9.9438,10.0246,10.0686,10.1367,10.1514,10.1441,10.111,10.0943,10.0907,10.0596,10.0062,9.9805,9.9952,10.0026,9.9585,9.8998,9.764,9.6722,9.6722,9.6722,9.6722,9.6722,9.6722,9.6722,9.6722,9.6722,9.6722,9.6722,9.6722,9.6722,9.6722,9.6722,9.6722,9.6722,9.6722,9.6722,9.6722,9.6722,9.6722,9.6722,9.6722,9.6722,9.6722,9.6722,9.6722,9.6722,9.6722,9.6722,9.6722,9.6722,9.6722,9.6722,9.6722,9.6722,9.6722,9.6722,9.6722,9.6722,9.6722,9.6722,9.6722,9.6722,9.6722,9.6722,9.6722,9.6722,9.6722,9.6722,9.6722,9.6722,9.6722,9.6722,9.6722,9.6722,9.6722,9.6722,9.6722,9.6722,9.6722,9.6722,9.6722,9.6722,9.6722,9.6722,9.6722,9.6722,9.6722,9.6722,9.6722,9.6722,9.6722,9.6722,9.6722,9.6906,9.6795,9.7566,9.7566,9.7126,9.7309,9.7419,9.7419,9.7493,9.7603,9.775,9.7787,9.7933,9.8043,9.8227,9.8337,9.8557,9.8521,9.8337,9.8594,9.9108,9.9292,9.9842,10.0393,10.1017,10.1441,10.1514,10.1477,10.1441,10.1477,10.1404,10.1037,10.0503,10.0393,10.0246,9.9659,9.9088,9.8721,9.764,9.6759,9.6722,9.6722,9.6722,9.6722,9.6722,9.6722,9.6722,9.6722,9.6722,9.6722,9.6722,9.6722,9.6722,9.6722,9.6722,9.6722,9.6722,9.6722,9.6722,9.6722,9.6722,9.6722,9.6722,9.6722,9.6722,9.6722,9.6722,9.6722,9.6722,9.6722,9.6722,9.6722,9.6722,9.6722,9.6722,9.6722,9.6722,9.6722,9.6722,9.6722,9.6685,9.6649,9.6502,9.6465,9.6392,9.6502,9.6685,9.6685,9.6722,9.6722,9.6722,9.6722,9.6722,9.6722,9.6722,9.6722,9.6722,9.6722,9.6722,9.6722,9.6722,9.6722,9.6722,9.6722,9.6722,9.6722,9.6722,9.6722,9.6722,9.6722,9.6722,9.6722,9.6722,9.6722,9.6722,9.7383,9.6832,9.753,9.7823,9.7787,9.8668,9.8831,9.8668,9.8741,9.9071,9.9512,9.9659,10.0062,10.0523,10.0099,10.0136,10.0246,10.0503,10.054,10.0356,10.0283,10.1037,10.111,10.1147,10.12,10.1404,10.1514,10.1514,10.1514,10.1514,10.1514,10.1514,10.1184,10.1147,10.1237,9.9879,9.9125,9.8868,9.7493,9.6869,9.6722,9.6722,9.6722,9.6722,9.6722,9.6722,9.6722,9.6722,9.6722,9.6722,9.6722,9.6722,9.6722,9.6722,9.6722,9.6722,9.6722,9.6722,9.6722,9.6722,9.6722,9.6722,9.6722,9.6722,9.6722,9.6722,9.6722,9.6722,9.6722,9.6722,9.6722,9.6722,9.6722,9.6722,9.6722,9.6575,9.6539,9.6428,9.6355,9.6025,9.6318,9.6575,9.6318,9.6135,9.6061,9.6208,9.6539,9.6685,9.6649,9.6685,9.6685,9.6722,9.6722,9.6722,9.6722,9.6722,9.6722,9.6722,9.6722,9.6722,9.6722,9.6722,9.6722,9.6722,9.6722,9.6722,9.6722,9.6722,9.6722,9.6722,9.6722,9.6722,9.6722,9.6722,9.6722,9.6942,9.6722,9.6979,9.7089,9.7126,9.7383,9.7787,9.8227,9.8337,9.8484,9.865,9.8704,9.8778,9.9181,9.9842,10.0099,10.0062,9.9879,9.9916,10.0026,10.0503,10.0246,10.0356,10.1,10.122,10.098,10.109,10.1514,10.1514,10.1514,10.1514,10.1514,10.1514,10.1514,10.1053,10.0026,9.9088,9.8814,9.7676,9.6722,9.6722,9.6722,9.6722,9.6722,9.6722,9.6722,9.6722,9.6722,9.6722,9.6722,9.6722,9.6722,9.6722,9.6722,9.6722,9.6722,9.6722,9.6722,9.6722,9.6722,9.6722,9.6722,9.6722,9.6722,9.6722,9.6722,9.6722,9.6722,9.6722,9.6722,9.6722,9.6685,9.6685,9.6722,9.6612,9.6282,9.6098,9.5914,9.5694,9.5107,9.507,9.518,9.507,9.5107,9.5107,9.5217,9.5474,9.6135,9.6318,9.6575,9.6685,9.6685,9.6722,9.6722,9.6722,9.6722,9.6722,9.6722,9.6722,9.6722,9.6722,9.6722,9.6722,9.6722,9.6722,9.6722,9.6722,9.6722,9.6722,9.6722,9.6722,9.6722,9.6722,9.6722,9.6722,9.6942,9.6759,9.7016,9.6942,9.6759,9.6979,9.7566,9.8227,9.83,9.8337,9.8374,9.8337,9.8594,9.8924,9.9255,9.9805,9.9879,9.9622,9.9548,9.9585,10.0026,10.0062,10.0209,10.0723,10.1164,10.0943,10.1127,10.1514,10.1514,10.1514,10.1514,10.1514,10.1477,10.1514,10.1037,10.0062,9.9088,9.8648,9.7676,9.6722,9.6722,9.6722,9.6722,9.6722,9.6722,9.6722,9.6722,9.6722,9.6722,9.6722,9.6722,9.6722,9.6722,9.6722,9.6722,9.6722,9.6722,9.6722,9.6722,9.6722,9.6722,9.6722,9.6722,9.6722,9.6722,9.6722,9.6722,9.6722,9.6649,9.6465,9.6318,9.6355,9.6208,9.6208,9.5878,9.5474,9.5327,9.5107,9.4997,9.4373,9.4116,9.4079,9.3896,9.3932,9.4006,9.4153,9.4336,9.507,9.5804,9.6098,9.6282,9.6318,9.6502,9.6612,9.6649,9.6722,9.6722,9.6722,9.6722,9.6722,9.6722,9.6722,9.6722,9.6722,9.6722,9.6722,9.6722,9.6722,9.6722,9.6722,9.6722,9.6722,9.6722,9.6722,9.6722,9.7383,9.6869,9.753,9.7383,9.6906,9.7309,9.8117,9.8998,9.9071,9.9035,9.8941,9.8905,9.9145,9.9879,10.0172,10.0466,10.0796,10.0356,10.0246,10.0172,10.0246,10.0172,10.0466,10.1037,10.1164,10.133,10.133,10.122,10.1404,10.1037,10.1073,10.1294,10.1053,10.1127,10.065,9.9805,9.9071,9.8594,9.7603,9.6832,9.6722,9.6722,9.6722,9.6722,9.6722,9.6722,9.6722,9.6722,9.6722,9.6722,9.6722,9.6722,9.6722,9.6722,9.6722,9.6722,9.6722,9.6722,9.6722,9.6722,9.6722,9.6722,9.6722,9.6722,9.6649,9.6575,9.6392,9.6318,9.6208,9.5878,9.564,9.5437,9.5217,9.4997,9.4666,9.4446,9.4336,9.4226,9.4153,9.3932,9.3822,9.3639,9.3161,9.3051,9.3125,9.3125,9.3272,9.3529,9.4299,9.5217,9.5437,9.5584,9.5878,9.6465,9.6539,9.6502,9.6722,9.6722,9.6722,9.6722,9.6722,9.6685,9.6722,9.6722,9.6722,9.6722,9.6722,9.6722,9.6722,9.6722,9.6722,9.6722,9.6722,9.6722,9.6722,9.6906,9.6722,9.6942,9.6906,9.6685,9.6355,9.6979,9.819,9.8814,9.8851,9.8264,9.8851,9.8998,9.8668,9.9769,10.0026,10.0062,10.0099,10.0283,10.0246,10.0026,10.0209,10.054,10.089,10.1017,10.0796,10.065,10.065,10.0466,10.0209,10.0283,10.0503,10.0246,10.0283,9.9952,9.9071,9.8888,9.8484,9.7419,9.6906,9.6722,9.6722,9.6722,9.6722,9.6722,9.6722,9.6722,9.6722,9.6722,9.6722,9.6722,9.6722,9.6722,9.6722,9.6722,9.6722,9.6722,9.6722,9.6722,9.6722,9.6722,9.6685,9.6649,9.6722,9.6575,9.6245,9.5951,9.5804,9.5511,9.5107,9.4813,9.4593,9.4373,9.4079,9.3822,9.3712,9.3565,9.3418,9.3308,9.3051,9.2941,9.2905,9.2427,9.2354,9.2391,9.2244,9.2281,9.2501,9.2978,9.3969,9.4556,9.4703,9.5217,9.5768,9.6098,9.6135,9.6465,9.6722,9.6575,9.6539,9.6575,9.6575,9.6685,9.6722,9.6722,9.6722,9.6722,9.6722,9.6722,9.6722,9.6722,9.6722,9.6722,9.6722,9.6722,9.6428,9.6685,9.6722,9.6539,9.6135,9.5401,9.5621,9.6575,9.7676,9.7823,9.7603,9.8594,9.8668,9.8227,9.9181,9.9585,9.9198,9.9145,9.9181,9.9181,9.9438,9.9255,9.9585,10.0136,10.0136,9.9952,9.9842,9.9842,9.9659,9.9475,9.9455,9.9732,9.9235,9.9438,9.9328,9.8704,9.83,9.8007,9.7493,9.6869,9.6722,9.6722,9.6722,9.6722,9.6722,9.6722,9.6722,9.6722,9.6722,9.6722,9.6722,9.6722,9.6722,9.6722,9.6722,9.6722,9.6722,9.6722,9.6722,9.6722,9.6722,9.6612,9.6428,9.6208,9.6098,9.5804,9.5401,9.507,9.463,9.4226,9.4006,9.3786,9.3565,9.3308,9.3161,9.3051,9.2831,9.2648,9.2317,9.1987,9.1913,9.195,9.184,9.1803,9.1803,9.1913,9.195,9.2024,9.2427,9.3161,9.3639,9.3859,9.4446,9.5034,9.529,9.5511,9.5621,9.5841,9.5988,9.6025,9.6245,9.6502,9.6612,9.6685,9.6722,9.6722,9.6722,9.6722,9.6722,9.6722,9.6722,9.6722,9.6722,9.6722,9.6722,9.5841,9.6465,9.6502,9.5951,9.5235,9.4483,9.4189,9.4299,9.5841,9.6539,9.6869,9.83,9.8447,9.7897,9.8594,9.8851,9.8557,9.8337,9.8337,9.7953,9.8227,9.8337,9.8668,9.8778,9.9365,9.9255,9.8998,9.8888,9.8851,9.8668,9.8538,9.8941,9.8741,9.8778,9.8778,9.808,9.7676,9.7566,9.7199,9.6722,9.6722,9.6722,9.6722,9.6722,9.6722,9.6722,9.6722,9.6722,9.6722,9.6722,9.6722,9.6722,9.6722,9.6722,9.6722,9.6722,9.6722,9.6722,9.6722,9.6722,9.6575,9.6355,9.5951,9.5474,9.5198,9.496,9.452,9.4189,9.3749,9.3345,9.3088,9.2978,9.2794,9.2574,9.2427,9.2354,9.2281,9.217,9.206,9.1803,9.1803,9.1803,9.1803,9.1803,9.1803,9.1803,9.1803,9.1803,9.2024,9.2611,9.2831,9.3051,9.3675,9.4189,9.4336,9.452,9.452,9.474,9.5107,9.5327,9.5401,9.5951,9.6575,9.6649,9.6722,9.6722,9.6722,9.6722,9.6722,9.6722,9.6722,9.6722,9.6722,9.6722,9.6722,9.4703,9.4887,9.485,9.441,9.3712,9.3492,9.3015,9.2574,9.4153,9.5217,9.5988,9.7309,9.775,9.7199,9.7823,9.797,9.7493,9.7603,9.786,9.7806,9.7769,9.786,9.8557,9.8631,9.8941,9.8888,9.8557,9.7933,9.764,9.753,9.764,9.8043,9.7823,9.7713,9.8117,9.7419,9.7126,9.7126,9.6942,9.6722,9.6722,9.6722,9.6722,9.6722,9.6722,9.6722,9.6722,9.6722,9.6722,9.6722,9.6722,9.6722,9.6722,9.6685,9.6685,9.6685,9.6612,9.6612,9.6685,9.6575,9.6355,9.5951,9.5418,9.4648,9.4134,9.3859,9.3565,9.3272,9.2941,9.2537,9.2281,9.2207,9.2097,9.195,9.1803,9.1803,9.1803,9.1803,9.1803,9.1803,9.1803,9.1803,9.1803,9.1803,9.1803,9.1803,9.1803,9.1803,9.1803,9.2134,9.217,9.2464,9.2941,9.3382,9.3492,9.3602,9.3639,9.3969,9.4373,9.4483,9.4593,9.5217,9.5878,9.6465,9.6722,9.6612,9.6612,9.6722,9.6722,9.6722,9.6722,9.6722,9.6722,9.6722,9.6722,9.3969,9.4226,9.3896,9.3712,9.3529,9.2868,9.2244,9.2097,9.3198,9.4006,9.4684,9.6282,9.6906,9.6355,9.7016,9.7236,9.6722,9.6722,9.6979,9.7199,9.7163,9.7273,9.775,9.8154,9.7933,9.7823,9.7603,9.7126,9.6759,9.6759,9.7052,9.7273,9.6906,9.6906,9.7365,9.6906,9.6722,9.6722,9.6722,9.6722,9.6722,9.6722,9.6722,9.6722,9.6722,9.6722,9.6722,9.6722,9.6722,9.6539,9.6355,9.5804,9.5658,9.5474,9.5768,9.6025,9.6171,9.6318,9.6465,9.6355,9.5988,9.5492,9.4593,9.3712,9.3455,9.3161,9.2684,9.2391,9.2354,9.1987,9.1987,9.195,9.195,9.184,9.1803,9.1803,9.1803,9.1803,9.1803,9.1803,9.1803,9.1803,9.1803,9.1803,9.1803,9.1803,9.1803,9.1803,9.1803,9.1803,9.1803,9.1877,9.2427,9.2537,9.2537,9.2684,9.2831,9.3161,9.3602,9.3969,9.4263,9.4666,9.5144,9.5768,9.6245,9.6392,9.6428,9.6575,9.6685,9.6722,9.6722,9.6722,9.6722,9.6722,9.6722,9.3345,9.3822,9.3198,9.3308,9.3712,9.2464,9.1803,9.195,9.2721,9.3051,9.3272,9.5217,9.5694,9.5804,9.6135,9.6392,9.6428,9.6098,9.6208,9.6245,9.5951,9.6318,9.6575,9.6759,9.6942,9.7016,9.6869,9.6832,9.6722,9.6722,9.6722,9.6722,9.6722,9.6722,9.6722,9.6722,9.6722,9.6722,9.6722,9.6722,9.6722,9.6722,9.6722,9.6722,9.6722,9.6722,9.6722,9.6722,9.6722,9.6208,9.5768,9.518,9.4813,9.4703,9.4887,9.5217,9.5602,9.5841,9.5988,9.5804,9.5418,9.4831,9.3675,9.3051,9.2831,9.2464,9.1987,9.184,9.1803,9.1803,9.1803,9.1803,9.1803,9.1803,9.1803,9.1803,9.1803,9.1803,9.1803,9.1803,9.1803,9.1803,9.1803,9.1803,9.1803,9.1803,9.1803,9.1803,9.1803,9.1803,9.1803,9.1803,9.2024,9.2024,9.1877,9.206,9.2317,9.2354,9.2794,9.3382,9.3859,9.4042,9.4446,9.5107,9.5511,9.5878,9.6245,9.6502,9.6612,9.6685,9.6722,9.6722,9.6722,9.6722,9.6722,9.2134,9.2244,9.2097,9.217,9.2244,9.1913,9.1803,9.195,9.2684,9.2721,9.2537,9.3161,9.3969,9.4556,9.5401,9.5749,9.5859,9.5492,9.5492,9.5602,9.5602,9.5675,9.5932,9.6539,9.6685,9.6722,9.6722,9.6722,9.6722,9.6722,9.6722,9.6722,9.6722,9.6722,9.6722,9.6722,9.6722,9.6722,9.6722,9.6722,9.6722,9.6722,9.6722,9.6722,9.6722,9.6722,9.6722,9.6722,9.6318,9.5694,9.4997,9.4483,9.4116,9.4006,9.4189,9.4483,9.4868,9.507,9.5107,9.5144,9.4794,9.3914,9.3015,9.2684,9.2427,9.2097,9.1803,9.1803,9.1803,9.1803,9.1803,9.1803,9.1803,9.1803,9.1803,9.1803,9.1803,9.1803,9.1803,9.1803,9.1803,9.1803,9.1803,9.1803,9.1803,9.1803,9.1803,9.1803,9.1803,9.1803,9.1803,9.1803,9.1803,9.1803,9.1803,9.184,9.1987,9.1913,9.2024,9.2611,9.3051,9.3235,9.3712,9.4373,9.4997,9.5437,9.5841,9.6245,9.6539,9.6649,9.6685,9.6722,9.6722,9.6722,9.6722]}]]